[[{"header":{"parameterUnit":"m.s-1","parameterCategory":1,"la1":30.6,"la2":29.2853,"lo1":-89.7004,"lo2":-87.6739,"dy":0.0162,"dx":0.0183,"nx":112,"ny":82,"refTime":"2024-06-15T00:00:00:Z","depth":0,"parameterNumber":2,"parameterNumberName":"U-component_of_WINDS"},"data":[0.0,0.0,0.0,0.0,0.0,0.0,0.0,0.0,0.0,0.0,0.0,0.0,0.0,0.0,0.0,0.0,0.0,0.0,0.0,0.0,0.0,0.0,0.0,0.0,0.0,0.0,0.0,0.0,0.0,0.0,0.0,0.0,0.0,0.0,0.0,0.0,0.0,0.0,0.0,0.0,0.0,0.0,0.0,0.0,0.0,0.0,0.0,0.0,0.0,0.0,0.0,0.0,0.0,0.0,0.0,0.0,0.0,0.0,0.0,0.0,0.0,0.0,0.0,0.0,0.0,0.0,0.0,0.0,0.0,0.0,0.0,0.0,0.0,0.0,0.0,0.0,0.0,0.0,0.0,0.0,0.0,0.0,0.0,0.0,0.0,0.0,0.0,0.0,0.0,0.0,-0.6255,-0.8807,-1.1241,-1.2303,-1.1466,-1.0274,-0.8748,-0.6836,0.0,0.0,0.0,0.0,0.0,0.0,0.0,0.0,0.0,0.0,0.0,0.0,0.0,0.0,0.0,0.0,0.0,0.0,0.0,0.0,0.0,0.0,0.0,0.0,0.0,0.0,0.0,0.0,0.0,0.0,0.0,0.0,0.0,0.0,0.0,0.0,0.0,0.0,0.0,0.0,0.0,0.0,0.0,0.0,0.0,0.0,0.0,0.0,0.0,0.0,0.0,0.0,0.0,0.0,0.0,0.0,0.0,0.0,0.0,0.0,0.0,0.0,0.0,0.0,0.0,0.0,0.0,0.0,0.0,0.0,0.0,0.0,0.0,0.0,0.0,0.0,0.0,0.0,0.0,0.0,0.0,0.0,0.0,0.0,0.0,0.0,0.0,0.0,0.0,0.0,0.0,0.0,0.0,0.0,0.0,0.0,0.0,0.0,0.0,0.0,0.0,0.0,0.0,0.0,-0.786,-1.1344,-1.2438,-1.2612,-1.179,-1.031,-0.8638,-0.6811,0.0,0.0,0.0,0.0,0.0,0.0,0.0,0.0,0.0,0.0,0.0,0.0,0.0,0.0,0.0,0.0,0.0,0.0,0.0,0.0,0.0,0.0,0.0,0.0,0.0,0.0,0.0,0.0,0.0,0.0,0.0,0.0,0.0,0.0,0.0,0.0,0.0,0.0,0.0,0.0,0.0,0.0,0.0,0.0,0.0,0.0,0.0,0.0,0.0,0.0,0.0,0.0,0.0,0.0,0.0,0.0,0.0,0.0,0.0,0.0,0.0,0.0,0.0,0.0,0.0,0.0,0.0,0.0,0.0,0.0,0.0,0.0,0.0,0.0,0.0,0.0,0.0,0.0,0.0,0.0,0.0,0.0,0.0,0.0,0.0,0.0,0.0,0.0,0.0,0.0,0.0,0.0,0.0,0.0,0.0,0.0,0.0,0.0,0.0,0.0,0.0,0.0,0.0,-0.7234,-0.9602,-1.2299,-1.2819,-1.2689,-1.1958,-1.0368,-0.8606,-0.6754,-0.531,0.0,0.0,0.0,0.0,0.0,0.0,0.0,0.0,0.0,0.0,0.0,0.0,0.0,0.0,0.0,0.0,0.0,0.0,0.0,0.0,0.0,0.0,0.0,0.0,0.0,0.0,0.0,0.0,0.0,0.0,0.0,0.0,0.0,0.0,0.0,0.0,0.0,0.0,0.0,0.0,0.0,0.0,0.0,0.0,0.0,0.0,0.0,0.0,0.0,0.0,0.0,0.0,0.0,0.0,0.0,0.0,0.0,0.0,0.0,0.0,0.0,0.0,0.0,0.0,0.0,0.0,0.0,0.0,0.0,0.0,0.0,0.0,0.0,0.0,0.0,0.0,0.0,0.0,0.0,0.0,0.0,0.0,0.0,0.0,0.0,0.0,0.0,0.0,0.0,0.0,0.0,0.0,0.0,0.0,0.0,0.0,0.0,0.0,0.0,0.0,0.0,0.0,-0.9173,-1.0935,-1.2731,-1.3019,-1.275,-1.195,-1.0368,-0.8571,-0.6645,-0.5096,0.0,0.0,0.0,0.0,0.0,0.0,0.0,0.0,0.0,0.0,0.0,0.0,0.0,0.0,0.0,0.0,0.0,0.0,0.0,0.0,0.0,0.0,0.0,0.0,0.0,0.0,0.0,0.0,0.0,0.0,0.0,0.0,0.0,0.0,0.0,0.0,0.0,0.0,0.0,0.0,0.0,0.0,0.0,0.0,0.0,0.0,0.0,0.0,0.0,0.0,0.0,0.0,0.0,0.0,0.0,0.0,0.0,0.0,0.0,0.0,0.0,0.0,0.0,0.0,0.0,0.0,0.0,0.0,0.0,0.0,0.0,0.0,0.0,0.0,0.0,0.0,0.0,0.0,0.0,0.0,0.0,0.0,0.0,0.0,0.0,0.0,0.0,0.0,0.0,0.0,0.0,0.0,0.0,0.0,0.0,0.0,0.0,0.0,0.0,0.0,0.0,0.0,-0.9832,-1.1401,-1.3082,-1.3282,-1.2803,-1.164,-1.0219,-0.8514,-0.6455,-0.4925,0.0,0.0,0.0,0.0,0.0,0.0,0.0,0.0,0.0,0.0,0.0,0.0,0.0,0.0,0.0,0.0,0.0,0.0,0.0,0.0,0.0,0.0,0.0,0.0,0.0,0.0,0.0,0.0,0.0,0.0,0.0,0.0,0.0,0.0,0.0,0.0,0.0,0.0,0.0,0.0,0.0,0.0,0.0,0.0,0.0,0.0,0.0,0.0,0.0,0.0,0.0,0.0,0.0,0.0,0.0,0.0,0.0,0.0,0.0,0.0,0.0,0.0,0.0,0.0,0.0,0.0,0.0,0.0,0.0,0.0,0.0,0.0,0.0,0.0,0.0,0.0,0.0,0.0,0.0,0.0,0.0,0.0,0.0,0.0,0.0,0.0,0.0,0.0,0.0,0.0,0.0,0.0,0.0,0.0,0.0,0.0,0.0,0.0,0.0,0.0,0.0,0.0,-1.0359,-1.203,-1.3639,-1.3715,-1.3176,-1.1983,-1.0358,-0.8514,-0.6428,0.0,0.0,0.0,0.0,0.0,0.0,0.0,0.0,0.0,0.0,0.0,0.0,0.0,0.0,0.0,0.0,0.0,0.0,0.0,0.0,0.0,0.0,0.0,0.0,0.0,0.0,0.0,0.0,0.0,0.0,0.0,0.0,0.0,0.0,0.0,0.0,0.0,0.0,0.0,0.0,0.0,0.0,0.0,0.0,0.0,0.0,0.0,0.0,0.0,0.0,0.0,0.0,0.0,0.0,0.0,0.0,0.0,0.0,0.0,0.0,0.0,0.0,0.0,0.0,0.0,0.0,0.0,0.0,0.0,0.0,0.0,0.0,0.0,0.0,0.0,0.0,0.0,0.0,0.0,0.0,0.0,0.0,0.0,0.0,0.0,0.0,0.0,0.0,0.0,0.0,0.0,0.0,0.0,0.0,0.0,0.0,0.0,0.0,0.0,0.0,0.0,0.0,-0.8887,-1.091,-1.2677,-1.4039,-1.4124,-1.3538,-1.2193,-1.0451,-0.8543,-0.6487,0.0,0.0,0.0,0.0,0.0,0.0,0.0,0.0,0.0,0.0,0.0,0.0,0.0,0.0,0.0,0.0,0.0,0.0,0.0,0.0,0.0,0.0,0.0,0.0,0.0,0.0,0.0,0.0,0.0,0.0,0.0,0.0,0.0,0.0,0.0,0.0,0.0,0.0,0.0,0.0,0.0,0.0,0.0,0.0,0.0,0.0,0.0,0.0,0.0,0.0,0.0,0.0,0.0,0.0,0.0,0.0,0.0,0.0,0.0,0.0,0.0,0.0,0.0,0.0,0.0,0.0,0.0,0.0,0.0,0.0,0.0,0.0,0.0,0.0,0.0,0.0,0.0,0.0,0.0,0.0,0.0,0.0,0.0,0.0,0.0,0.0,0.0,0.0,0.0,0.0,0.0,0.0,0.0,0.0,0.0,0.0,0.0,0.0,0.0,0.0,0.0,0.0,-0.9315,-1.1558,-1.3317,-1.432,-1.443,-1.3783,-1.2243,-1.0451,-0.8583,0.0,0.0,0.0,0.0,0.0,0.0,0.0,0.0,0.0,0.0,0.0,0.0,0.0,0.0,0.0,0.0,0.0,0.0,0.0,0.0,0.0,0.0,0.0,0.0,0.0,0.0,0.0,0.0,0.0,0.0,0.0,0.0,0.0,0.0,0.0,0.0,0.0,0.0,0.0,0.0,0.0,0.0,0.0,0.0,0.0,0.0,0.0,0.0,0.0,0.0,0.0,0.0,0.0,0.0,0.0,0.0,0.0,0.0,0.0,0.0,0.0,0.0,0.0,0.0,0.0,0.0,0.0,0.0,0.0,0.0,0.0,0.0,0.0,0.0,0.0,0.0,0.0,0.0,0.0,0.0,0.0,0.0,0.0,0.0,0.0,0.0,0.0,0.0,0.0,0.0,0.0,0.0,0.0,0.0,0.0,0.0,0.0,0.0,0.0,0.0,0.0,0.0,0.0,-1.0426,-1.2785,-1.4595,-1.5504,-1.5477,-1.4719,-1.3022,-1.1172,-0.9208,-0.7112,0.0,0.0,0.0,0.0,0.0,0.0,0.0,0.0,0.0,0.0,0.0,0.0,0.0,0.0,0.0,0.0,0.0,0.0,0.0,0.0,0.0,0.0,0.0,0.0,0.0,0.0,0.0,0.0,0.0,0.0,0.0,0.0,0.0,0.0,0.0,0.0,0.0,0.0,0.0,0.0,0.0,0.0,0.0,0.0,0.0,0.0,0.0,0.0,0.0,0.0,0.0,0.0,0.0,0.0,0.0,0.0,0.0,0.0,0.0,0.0,0.0,0.0,0.0,0.0,0.0,0.0,0.0,0.0,0.0,0.0,0.0,0.0,0.0,0.0,0.0,0.0,0.0,0.0,0.0,0.0,0.0,0.0,0.0,0.0,0.0,0.0,0.0,0.0,0.0,0.0,0.0,0.0,0.0,0.0,0.0,0.0,0.0,0.0,0.0,0.0,0.0,0.0,-1.1338,-1.3632,-1.5395,-1.633,-1.6203,-1.5379,-1.3784,-1.1935,-0.9969,-0.7802,0.0,0.0,0.0,0.0,0.0,0.0,0.0,0.0,0.0,0.0,0.0,0.0,0.0,0.0,0.0,0.0,0.0,0.0,0.0,0.0,0.0,0.0,0.0,0.0,0.0,0.0,0.0,0.0,0.0,0.0,0.0,0.0,0.0,0.0,0.0,0.0,0.0,0.0,0.0,0.0,0.0,0.0,0.0,0.0,0.0,0.0,0.0,0.0,0.0,0.0,0.0,0.0,0.0,0.0,0.0,0.0,0.0,0.0,0.0,0.0,0.0,0.0,0.0,0.0,0.0,0.0,0.0,0.0,0.0,0.0,0.0,0.0,0.0,0.0,0.0,0.0,0.0,0.0,0.0,0.0,0.0,0.0,0.0,0.0,0.0,0.0,0.0,0.0,0.0,0.0,0.0,0.0,0.0,0.0,0.0,0.0,0.0,0.0,0.0,0.0,0.0,0.0,-1.2144,-1.423,-1.587,-1.6859,-1.6669,-1.5909,-1.4536,-1.2766,-1.0856,-0.8724,0.0,0.0,0.0,0.0,0.0,0.0,0.0,0.0,0.0,0.0,0.0,0.0,0.0,0.0,0.0,0.0,0.0,0.0,0.0,0.0,0.0,0.0,0.0,0.0,0.0,0.0,0.0,0.0,0.0,0.0,0.0,0.0,0.0,0.0,0.0,0.0,0.0,0.0,0.0,0.0,0.0,0.0,0.0,0.0,0.0,0.0,0.0,0.0,0.0,0.0,0.0,0.0,0.0,0.0,0.0,0.0,0.0,0.0,0.0,0.0,-0.4451,-0.3115,0.0,0.0,0.0,0.0,0.0,0.0,0.0,0.0,0.0,0.0,0.0,0.0,0.0,0.0,0.0,0.0,0.0,0.0,0.0,0.0,0.0,0.0,0.0,0.0,0.0,0.0,0.0,0.0,0.0,0.0,0.0,0.0,0.0,0.0,0.0,0.0,0.0,0.0,0.0,0.0,-1.3284,-1.5132,-1.6593,-1.7427,-1.7241,-1.6562,-1.5415,-1.377,-1.1989,-1.0158,-0.7954,0.0,0.0,0.0,0.0,0.0,0.0,0.0,0.0,0.0,0.0,0.0,0.0,0.0,0.0,0.0,0.0,0.0,0.0,0.0,0.0,0.0,0.0,0.0,0.0,0.0,0.0,0.0,0.0,0.0,0.0,0.0,0.0,0.0,0.0,0.0,0.0,0.0,0.0,0.0,0.0,0.0,0.0,0.0,0.0,0.0,0.0,0.0,0.0,0.0,0.0,0.0,0.0,0.0,0.0,0.0,0.0,0.0,0.0,0.0,-0.7188,-0.5511,0.0,0.0,0.0,0.0,0.0,0.0,0.0,0.0,0.0,0.0,0.0,0.0,0.0,0.0,0.0,0.0,0.0,0.0,0.0,0.0,0.0,0.0,0.0,0.0,0.0,0.0,0.0,0.0,0.0,0.0,0.0,0.0,0.0,0.0,0.0,0.0,0.0,0.0,0.0,0.0,-1.4424,-1.5997,-1.7168,-1.7794,-1.7613,-1.7067,-1.6062,-1.4765,-1.3264,-1.1554,-0.9458,0.0,0.0,0.0,0.0,0.0,0.0,0.0,0.0,0.0,0.0,0.0,0.0,0.0,0.0,0.0,0.0,0.0,0.0,0.0,0.0,0.0,0.0,0.0,0.0,0.0,0.0,0.0,0.0,0.0,0.0,0.0,0.0,0.0,0.0,0.0,0.0,0.0,0.0,0.0,0.0,0.0,0.0,0.0,0.0,0.0,0.0,0.0,0.0,0.0,0.0,0.0,0.0,0.0,-1.6266,-1.5332,-1.4119,-1.405,-1.3859,-1.3438,-1.0587,-0.8671,-0.7502,-0.6527,0.0,0.0,0.0,0.0,0.0,0.0,0.0,0.0,0.0,0.0,0.0,0.0,0.0,0.0,0.0,0.0,0.0,0.0,0.0,0.0,0.0,0.0,-1.3722,-1.4917,-1.5199,-1.4529,-1.2311,0.0,0.0,0.0,0.0,0.0,0.0,0.0,0.0,0.0,0.0,0.0,-1.5643,-1.6924,-1.7793,-1.8213,-1.8037,-1.7556,-1.6701,-1.5779,-1.4562,-1.2964,-1.1189,-0.9552,0.0,0.0,0.0,0.0,0.0,0.0,0.0,0.0,0.0,0.0,0.0,0.0,0.0,0.0,0.0,0.0,0.0,0.0,0.0,0.0,0.0,0.0,0.0,0.0,0.0,0.0,0.0,0.0,0.0,0.0,0.0,0.0,-0.2753,-0.3788,0.0,0.0,0.0,0.0,0.0,0.0,0.0,0.0,0.0,0.0,0.0,0.0,0.0,-0.9173,-0.8132,-1.4181,-1.8313,-2.0467,-1.8766,-1.8011,-1.8108,-1.7757,-1.7586,-1.7463,-1.6142,0.0,-1.0651,-0.9735,0.0,0.0,0.0,0.0,0.0,0.0,0.0,0.0,0.0,0.0,0.0,0.0,0.0,0.0,0.0,0.0,0.0,0.0,0.0,0.0,0.0,0.0,-1.7687,-1.8325,-1.8688,-1.8724,-1.8075,-1.5158,-1.249,-1.1869,-1.1259,-1.0654,0.0,0.0,0.0,0.0,0.0,0.0,-1.7053,-1.809,-1.8789,-1.9245,-1.8844,-1.8284,-1.7599,-1.671,-1.5644,-1.431,-1.2978,-1.138,-0.9518,-0.8153,0.0,0.0,0.0,0.0,0.0,0.0,0.0,0.0,0.0,0.0,0.0,0.0,0.0,0.0,0.0,0.0,0.0,0.0,0.0,0.0,0.0,0.0,0.0,0.0,0.0,0.0,0.0,0.0,0.0,-0.3442,-0.5086,-0.643,-0.6792,-0.7037,0.0,0.0,0.0,0.0,0.0,0.0,0.0,0.0,0.0,-1.38,-1.3837,-1.4366,-1.5419,-1.8732,-2.1008,-2.226,-2.0661,-2.0158,-2.0581,-2.0407,-1.9994,-1.9404,-1.8939,-1.7663,-1.5787,-1.3264,-1.1719,-1.082,0.0,0.0,0.0,0.0,-1.167,-1.2701,-1.3072,-1.3363,-1.3563,-1.3407,0.0,0.0,0.0,0.0,0.0,0.0,0.0,-1.6066,-1.7383,-1.8889,-2.0237,-2.1104,-2.1293,-2.1313,-2.1455,-1.9878,-1.7787,-1.5408,-1.4553,-1.3955,-1.3154,-1.3254,0.0,0.0,0.0,-1.7583,-1.8649,-1.974,-2.0398,-2.024,-1.9659,-1.9088,-1.8473,-1.7533,-1.66,-1.5725,-1.4302,-1.2981,-1.1764,-0.9892,-0.8299,0.0,0.0,0.0,0.0,0.0,0.0,0.0,0.0,0.0,0.0,0.0,0.0,0.0,0.0,0.0,0.0,0.0,0.0,0.0,0.0,0.0,0.0,0.0,0.0,0.0,0.0,0.0,0.0,-0.5999,-0.7598,-0.9172,-0.9731,-1.0082,0.0,0.0,0.0,0.0,0.0,0.0,-1.4675,-1.6092,-1.7162,-1.7733,-1.7568,-1.8686,-2.1211,-2.25,-2.3091,-2.3091,-2.214,-2.1863,-2.2202,-2.2202,-2.1736,-2.0909,-2.0824,-2.0567,-1.9961,-1.6652,-1.4893,-1.4231,-1.3857,-1.3731,-1.3855,-1.4482,-1.5374,-1.6385,-1.6851,-1.7183,-1.7452,-1.726,-1.6866,-1.6372,-1.6019,0.0,0.0,0.0,0.0,-1.9494,-2.0374,-2.1555,-2.2729,-2.3508,-2.3629,-2.3665,-2.4029,-2.3819,-2.2469,-1.8792,-1.7827,-1.7298,-1.6325,-1.6397,0.0,-1.7236,-1.8796,-2.0066,-2.049,-2.1495,-2.1956,-2.1477,-2.0755,-2.0006,-1.9328,-1.8387,-1.7512,-1.6845,-1.5507,-1.4357,-1.3549,-1.1543,-0.9862,-0.8614,0.0,0.0,0.0,0.0,0.0,0.0,0.0,0.0,0.0,0.0,0.0,0.0,0.0,0.0,0.0,0.0,0.0,0.0,0.0,0.0,0.0,0.0,0.0,0.0,0.0,0.0,0.0,0.0,0.0,-1.2102,-1.2915,0.0,0.0,0.0,0.0,-1.5449,-1.6138,-1.6933,-1.8008,-1.8686,-1.9609,-2.0818,-2.0193,-2.0847,-2.2945,-2.3052,-2.3091,-2.3091,-2.3052,-2.3042,-2.3052,-2.3052,-2.2921,-2.2648,-2.2208,-2.1996,-2.1796,-1.9724,-1.8607,-1.8191,-1.7695,-1.7735,-1.8044,-1.8391,-1.9084,-1.9935,-2.0596,-2.0855,-2.0865,-2.1045,-2.0622,-1.9964,-1.9555,-1.9727,0.0,0.0,-2.166,-2.2861,-2.3297,-2.4468,-2.5593,-2.5639,-2.5945,-2.6212,-2.6235,-2.6224,-2.5156,-2.1683,-2.0968,-2.0552,-1.9211,0.0,-1.9472,-1.968,-2.0608,-2.1681,-2.2701,-2.3133,-2.3257,-2.3092,-2.2179,-2.1193,-2.0141,-1.9337,-1.8473,-1.7425,-1.6574,-1.5526,-1.4225,-1.3062,-1.1551,-0.9662,-0.8349,0.0,0.0,0.0,0.0,0.0,0.0,0.0,0.0,0.0,0.0,0.0,0.0,0.0,0.0,0.0,0.0,0.0,0.0,0.0,0.0,0.0,0.0,0.0,0.0,0.0,0.0,0.0,0.0,-1.523,-1.5918,0.0,-1.685,-1.7223,-1.7748,-1.8459,-1.949,-2.0338,-2.0846,-2.1739,-2.2554,-2.3345,-2.3263,-2.3173,-2.3091,-2.3091,-2.435,-2.6771,-2.6771,-2.6334,-2.5554,-2.5554,-2.5272,-2.483,-2.4696,-2.4606,-2.4566,-2.3855,-2.2236,-2.0231,-2.0104,-2.0148,-2.03,-2.1001,-2.1726,-2.2436,-2.293,-2.3176,-2.3247,-2.3087,-2.3,-2.2913,-2.2483,-2.287,-2.3437,-2.3246,-2.4203,-2.5338,-2.5597,-2.6491,-2.736,-2.749,-2.7647,-2.7738,-2.7738,-2.7738,-2.7287,-2.5683,-2.4692,-2.3821,-2.3029,-2.2783,-2.2696,-2.2796,-2.3271,-2.3733,-2.4002,-2.4387,-2.446,-2.4068,-2.3116,-2.2007,-2.0852,-1.9864,-1.8952,-1.8038,-1.697,-1.6132,-1.5508,-1.4004,-1.2544,-1.1207,-0.9854,-0.8465,0.0,0.0,0.0,0.0,0.0,0.0,0.0,0.0,0.0,0.0,0.0,0.0,0.0,0.0,0.0,0.0,0.0,0.0,0.0,0.0,0.0,0.0,0.0,0.0,0.0,-1.4022,-1.6039,-1.7758,-1.8592,-1.9193,-1.9637,-2.0081,-2.0589,-2.1173,-2.2329,-2.3093,-2.3284,-2.4284,-2.5007,-2.5322,-2.5638,-2.5389,-2.4567,-2.5016,-2.6528,-2.9035,-2.9035,-2.8407,-2.7243,-2.7243,-2.6857,-2.6256,-2.6256,-2.6256,-2.6256,-2.6256,-2.4992,-2.3062,-2.2918,-2.2939,-2.3028,-2.3595,-2.4148,-2.4693,-2.5065,-2.5371,-2.5551,-2.53,-2.5389,-2.5571,-2.5234,-2.5665,-2.6168,-2.5823,-2.6477,-2.7317,-2.7435,-2.8052,-2.8645,-2.8776,-2.8867,-2.8946,-2.8946,-2.8946,-2.8836,-2.8458,-2.7312,-2.6195,-2.5683,-2.5493,-2.5383,-2.5383,-2.5665,-2.5818,-2.57,-2.5741,-2.5624,-2.5181,-2.3982,-2.2802,-2.1702,-2.0456,-1.9337,-1.8468,-1.7262,-1.643,-1.6087,-1.4729,-1.3559,-1.258,-1.104,-0.9685,-0.8543,0.0,0.0,0.0,0.0,0.0,0.0,0.0,0.0,0.0,0.0,0.0,0.0,0.0,0.0,0.0,0.0,0.0,0.0,0.0,0.0,0.0,0.0,0.0,-1.4581,-1.6751,-1.8848,-1.9723,-2.0954,-2.1976,-2.2598,-2.2689,-2.3006,-2.3638,-2.4586,-2.5179,-2.5391,-2.6279,-2.6783,-2.6804,-2.7239,-2.7502,-2.7523,-2.8853,-2.9531,-2.9577,-2.9577,-2.9013,-2.7986,-2.7986,-2.7553,-2.6815,-2.6815,-2.6815,-2.6815,-2.6815,-2.6815,-2.677,-2.6267,-2.6156,-2.6341,-2.627,-2.6454,-2.6754,-2.7144,-2.7522,-2.7834,-2.7834,-2.7862,-2.7851,-2.7851,-2.8023,-2.8219,-2.8219,-2.8526,-2.8831,-2.8831,-2.9106,-2.9419,-2.9419,-2.9599,-2.9792,-2.9792,-2.9792,-2.9792,-2.9792,-2.87,-2.7625,-2.7169,-2.7234,-2.7346,-2.7346,-2.7594,0.0,-2.7828,-2.7199,-2.6662,-2.6432,-2.4938,-2.3607,-2.2695,-2.1146,-1.9757,-1.8677,-1.7444,-1.6459,-1.5869,-1.5336,-1.4626,-1.376,-1.1938,-1.0728,-1.0146,0.0,0.0,0.0,0.0,0.0,0.0,0.0,0.0,0.0,0.0,0.0,0.0,0.0,0.0,0.0,0.0,0.0,0.0,0.0,0.0,0.0,-1.7856,-1.9136,-1.8359,-2.0042,-2.1668,-2.2615,-2.3427,-2.4006,-2.4183,-2.4973,-2.5582,-2.576,-2.701,-2.7795,-2.7838,-2.84,-2.8893,-2.9228,-2.9376,-2.9561,-2.9782,-3.0203,-3.0611,-3.1003,-3.1003,-3.0674,-3.0085,-3.0085,-2.9938,-2.9757,-2.9757,-2.9757,-2.9757,-2.9757,-2.9757,-2.9554,-2.7744,-2.7039,-2.7183,-2.7827,-2.8428,-2.8981,-2.9195,-2.9106,-2.8906,-2.8906,-2.8735,-2.8554,-2.8554,-2.8685,-2.8855,-2.8855,-2.904,-2.9223,-2.9223,-2.9443,-2.9689,-2.9689,-2.9753,-2.9792,-2.9792,-2.9792,-2.9792,-2.9792,-2.9512,-2.9183,-2.9046,-2.8711,-2.845,-2.845,-2.8213,-2.8024,-2.8024,-2.7703,-2.7348,-2.7029,-2.5723,-2.4425,-2.3267,-2.1492,-2.0016,-1.9097,-1.7989,-1.7152,-1.6687,-1.6336,-1.5693,-1.4746,-1.3912,-1.3423,0.0,0.0,0.0,0.0,0.0,0.0,0.0,0.0,0.0,0.0,0.0,0.0,0.0,0.0,0.0,0.0,0.0,0.0,0.0,0.0,0.0,0.0,-2.1298,-2.2783,-2.283,-2.3286,-2.382,-2.4501,-2.5509,-2.615,-2.6248,-2.7217,-2.7836,-2.7941,-2.8927,-2.9574,-2.966,-3.013,-3.0533,-3.0842,-3.1056,-3.1273,-3.1435,-3.1693,-3.1993,-3.2298,-3.2298,-3.2163,-3.1936,-3.1936,-3.1936,-3.1936,-3.1936,-3.1936,-3.1867,-3.1653,-3.1558,-3.1385,0.0,0.0,0.0,0.0,-3.003,-3.0367,-3.0479,-3.0355,-3.0168,-3.0168,-3.004,-2.9838,-2.9616,-2.9633,-2.9675,-2.9452,-2.9495,-2.956,-2.956,-2.9702,-2.9792,-2.9792,-2.9792,-2.9792,-2.9792,-2.9792,-2.9792,-2.9792,-2.9792,0.0,-2.9792,-2.9515,-2.9289,-2.9289,-2.9013,-2.8812,-2.8812,-2.845,-2.8039,-2.7702,-2.6492,-2.5252,-2.4052,-2.2414,0.0,0.0,0.0,-1.7995,-1.745,-1.744,0.0,0.0,0.0,0.0,0.0,-1.6869,0.0,0.0,-1.4842,-1.5749,0.0,0.0,0.0,0.0,0.0,0.0,0.0,0.0,0.0,0.0,0.0,0.0,0.0,0.0,0.0,0.0,-2.4485,-2.6333,-2.7231,-2.6377,-2.5732,-2.5864,-2.7314,-2.8359,-2.8484,-2.9246,-2.982,-2.9947,-3.0522,-3.0932,-3.1177,-3.1668,0.0,0.0,0.0,-3.2765,-3.2765,-3.3237,-3.348,-3.348,-3.348,-3.348,-3.348,-3.348,-3.348,-3.348,-3.348,-3.348,-3.3431,-3.2959,-3.2765,-3.2614,-3.1496,-3.1181,-3.1468,-3.138,-3.1331,-3.1311,-3.1311,0.0,0.0,-3.1486,-3.1436,-3.1298,-3.0834,-3.0708,-3.0608,-3.0105,-2.9967,-2.9967,-2.9905,-2.988,-2.9867,-2.9804,-2.9792,-2.9792,-2.9792,-2.9792,-2.9792,-2.9792,-2.9792,-2.9792,-2.9792,-2.9792,-2.9792,-2.9792,-2.9792,-2.9792,-2.9792,-2.9238,-2.8697,-2.8418,-2.7244,0.0,-2.499,-2.3667,-2.2153,-2.0511,-1.9729,-1.9036,-1.8476,-1.8759,-1.894,-1.9,-1.8928,-1.897,-1.9097,-1.9971,-2.0506,-2.0682,-1.9123,-1.9141,0.0,0.0,0.0,0.0,0.0,0.0,0.0,0.0,0.0,0.0,0.0,0.0,0.0,0.0,0.0,-2.5006,-2.6429,-2.7693,-2.873,-2.8781,-2.8619,-2.8357,-2.9326,-2.9959,-2.9768,-3.0622,-3.1162,-3.1022,-3.181,-3.2487,-3.2963,-3.3319,-3.3669,-3.4118,-3.423,-3.428,-3.428,-3.4392,-3.4441,-3.4441,-3.4441,0.0,-3.4441,-3.4441,-3.4441,-3.4441,-3.4441,-3.4441,-3.4429,-3.4329,-3.428,-3.409,-3.2455,-3.2033,-3.2438,-3.2414,-3.2543,-3.2712,-3.2712,-3.2398,-3.2051,-3.2051,-3.175,-3.1373,-3.1273,-3.1248,0.0,-3.111,-3.1085,-3.0984,-3.057,-3.0457,-3.0344,-2.9892,-2.9792,-2.9792,-2.9792,-2.9792,-2.9792,-2.9792,-2.9792,-2.9792,-2.9792,-2.9792,-2.9792,-2.9792,-2.9792,-2.9792,-2.9792,-2.9704,-2.9423,-2.8971,-2.8055,-2.7153,-2.6219,-2.4397,-2.3018,-2.233,-2.1257,-2.0809,-2.1208,-2.098,-2.1024,-2.1407,-2.1753,-2.2056,-2.2217,-2.2954,-2.3304,-2.3312,-2.2048,-2.1952,0.0,0.0,0.0,0.0,0.0,0.0,0.0,0.0,0.0,0.0,0.0,-2.1102,-2.272,0.0,-2.5739,-2.7387,-2.8412,-2.9322,-3.0241,-3.0598,-3.0518,-2.9837,-3.0619,-3.1159,-3.1008,-3.1821,-3.2437,-3.2581,-3.3028,-3.3545,-3.4095,-3.4222,-3.4437,-3.4668,-3.4944,-3.5094,-3.5094,-3.5403,-3.5542,-3.5542,-3.5542,-3.5542,-3.5542,-3.5542,-3.5542,-3.5542,-3.5542,-3.5542,-3.5529,-3.524,-3.4919,-3.4618,-3.3697,-3.3313,-3.3271,-3.2996,-3.2982,-3.3124,-3.3124,-3.288,-3.2641,-3.2641,-3.2453,-3.2177,-3.1888,-3.18,-3.1738,-3.1461,-3.1386,-3.1336,-3.1072,-3.0997,-3.0934,-3.0658,-3.0394,-3.0206,-3.0206,-2.9993,-2.9792,-2.9792,-2.9792,-2.9792,-2.9792,-2.9792,-2.9792,-2.9792,-2.9792,-2.9792,-2.9792,-2.9792,-2.9663,-2.9275,-2.8768,-2.811,-2.7199,-2.5289,-2.4022,-2.3804,-2.2868,-2.2438,-2.2803,-2.2784,-2.2879,-2.3103,-2.3498,-2.3741,-2.3862,-2.4826,-2.5289,-2.5289,-2.5243,-2.5094,0.0,0.0,0.0,0.0,0.0,0.0,0.0,-1.9242,-2.084,-2.1834,-2.3221,-2.4567,-2.5601,-2.6698,-2.7895,-2.9197,-3.0025,-3.0773,-3.1474,-3.173,-3.1653,-3.0984,-3.1538,-3.2022,-3.2065,-3.2734,-3.3376,-3.3859,-3.3997,-3.4299,-3.4806,-3.4876,-3.4926,-3.5039,-3.5466,-3.5658,-3.5658,-3.6144,-3.6405,-3.6405,-3.6405,-3.6405,-3.6405,-3.6405,-3.6405,-3.6405,-3.6405,-3.6405,-3.6367,-3.5893,-3.5395,-3.5027,-3.4881,-3.4613,-3.4161,-3.3608,-3.3395,-3.3382,-3.3269,-3.3275,-3.3262,-3.3106,-3.3124,-3.2993,-3.2516,-3.2378,-3.229,-3.1838,-3.1712,-3.1687,-3.1587,-3.1549,-3.1524,-3.1411,-3.1072,-3.0771,-3.0771,-3.0331,-2.9955,-2.9955,-2.9867,-2.9792,-2.9792,-2.9792,-2.9792,-2.9792,-2.9792,-2.9792,-2.9792,-2.9792,-2.9702,-2.9419,-2.9236,-2.8792,-2.7908,-2.6317,-2.5336,-2.5277,-2.468,-2.4362,-2.4418,-2.4688,-2.4835,-2.4869,-2.5128,-2.5274,-2.5274,-2.6317,-2.6813,-2.6839,-2.7695,-2.7548,-0.9145,-1.1383,-1.3939,-1.5713,-1.7473,-1.9337,0.0,-2.2307,-2.3313,-2.5088,-2.5841,-2.6493,-2.7575,-2.8553,-2.9429,-3.0077,-3.0785,-3.1446,-3.2039,-3.198,-3.2065,-3.2401,-3.2383,-3.242,-3.2581,-3.3121,-3.3601,-3.3897,-3.4349,-3.4818,-3.537,-3.5408,-3.568,-3.6204,-3.6279,-3.6317,-3.6317,-3.638,-3.6405,-3.6405,-3.6405,-3.6405,-3.6405,-3.6405,-3.6405,-3.6405,-3.6405,-3.6405,-3.6405,-3.6342,-3.6279,-3.6179,-3.5596,-3.537,-3.5257,-3.4738,-3.4537,-3.4462,-3.3972,-3.3809,-3.3721,-3.3232,-3.3124,-3.3111,-3.3006,-3.298,-3.3011,-3.2948,-3.2893,-3.2767,-3.2252,-3.2127,-3.2001,-3.1499,-3.1348,-3.1298,-3.1298,-3.0896,-3.052,-3.052,-3.0131,-2.9792,-2.9792,-2.9792,-2.9792,-2.9792,-2.9792,-2.9792,-2.9792,-2.9792,-2.9702,-2.9419,-2.938,-2.9014,-2.8151,-2.7639,-2.725,-2.704,-2.6943,-2.7017,-2.7309,-2.7382,-2.7467,-2.7661,-2.7709,-2.7709,-2.7709,-2.7858,-2.7921,-2.7921,-2.8047,-2.7998,-1.2726,-1.4699,-1.6883,-1.8731,-2.073,-2.2589,-2.4107,-2.5266,-2.636,-2.736,-2.7889,-2.8458,-2.9378,-2.987,-3.0426,-3.1276,-3.1671,-3.2064,-3.2641,-3.2431,-3.2259,-3.2481,-3.2201,-3.2201,-3.2624,-3.3164,-3.3756,-3.4304,-3.4843,-3.5395,-3.5994,-3.6019,-3.6119,-3.6405,-3.6405,-3.6405,-3.6405,-3.6405,-3.6405,-3.6405,-3.6405,-3.6405,-3.6405,-3.6405,-3.6405,-3.6405,-3.6405,-3.6405,-3.6405,-3.6405,-3.6405,-3.638,-3.6107,-3.6019,-3.5918,-3.5052,-3.468,-3.4688,-3.4462,-3.4374,-3.4286,-3.3734,-3.3558,-3.3495,-3.3169,-3.3124,-3.3124,-3.3124,-3.3124,-3.3018,-3.278,-3.2717,-3.2654,-3.2428,-3.2114,-3.1863,-3.1863,-3.1449,-3.0972,-3.067,-3.0432,-3.0168,-2.9842,-2.9792,-2.9792,-2.9792,-2.9792,-2.9792,-2.9792,-2.9792,-2.9753,-2.965,-2.965,-2.9485,-2.9119,-2.8657,-2.836,-2.8238,-2.7928,-2.7816,-2.7987,-2.7987,-2.8024,-2.8109,-2.8109,-2.8109,-2.8109,-2.8423,-2.8586,-2.8549,-2.8925,-2.9089,-1.5869,-1.7558,-1.9364,-2.1193,-2.3187,-2.5001,-2.6208,-2.7353,-2.8304,-2.8885,-2.9286,-2.9685,-3.0267,-3.0633,-3.1085,-3.1851,-3.224,-3.2604,-3.3061,-3.2736,-3.2475,-3.2475,-3.2113,-3.2113,-3.2624,-3.312,-3.3767,-3.4643,-3.5194,-3.578,-3.638,-3.6405,-3.6405,-3.6405,-3.6405,-3.648,-3.6631,-3.6631,-3.6707,-3.6857,-3.6857,-3.6857,-3.6857,-3.6707,-3.6631,-3.6631,-3.6468,-3.6405,-3.6405,-3.6405,-3.6405,-3.6405,-3.6405,-3.6405,-3.6317,-3.5466,-3.5177,-3.5152,-3.5002,-3.4906,-3.4818,-3.4311,-3.4123,-3.4022,-3.347,-3.3307,-3.3269,-3.3162,-3.3124,-3.3124,-3.3124,-3.3124,-3.3124,-3.3124,-3.2754,-3.2453,-3.2453,-3.2014,-3.1512,-3.1135,-3.0934,-3.0658,-3.0118,-3.0018,-2.9967,-2.9817,-2.9792,-2.9792,-2.9792,-2.9792,-2.9792,-2.9792,-2.9792,-2.9792,-2.9792,-2.9402,-2.9126,-2.9126,-2.8787,-2.8574,-2.8574,-2.8574,-2.8574,-2.8574,-2.8574,-2.8574,-2.8574,-2.8976,-2.9126,-2.9176,-2.9591,-2.9792,-1.8034,-1.9854,-2.1786,-2.3036,-2.4487,-2.6066,-2.7601,-2.8104,-2.8556,-2.9576,-2.9779,-2.9792,-2.9817,-3.067,-3.1386,-3.1411,-3.2328,-3.3056,-3.3124,-3.2853,-3.2667,-3.2667,-3.2519,-3.2475,-3.268,-3.3,-3.3645,-3.463,-3.5194,-3.578,-3.638,-3.6405,-3.6405,-3.6405,-3.6405,-3.6669,-3.7149,-3.7161,-3.7425,-3.7952,-3.7952,-3.7952,-3.7939,-3.74,-3.7161,-3.7123,-3.6644,-3.6405,-3.6405,-3.6405,-3.6405,-3.6405,-3.6405,-3.6405,-3.6405,-3.6367,-3.6355,-3.6279,-3.5658,-3.547,-3.5382,-3.4831,-3.47,-3.46,-3.4035,-3.3872,-3.3759,-3.3275,-3.3124,-3.3124,-3.3124,-3.3124,-3.3124,-3.3124,-3.3111,-3.3056,-3.3056,-3.2591,-3.2177,-3.2164,-3.1738,-3.1198,-3.0683,-3.0595,-3.0407,-2.988,-2.9792,-2.9792,-2.9792,-2.9792,-2.9792,-2.9792,-2.9792,-2.9792,-2.9792,-2.9779,-2.9767,-2.9767,-2.9754,-2.9741,-2.9741,-2.9741,-2.9741,-2.9741,-2.9741,-2.9741,-2.9741,-2.9754,-2.9767,-2.9767,-2.9779,-2.9792,-2.0252,-2.1348,-2.2414,-2.4152,-2.5492,-2.6694,-2.8023,-2.8587,-2.8948,-2.9445,-2.9443,-2.9462,-2.9873,-3.0353,-3.0895,-3.1631,-3.2181,-3.2641,-3.3018,-3.2853,-3.2711,-3.2711,-3.2519,-3.2475,-3.268,-3.3132,-3.3767,-3.463,-3.5194,-3.578,-3.638,-3.6405,-3.6405,-3.6405,-3.6769,-3.6998,-3.7186,-3.755,-3.7826,-3.8002,-3.8002,-3.8002,-3.8002,-3.7814,-3.7726,-3.7701,-3.7149,-3.6958,-3.6872,-3.6556,-3.6405,-3.6405,-3.6405,-3.6405,-3.6405,-3.6405,-3.6405,-3.638,-3.6157,-3.6094,-3.5994,-3.5408,-3.5219,-3.5119,-3.4568,-3.4186,-3.3859,-3.3671,-3.3357,-3.3124,-3.3124,-3.3124,-3.3124,-3.3124,-3.3124,-3.3124,-3.3124,-3.2918,-3.2667,-3.229,-3.2064,-3.1763,-3.1223,-3.1135,-3.0947,-3.0419,-3.003,-2.9792,-2.9792,-2.9792,-2.9792,-2.9792,-2.9792,-2.9792,-2.9792,-2.9792,-2.9792,-2.9792,-2.9792,-2.9792,-2.9792,-2.9792,-2.9792,-2.9792,-2.9792,-2.9792,-2.9792,-2.9792,-2.9792,-2.9792,-2.9792,-2.9792,-2.2099,-2.297,-2.3766,-2.5311,-2.6274,-2.7157,-2.8167,-2.8591,-2.8755,-2.8692,-2.8629,-2.869,-2.8873,-2.9441,-3.0223,-3.117,-3.2014,-3.2717,-3.3282,-3.3402,-3.3395,-3.3395,-3.3307,-3.3275,-3.3395,-3.3707,-3.4157,-3.4655,-3.5194,-3.5868,-3.6656,-3.6707,-3.6795,-3.6996,-3.7299,-3.7575,-3.7838,-3.814,-3.8417,-3.8605,-3.8605,-3.8605,-3.8605,-3.8404,-3.8316,-3.8278,-3.7726,-3.7475,-3.7437,-3.6933,-3.6707,-3.6681,-3.648,-3.6405,-3.6405,-3.6405,-3.6405,-3.6405,-3.6405,-3.6405,-3.6355,-3.5956,-3.583,-3.573,-3.5132,-3.4731,-3.4449,-3.4248,-3.3796,-3.337,-3.337,-3.3219,-3.3124,-3.3124,-3.3124,-3.3124,-3.3124,-3.3124,-3.3011,-3.2591,-3.2516,-3.234,-3.1775,-3.1524,-3.1223,-3.0696,-3.0319,-3.0018,-2.9817,-2.9792,-2.9792,-2.9792,-2.9792,-2.9792,-2.9792,-2.9792,-2.9792,-2.9792,-2.9792,-2.9792,-2.9792,-2.9792,-2.9792,-2.9792,-2.9792,-2.9792,-2.9792,-2.9792,-2.9792,-2.9792,-2.9792,-2.9792,-2.3688,-2.4704,-2.5773,-2.6464,-2.6906,-2.7352,-2.8004,-2.8093,-2.7925,-2.7382,-2.743,-2.7402,-2.6935,-2.8065,-2.931,-3.0087,-3.1776,-3.3169,-3.3809,-3.4349,-3.4688,-3.468,-3.468,-3.468,-3.468,-3.4731,-3.4813,-3.4813,-3.5245,-3.6009,-3.7123,-3.7211,-3.7462,-3.799,-3.804,-3.8316,-3.8906,-3.8944,-3.9182,-3.9697,-3.9697,-3.9697,-3.9672,-3.9145,-3.8957,-3.8932,-3.8304,-3.8052,-3.8002,-3.745,-3.7224,-3.7174,-3.6669,-3.6455,-3.6455,-3.6417,-3.6405,-3.6405,-3.6405,-3.6405,-3.6405,-3.6405,-3.6405,-3.6304,-3.5696,-3.552,-3.5395,-3.4868,-3.4361,-3.3935,-3.3935,-3.3533,-3.3162,-3.3162,-3.3136,-3.3124,-3.3124,-3.3124,-3.3124,-3.3124,-3.3124,-3.2905,-3.2353,-3.18,-3.1273,-3.0771,-3.067,-3.0444,-2.9867,-2.9792,-2.9792,-2.9792,-2.9792,-2.9792,-2.9792,-2.9792,-2.9792,-2.9792,-2.9792,-2.9792,-2.9792,-2.9792,-2.9792,-2.9792,-2.9792,-2.9792,-2.9792,-2.9792,-2.9792,-2.9792,-2.9792,-2.9792,-2.6126,-2.6453,-2.6721,-2.7108,-2.7084,-2.7008,-2.7194,-2.6972,-2.6512,-2.5841,-2.5556,-2.5356,-2.5065,-2.6078,-2.7479,-2.9079,-3.0403,-3.1863,-3.3646,-3.4022,-3.4261,-3.4675,-3.468,-3.468,-3.468,-3.5466,-3.5943,-3.5943,-3.6069,-3.6458,-3.7149,-3.7575,-3.7864,-3.8002,-3.8429,-3.8718,-3.8919,-3.9283,-3.9546,-3.9697,-3.9697,-3.9697,-3.9685,-3.9546,-3.9484,-3.9459,-3.8894,-3.8655,-3.8605,-3.8027,-3.7801,-3.7739,-3.7199,-3.6973,-3.6971,-3.6556,-3.6405,-3.6405,-3.6405,-3.6405,-3.6405,-3.6405,-3.6405,-3.638,-3.6194,-3.5868,-3.547,-3.532,-3.4893,-3.4512,-3.4512,-3.411,-3.3696,-3.3696,-3.337,-3.3124,-3.3124,-3.3124,-3.3124,-3.3124,-3.3124,-3.3031,-3.288,-3.2378,-3.1951,-3.1825,-3.1449,-3.0859,-2.9917,-2.9792,-2.9792,-2.9792,-2.9792,-2.9792,-2.9792,-2.9792,-2.9792,-2.9792,-2.9792,-2.9792,-2.9792,-2.9792,-2.9792,-2.9792,-2.9792,-2.9792,-2.9792,-2.9792,-2.9792,-2.9792,-2.9792,-2.9792,-2.7801,-2.792,-2.7941,-2.7988,-2.7381,-2.6664,-2.6176,-2.5378,-2.4468,-2.3438,-2.3095,-2.2992,-2.2945,-2.4178,-2.5877,-2.7919,-2.9685,-3.1526,-3.3621,-3.4324,-3.4826,-3.5378,-3.5655,-3.5805,-3.5805,-3.6584,-3.7086,-3.7086,-3.7086,-3.7324,-3.7938,-3.8216,-3.8492,-3.8743,-3.9057,-3.9233,-3.9233,-3.9534,-3.9697,-3.9697,-3.9697,-3.9697,-3.9697,-3.9697,-3.9697,-3.9672,-3.9371,-3.9233,-3.9195,-3.8617,-3.8379,-3.8329,-3.7764,-3.74,-3.7149,-3.6835,-3.6619,-3.6405,-3.6405,-3.6405,-3.6405,-3.6405,-3.6405,-3.6405,-3.6405,-3.6144,-3.5893,-3.5893,-3.5504,-3.5044,-3.5044,-3.4675,-3.4261,-3.4261,-3.3847,-3.3432,-3.3432,-3.3257,-3.3124,-3.3124,-3.3124,-3.3124,-3.3124,-3.2805,-3.2503,-3.2252,-3.1951,-3.1449,-3.0595,-3.0294,-3.0068,-2.9817,-2.9792,-2.9792,-2.9792,-2.9792,-2.9792,-2.9792,-2.9792,-2.9792,-2.9792,-2.9792,-2.9792,-2.9792,-2.9792,-2.9792,-2.9792,-2.9792,-2.9792,-2.9792,-2.9792,-2.9792,-2.9075,-2.9223,-2.9283,-2.897,-2.7711,-2.6279,-2.5131,-2.3697,-2.2235,-2.0829,-2.0518,-2.0532,-2.0687,-2.2251,-2.4248,-2.653,-2.9047,-3.1398,-3.3389,-3.4655,-3.5667,-3.6329,-3.6895,-3.7211,-3.7287,-3.7801,-3.8115,-3.8115,-3.8191,-3.8417,-3.8894,-3.8994,-3.9195,-3.9685,-3.9697,-3.9697,-3.9697,-3.9697,-3.9697,-3.9697,-3.9697,-3.9697,-3.9697,-3.9697,-3.9697,-3.9697,-3.9697,-3.9697,-3.9647,-3.9182,-3.9032,-3.8931,-3.8341,-3.7826,-3.7387,-3.7249,-3.6933,-3.6505,-3.643,-3.6405,-3.6405,-3.6405,-3.6405,-3.6405,-3.6405,-3.6405,-3.6405,-3.6405,-3.6019,-3.5608,-3.5608,-3.5194,-3.4826,-3.4826,-3.4412,-3.401,-3.401,-3.3571,-3.3212,-3.3093,-3.3124,-3.3124,-3.3124,-3.3124,-3.2905,-3.2403,-3.2328,-3.2127,-3.1574,-3.1047,-3.0532,-3.0055,-2.9942,-2.9905,-2.9905,-2.9829,-2.9792,-2.9792,-2.9792,-2.9792,-2.9792,-2.9792,-2.9792,-2.9792,-2.9792,-2.9792,-2.9792,-2.9792,-2.9792,-2.9792,-2.9792,-2.9792,-3.0375,-3.0496,-3.039,-2.9561,-2.7876,-2.6032,-2.4435,-2.2636,-2.0741,-1.9008,-1.8769,-1.8712,-1.8309,-2.0013,-2.2217,-2.4386,-2.7053,-2.966,-3.2005,-3.3784,-3.524,-3.6292,-3.6895,-3.7362,-3.7814,-3.8379,-3.8718,-3.8718,-3.9145,-3.9245,-3.8944,-3.9308,-3.9597,-3.9697,-3.9697,-3.9697,-3.9697,-3.9697,-3.9697,-3.9697,-3.9697,-3.9697,-3.9697,-3.9697,-3.9697,-3.9697,-3.9697,-3.9697,-3.9685,-3.9584,-3.9546,-3.9496,-3.8944,-3.8668,-3.8467,-3.7525,-3.7123,-3.6973,-3.6568,-3.6405,-3.6405,-3.6405,-3.6405,-3.6405,-3.6405,-3.6405,-3.6405,-3.6405,-3.6329,-3.6267,-3.6267,-3.5818,-3.5357,-3.5357,-3.4931,-3.4575,-3.4575,-3.4148,-3.3621,-3.3212,-3.3124,-3.3124,-3.3124,-3.3124,-3.3043,-3.2943,-3.293,-3.2717,-3.2139,-3.1587,-3.1223,-3.1122,-3.0733,-3.047,-3.047,-3.0055,-2.9792,-2.9792,-2.9792,-2.9792,-2.9792,-2.9792,-2.9792,-2.9792,-2.9792,-2.9792,-2.9792,-2.9792,-2.9792,-2.9792,-2.9792,-2.9792,-3.0545,-3.0812,-3.0761,-2.9295,-2.7485,-2.5407,-2.2952,-2.0746,-1.8778,-1.7079,-1.6527,-1.6458,-1.6935,-1.8537,-2.0624,-2.3127,-2.5817,-2.8446,-3.1034,-3.2972,-3.471,-3.6194,-3.7098,-3.7826,-3.8404,-3.8969,-3.9295,-3.9295,-3.9546,-3.9584,-3.932,-3.9546,-3.9697,-3.9697,-3.9697,-3.9697,-3.9697,-3.9697,-3.9697,-3.9697,-3.9697,-3.9697,-3.9697,-3.9697,-3.9697,-3.9697,-3.9697,-3.9697,-3.9697,-3.9697,-3.9697,-3.9672,-3.9408,-3.9132,-3.8856,-3.8316,-3.7688,-3.7149,-3.6933,-3.6644,-3.6405,-3.6405,-3.6405,-3.6405,-3.6405,-3.6405,-3.6405,-3.6405,-3.6405,-3.6405,-3.6405,-3.6169,-3.5968,-3.5968,-3.5554,-3.5019,-3.4743,-3.4512,-3.4161,-3.3608,-3.3508,-3.342,-3.3174,-3.3124,-3.3124,-3.3124,-3.3124,-3.3023,-3.2704,-3.2428,-3.2039,-3.1449,-3.1173,-3.1022,-3.1022,-3.0771,-3.0507,-3.0231,-3.0218,-3.0093,-2.9804,-2.9792,-2.9792,-2.9792,-2.9792,-2.993,-3.0218,-3.0218,-3.0357,-3.062,-3.062,-3.062,-3.0276,-3.0613,-3.0496,-2.8809,-2.6912,-2.4639,-2.1659,-1.9277,-1.7197,-1.5596,-1.4826,-1.4743,-1.5873,-1.7294,-1.9124,-2.176,-2.4437,-2.7091,-2.9637,-3.2005,-3.4132,-3.5994,-3.7262,-3.8278,-3.8981,-3.9433,-3.9697,-3.9697,-3.9697,-3.9697,-3.9697,-3.9697,-3.9697,-3.9697,-3.9697,-3.9697,-3.9697,-3.9697,-3.9697,-3.9697,-3.9697,-3.9697,-3.9697,-3.9697,-3.9697,-3.9697,-3.9697,-3.9697,-3.9697,-3.9697,-3.9697,-3.9697,-3.9697,-3.9433,-3.9032,-3.8957,-3.8304,-3.7525,-3.74,-3.6998,-3.6581,-3.6581,-3.6505,-3.6405,-3.6405,-3.6405,-3.6405,-3.6405,-3.6405,-3.6405,-3.6405,-3.6405,-3.6405,-3.6405,-3.6031,-3.552,-3.4969,-3.4856,-3.4693,-3.4186,-3.4073,-3.3897,-3.3345,-3.3257,-3.3219,-3.3136,-3.3124,-3.3124,-3.3124,-3.3124,-3.2742,-3.1851,-3.1637,-3.1562,-3.1562,-3.1461,-3.1223,-3.0809,-3.0783,-3.0583,-3.0156,-3.0131,-3.0131,-3.0131,-3.0131,-3.0344,-3.0783,-3.0783,-3.0997,-3.1386,-3.1386,-3.1386,-2.9821,-2.9862,-2.9386,-2.8582,-2.6403,-2.3838,-2.1511,-1.9138,-1.6936,-1.5224,-1.4619,-1.4473,-1.472,-1.5929,-1.7538,-1.9478,-2.2294,-2.4993,-2.7122,-3.0593,-3.3526,-3.5382,-3.7036,-3.8429,-3.9509,-3.9659,-3.9697,-3.9697,-3.9697,-3.9697,-3.9697,-3.9697,-3.9697,-3.9697,-3.9697,-3.9697,-3.9697,-3.9697,-3.9697,-3.9697,-3.9697,-3.9697,-3.9697,-3.9697,-3.9697,-3.9697,-3.9697,-3.9697,-3.9697,-3.9697,-3.9697,-3.9697,-3.9697,-3.9659,-3.9559,-3.9108,-3.8856,-3.8693,-3.8115,-3.7575,-3.7111,-3.7111,-3.682,-3.6405,-3.6405,-3.6405,-3.6405,-3.6405,-3.6405,-3.6405,-3.6405,-3.6405,-3.6405,-3.6405,-3.6367,-3.6132,-3.5545,-3.542,-3.5257,-3.4705,-3.465,-3.4474,-3.3922,-3.3822,-3.3658,-3.3156,-3.3124,-3.3124,-3.3124,-3.3124,-3.3074,-3.293,-3.2453,-3.2139,-3.2139,-3.1675,-3.1373,-3.1323,-3.1323,-3.1298,-3.1248,-3.1248,-3.1248,-3.1248,-3.1248,-3.1273,-3.1323,-3.1323,-3.1348,-3.1386,-3.1386,-3.1386,-2.8187,-2.8579,-2.8534,-2.741,-2.5603,-2.3429,-2.0778,-1.8522,-1.6494,-1.4756,-1.391,-1.3698,-1.4344,-1.5233,-1.6553,-1.872,-2.1208,-2.3733,-2.62,-2.9359,-3.2278,-3.4574,-3.616,-3.7588,-3.9057,-3.9195,-3.9333,-3.9672,-3.9697,-3.9697,-3.9697,-3.9697,-3.9697,-3.9697,-3.9697,-3.9697,-3.9697,-3.9697,-3.9697,-3.9697,-3.9697,-3.9697,-3.9697,-3.9697,-3.9697,-3.9697,-3.9697,-3.9697,-3.9697,-3.9697,-3.9697,-3.9697,-3.9697,-3.9697,-3.9672,-3.9446,-3.9157,-3.8894,-3.8605,-3.8153,-3.7626,-3.7287,-3.7036,-3.6845,-3.6505,-3.6405,-3.6405,-3.6405,-3.6405,-3.6405,-3.6405,-3.6405,-3.6405,-3.6405,-3.6405,-3.6342,-3.6081,-3.6031,-3.5881,-3.527,-3.5169,-3.4994,-3.4487,-3.4399,-3.4324,-3.4098,-3.3784,-3.3571,-3.3571,-3.3282,-3.3124,-3.3124,-3.2867,-3.2729,-3.2729,-3.2528,-3.2252,-3.1901,-3.1888,-3.1738,-3.1399,-3.1386,-3.1386,-3.1386,-3.1386,-3.1549,-3.1888,-3.1888,-3.2064,-3.2403,-3.2403,-3.2403,-2.6251,-2.6813,-2.6908,-2.5957,-2.4461,-2.2539,-1.9999,-1.7931,-1.6044,-1.4436,-1.3539,-1.3341,-1.4156,-1.4802,-1.5916,-1.8082,-2.0128,-2.2465,-2.5259,-2.8247,-3.1155,-3.3829,-3.5499,-3.7071,-3.8756,-3.9019,-3.927,-3.9659,-3.9697,-3.9697,-3.9697,-3.9697,-3.9697,-3.9697,-3.9697,-3.9697,-3.9697,-3.9697,-3.9697,-3.9697,-3.9697,-3.9697,-3.9697,-3.9697,-3.9697,-3.9697,-3.9697,-3.9697,-3.9697,-3.9697,-3.9697,-3.9697,-3.9697,-3.9697,-3.9697,-3.9697,-3.9446,-3.912,-3.912,-3.8743,-3.8203,-3.7814,-3.745,-3.7111,-3.6769,-3.6543,-3.6405,-3.6405,-3.6405,-3.6405,-3.6405,-3.6405,-3.6405,-3.6405,-3.6405,-3.6405,-3.6405,-3.6405,-3.6292,-3.5868,-3.5793,-3.5617,-3.5019,-3.4919,-3.4868,-3.4705,-3.4399,-3.4148,-3.4148,-3.3658,-3.3319,-3.3319,-3.3169,-3.3124,-3.3124,-3.3124,-3.2905,-3.2491,-3.2466,-3.229,-3.1901,-3.1888,-3.1888,-3.1888,-3.1888,-3.2077,-3.2466,-3.2466,-3.2679,-3.3124,-3.3124,-3.3111,-2.4166,-2.4454,-2.4266,-2.429,-2.2792,-2.0939,-1.9348,-1.751,-1.5733,-1.4377,-1.3773,-1.3633,-1.4026,-1.4611,-1.5558,-1.7226,-1.8935,-2.1041,-2.4009,-2.7287,-3.0467,-3.327,-3.5261,-3.7071,-3.8756,-3.9371,-3.9685,-3.9697,-3.9697,-3.9697,-3.9697,-3.9697,-3.9697,-3.9697,-3.9697,-3.9697,-3.9697,-3.9697,-3.9697,-3.9697,-3.9697,-3.9697,-3.9697,-3.9697,-3.9697,-3.9697,-3.9697,-3.9697,-3.9697,-3.9697,-3.9697,-3.9697,-3.9697,-3.9697,-3.9697,-3.9697,-3.9697,-3.9685,-3.9685,-3.932,-3.8906,-3.8906,-3.809,-3.7186,-3.7174,-3.6845,-3.6405,-3.6405,-3.6405,-3.6405,-3.6405,-3.6405,-3.6405,-3.6405,-3.6405,-3.6405,-3.6405,-3.6405,-3.6405,-3.6405,-3.6405,-3.6182,-3.5583,-3.5495,-3.5307,-3.4756,-3.4713,-3.4668,-3.4668,-3.4223,-3.3884,-3.3884,-3.3407,-3.3124,-3.3124,-3.3124,-3.3124,-3.3111,-3.3111,-3.3111,-3.3056,-3.3056,-3.3056,-3.3056,-3.3056,-3.3111,-3.3111,-3.3111,-3.3111,-3.3124,-3.3124,-3.3197,-2.1596,-2.2124,-2.2418,-2.229,-2.1197,-1.9826,-1.8611,-1.6929,-1.5332,-1.4309,-1.3773,-1.3607,-1.4026,-1.452,-1.5358,-1.6918,-1.8561,-2.0571,-2.3218,-2.6504,-2.9644,-3.2276,-3.5513,-3.7701,-3.8228,-3.9132,-3.9697,-3.9697,-3.9697,-3.9697,-3.9697,-3.9697,-3.9697,-3.9697,-3.9697,-3.9697,-3.9697,-3.9697,-3.9697,-3.9697,-3.9697,-3.9697,-3.9697,-3.9697,-3.9697,-3.9697,-3.9697,-3.9697,-3.9697,-3.9697,-3.9697,-3.9697,-3.9697,-3.9697,-3.9697,-3.9697,-3.9697,-3.9697,-3.9697,-3.9584,-3.9371,-3.9045,-3.868,-3.8266,-3.7864,-3.7098,-3.6405,-3.6405,-3.6405,-3.6405,-3.6405,-3.6405,-3.6405,-3.6405,-3.6405,-3.6405,-3.6405,-3.6405,-3.6405,-3.6405,-3.6405,-3.6355,-3.6132,-3.6107,-3.6044,-3.5868,-3.5529,-3.5245,-3.5245,-3.4756,-3.4462,-3.4462,-3.4299,-3.3897,-3.3144,-3.3124,-3.3124,-3.3124,-3.3124,-3.3124,-3.3124,-3.3124,-3.3124,-3.3124,-3.3124,-3.3124,-3.3124,-3.3124,-3.3154,-3.3313,-3.3313,-3.373,-1.8819,-1.9682,-2.0252,-2.0106,-1.9441,-1.8513,-1.7504,-1.6182,-1.4932,-1.4046,-1.3792,-1.3802,-1.4055,-1.4756,-1.5753,-1.7115,-1.8802,-2.0869,-2.3627,-2.6739,-3.0013,-3.333,-3.6457,-3.8329,-3.8329,-3.9157,-3.9697,-3.9697,-3.9697,-3.9697,-3.9697,-3.9697,-3.9697,-3.9697,-3.9697,-3.9697,-3.9697,-3.9697,-3.9697,-3.9697,-3.9697,-3.9697,-3.9697,-3.9697,-3.9697,-3.9697,-3.9697,-3.9697,0.0,-3.9697,-3.9697,-3.9697,-3.9697,-3.9697,-3.9697,-3.9697,-3.9697,-3.9697,-3.9697,-3.9697,-3.9634,-3.9295,-3.9044,-3.8806,-3.8178,-3.7525,-3.6935,-3.6782,-3.6719,-3.6669,-3.6468,-3.6405,-3.6405,-3.6405,-3.6405,-3.6405,-3.6405,-3.6405,-3.6405,-3.6405,-3.6405,-3.6405,-3.6405,-3.6405,-3.6405,-3.6405,-3.6069,-3.5855,-3.5855,-3.5332,-3.4994,-3.4994,-3.4806,-3.4449,-3.3759,-3.3508,-3.3307,-3.3093,-3.3124,-3.3124,-3.3124,-3.3124,-3.3124,-3.3124,-3.3124,-3.3224,-3.3382,-3.3695,-3.4002,-3.4323,-3.4409,-3.4934,0.0,-1.7155,-1.7929,-1.7968,-1.7621,-1.7103,-1.6242,-1.5381,0.0,-1.3721,-1.3831,-1.4124,-1.4192,-1.5283,-1.6541,-1.7765,-1.9514,-2.1763,-2.4857,-2.7941,-3.1528,-3.5887,-3.7901,-3.8919,-3.8919,-3.9371,-3.9697,-3.9697,-3.9697,-3.9697,-3.9697,-3.9697,-3.9697,-3.9697,-3.9697,-3.9697,-3.9697,-3.9697,-3.9697,-3.9697,-3.9697,-3.9697,-3.9697,-3.9697,-3.9697,-3.9697,-3.9697,-3.9697,-3.9697,-3.9697,-3.9697,-3.9697,-3.9697,-3.9697,-3.9697,-3.9697,-3.9697,-3.9697,-3.9697,-3.9697,-3.9697,-3.9697,-3.9346,-3.8831,-3.8291,-3.8065,-3.7902,-3.7387,-3.7249,-3.7123,-3.6656,-3.6518,-3.6518,-3.648,-3.6468,-3.6455,-3.6417,-3.6405,-3.6405,-3.6405,-3.6405,-3.6405,-3.6405,-3.6405,-3.6405,-3.6405,-3.6452,-3.6452,-3.6405,-3.5918,-3.5558,-3.5558,-3.5107,-3.4781,-3.4776,-3.4274,-3.3746,-3.3275,-3.3194,-3.3194,-3.3194,-3.3194,-3.3194,-3.3194,-3.3237,-3.3488,-3.4004,-3.48,-3.5442,-3.5903,-3.6184,-3.6688,-1.323,0.0,-1.6369,-1.6783,-1.6636,-1.6261,0.0,-1.4902,-1.4202,-1.3997,-1.4036,-1.4336,-1.518,-1.6128,-1.7195,-1.8459,-2.0303,-2.2395,-2.4748,-2.9518,-3.3665,-3.6122,-3.7901,-3.8919,-3.8919,-3.9371,-3.9697,-3.9697,-3.9697,-3.9697,-3.9697,-3.9697,-3.9697,-3.9697,-3.9697,-3.9697,-3.9697,-3.9697,-3.9697,-3.9697,-3.9697,-3.9697,-3.9697,-3.9697,-3.9697,-3.9697,-3.9697,-3.9697,-3.9697,-3.9697,-3.9697,-3.9697,-3.9697,-3.9697,-3.9697,-3.9697,-3.9697,-3.9697,-3.9697,-3.9697,-3.9697,-3.9697,-3.9597,-3.9484,-3.9333,-3.8693,-3.7977,-3.7852,-3.7814,-3.7789,-3.7651,-3.7613,-3.7513,-3.7098,-3.6985,-3.692,-3.6505,-3.6405,-3.6405,-3.6405,-3.6405,-3.6405,-3.6405,-3.6534,-3.6628,-3.6628,-3.6815,-3.6875,-3.6675,-3.6514,-3.6344,-3.6216,-3.6103,-3.5805,-3.5345,-3.4806,-3.4474,-3.4349,-3.4336,-3.4336,-3.4336,-3.4336,-3.4336,-3.4336,-3.4527,-3.4813,-3.5149,-3.5662,-3.6284,-3.689,-3.7147,-3.7973,-1.2298,-1.3787,-1.5131,-1.567,-1.5796,-1.5654,-1.5215,-1.4766,-1.4348,-1.4143,-1.4416,-1.496,-1.5851,-1.6976,-1.8276,-1.9993,-2.1889,-2.4382,-2.7997,-3.2123,-3.5352,-3.6937,-3.8379,-3.9245,-3.9245,-3.9521,-3.9697,-3.9697,-3.9697,-3.9697,-3.9697,-3.9697,-3.9697,-3.9697,-3.9697,-3.9697,-3.9697,-3.9697,-3.9697,-3.9697,-3.9697,-3.9697,-3.9697,-3.9697,-3.9697,-3.9697,-3.9697,-3.9697,-3.9697,-3.9697,-3.9697,-3.9697,-3.9697,-3.9697,-3.9697,-3.9697,-3.9697,-3.9697,-3.9697,-3.9697,-3.9697,-3.9697,-3.9697,-3.9697,-3.9697,-3.927,-3.873,-3.8479,-3.8404,-3.8341,-3.8078,-3.8002,-3.7939,-3.7638,-3.7563,-3.7475,-3.7186,-3.7111,-3.7048,-3.6784,-3.6782,-3.6707,-3.6455,-3.6581,-3.6709,-3.6709,-3.6922,-3.7015,-3.6709,-3.6709,-3.6628,-3.6405,-3.6405,-3.6292,-3.5943,-3.5642,-3.5265,-3.4705,-3.468,-3.468,-3.468,-3.468,-3.4771,-3.4861,-3.5384,-3.5917,-3.6395,-3.7074,-3.7853,-3.8632,-3.8974,-3.9733,-1.2275,-1.3422,-1.4373,-1.5057,-1.5418,-1.5518,-1.5166,-1.5029,-1.4873,-1.4475,-1.503,-1.5831,-1.6626,-1.8011,-1.973,-2.1944,-2.4155,-2.7264,-3.2018,-3.4684,-3.662,-3.784,-3.9007,-3.9697,-3.9697,-3.9697,-3.9697,-3.9697,-3.9697,-3.9697,-3.9697,-3.9697,-3.9697,-3.9697,-3.9697,-3.9697,-3.9697,-3.9697,-3.9697,-3.9697,-3.9697,-3.9697,-3.9697,-3.9697,-3.9697,-3.9697,-3.9697,-3.9697,-3.9697,-3.9697,-3.9697,-3.9697,-3.9697,-3.9697,-3.9697,-3.9697,-3.9697,-3.9697,-3.9697,-3.9697,-3.9697,-3.9697,-3.9697,-3.9697,-3.9697,-3.9697,-3.9597,-3.9132,-3.9045,-3.8881,-3.8391,-3.8266,-3.8241,-3.8165,-3.814,-3.8115,-3.8027,-3.8002,-3.7864,-3.74,-3.7312,-3.7161,-3.6732,-3.6833,-3.6984,-3.6908,-3.7143,-3.7211,-3.6875,-3.6815,-3.6769,-3.6593,-3.6546,-3.6499,-3.6546,-3.6546,-3.6096,-3.5176,-3.5022,-3.4977,-3.5009,-3.5009,-3.5158,-3.5442,-3.6205,-3.6936,-3.7697,-3.8666,-3.9648,-4.0517,-4.1001,-4.1548,-1.2139,-1.3357,-1.4544,-1.5923,-1.6408,-1.6482,-1.6414,-1.6143,-1.588,-1.5811,-1.6172,-1.6894,-1.8273,-1.9802,-2.1591,-2.3735,-2.7428,-3.0759,-3.2877,-3.5263,-3.7069,-3.7878,-3.9007,-3.9697,-3.9697,-3.9697,-3.9697,-3.9697,-3.9697,-3.9697,-3.9697,-3.9697,-3.9697,-3.9697,-3.9697,-3.9697,-3.9697,-3.9697,-3.9697,-3.9697,-3.9697,-3.9697,-3.9697,-3.9697,-3.9697,-3.9697,-3.9697,-3.9697,-3.9697,-3.9697,-3.9697,-3.9697,-3.9697,-3.9697,-3.9697,-3.9697,-3.9697,-3.9697,-3.9697,-3.9697,-3.9697,-3.9697,-3.9697,-3.9697,-3.9697,-3.9697,-3.9672,-3.9597,-3.9572,-3.9546,-3.9459,-3.9433,-3.932,-3.8843,-3.8743,-3.8605,-3.8115,-3.8002,-3.799,-3.7902,-3.7889,-3.7852,-3.7764,-3.8142,-3.8316,-3.7795,-3.8157,-3.8163,-3.7464,-3.7366,-3.7366,-3.7307,-3.7121,-3.7062,-3.7307,-3.7108,-3.6998,-3.7075,-3.6493,-3.62,-3.6375,-3.6362,-3.662,-3.7108,-3.7632,-3.8249,-3.9023,-3.994,-4.0802,-4.1521,-4.1951,-4.2404,-1.242,-1.3698,-1.4921,-1.6558,-1.7015,-1.7148,-1.734,-1.7441,-1.7451,-1.7451,-1.7988,-1.8783,-1.9945,-2.1455,-2.3655,-2.7088,-2.9953,-3.2472,-3.4486,-3.6073,-3.7415,-3.8366,-3.9195,-3.9697,-3.9697,-3.9697,-3.9697,-3.9697,-3.9697,-3.9697,-3.9697,-3.9697,-3.9697,-3.9697,-3.9697,-3.9697,-3.9697,-3.9697,-3.9697,-3.9697,-3.9697,-3.9697,-3.9697,-3.9697,-3.9697,-3.9697,-3.9697,-3.9697,-3.9697,-3.9697,-3.9697,-3.9697,-3.9697,-3.9697,-3.9697,-3.9697,-3.9697,-3.9697,-3.9697,-3.9697,-3.9697,-3.9697,-3.9697,-3.9697,-3.9697,-3.9697,-3.9697,-3.9697,-3.9697,-3.9697,-3.9697,-3.9697,-3.9634,-3.9371,-3.932,-3.9245,-3.8981,-3.8919,-3.8831,-3.853,-3.8479,-3.8379,-3.8065,-3.8298,-3.8564,-3.8393,-3.8691,-3.8899,-3.8673,-3.8776,-3.8869,-3.8869,-3.8581,-3.8431,-3.8583,-3.8142,-3.773,-3.7505,-3.7281,-3.7176,-3.7302,-3.7407,-3.7743,-3.8245,-3.8729,-3.9384,-4.0243,-4.0887,-4.1563,-4.224,-4.2566,-4.289,-1.278,-1.4034,-1.5322,-1.7113,-1.7607,-1.7812,-1.834,-1.8779,-1.9085,-1.9192,-1.9894,-2.0741,-2.1436,-2.3255,-2.5975,-2.9906,-3.1853,-3.362,-3.5787,-3.6839,-3.7739,-3.8806,-3.9358,-3.9697,-3.9697,-3.9697,-3.9697,-3.9697,-3.9697,-3.9697,-3.9697,-3.9697,-3.9697,-3.9697,-3.9697,-3.9697,-3.9697,-3.9697,-3.9697,-3.9697,-3.9697,-3.9697,-3.9697,-3.9697,-3.9697,-3.9697,-3.9697,-3.9697,-3.9697,-3.9697,-3.9697,-3.9697,-3.9697,-3.9697,-3.9697,-3.9697,-3.9697,-3.9697,-3.9697,-3.9697,-3.9697,-3.9697,-3.9697,-3.9697,-3.9697,-3.9697,-3.9697,-3.9697,-3.9697,-3.9697,-3.9697,-3.9697,-3.9697,-3.9697,-3.9697,-3.9697,-3.9697,-3.9697,-3.9572,-3.9145,-3.9108,-3.8919,-3.8479,-3.8603,-3.8863,-3.8956,-3.9236,-3.944,-3.9682,-3.9942,-4.0165,-4.0354,-4.0127,-3.9997,-4.0043,-3.969,-3.9239,-3.8747,-3.8227,-3.8037,-3.8128,-3.8368,-3.8729,-3.9295,-3.9692,-4.0374,-4.124,-4.1729,-4.2313,-4.3005,-4.3233,-4.3468,-1.2994,-1.4251,-1.5611,-1.7506,-1.8227,-1.8724,-1.9553,-2.0107,-2.0547,-2.0927,-2.1728,-2.2375,-2.2656,-2.5448,-2.8541,-3.0917,-3.2963,-3.4753,-3.6147,-3.7274,-3.8178,-3.8844,-3.9358,-3.9697,-3.9697,-3.9697,-3.9697,-3.9697,-3.9697,-3.9697,-3.9697,-3.9697,-3.9697,-3.9697,-3.9697,-3.9697,-3.9697,-3.9697,-3.9697,-3.9697,-3.9697,-3.9697,-3.9697,-3.9697,-3.9697,-3.9697,-3.9697,-3.9697,-3.9697,-3.9697,-3.9697,-3.9697,-3.9697,-3.9697,-3.9697,-3.9697,-3.9697,-3.9697,-3.9697,-3.9697,-3.9697,-3.9697,-3.9697,-3.9697,-3.9697,-3.9697,-3.9697,-3.9697,-3.9697,-3.9697,-3.9697,-3.9697,-3.9697,-3.9697,-3.9697,-3.9697,-3.9697,-3.9697,-3.9685,-3.9647,-3.9634,-3.9622,-3.9584,-3.9816,-3.988,-3.9596,-3.978,-3.9943,-3.9986,-4.0205,-4.0603,-4.1333,-4.1397,-4.1462,-4.169,-4.2074,-4.2301,-4.2256,-3.9866,-3.8657,-3.9162,-3.9206,-3.9604,-4.0474,-4.0774,-4.124,-4.1908,-4.2389,-4.3094,-4.389,-4.412,-4.4571,-1.3137,-1.4336,-1.5583,-1.7213,-1.8525,-1.9621,-2.0498,-2.1279,-2.1904,-2.2344,-2.3105,-2.4034,-2.5199,-2.6866,-2.8957,-3.1712,-3.3042,-3.4507,-3.6833,-3.7493,-3.8141,-3.927,-3.9572,-3.9697,-3.9697,-3.9697,-3.9697,-3.9697,-3.9697,-3.9697,-3.9697,-3.9697,-3.9697,-3.9697,-3.9697,-3.9697,-3.9697,-3.9697,-3.9697,-3.9697,-3.9697,-3.9697,-3.9697,-3.9697,-3.9697,-3.9697,-3.9697,-3.9697,-3.9697,-3.9697,-3.9697,-3.9697,-3.9697,-3.9697,-3.9697,-3.9697,-3.9697,-3.9697,-3.9697,-3.9697,-3.9697,-3.9697,-3.9697,-3.9697,-3.9697,-3.9697,-3.9697,-3.9697,-3.9697,-3.9697,-3.9697,-3.9697,-3.9697,-3.9697,-3.9697,-3.9697,-3.9697,-3.9697,-3.9697,-3.9697,-3.9697,-3.9697,-3.9697,-3.9788,-3.9853,-3.988,-4.012,-4.0408,-4.0795,-4.1342,-4.1922,-4.2527,-4.2976,-4.3116,-4.2988,-4.3122,-4.321,-4.321,-4.2125,-4.1381,-4.1178,-4.1351,-4.1426,-4.145,-4.209,-4.2684,-4.3251,-4.3829,-4.4362,-4.4807,-4.4889,-4.5065,-1.3698,-1.4879,-1.6049,-1.7627,-1.9062,-2.042,-2.1531,-2.2457,-2.3281,-2.3857,-2.447,-2.5421,-2.6983,-2.7825,-2.9201,-3.1984,-3.3065,-3.4507,-3.7209,-3.7593,-3.8116,-3.9559,-3.9697,-3.9697,-3.9697,-3.9697,-3.9697,-3.9697,-3.9697,-3.9697,-3.9697,-3.9697,-3.9697,-3.9697,-3.9697,-3.9697,-3.9697,-3.9697,-3.9697,-3.9697,-3.9697,-3.9697,-3.9697,-3.9697,-3.9697,-3.9697,-3.9697,-3.9697,-3.9697,-3.9697,-3.9697,-3.9697,-3.9697,-3.9697,-3.9697,-3.9697,-3.9697,-3.9697,-3.9697,-3.9697,-3.9697,-3.9697,-3.9697,-3.9697,-3.9697,-3.9697,-3.9697,-3.9697,-3.9697,-3.9697,-3.9697,-3.9697,-3.9697,-3.9697,-3.9697,-3.9697,-3.9697,-3.9697,-3.9697,-3.9697,-3.9697,-3.9697,-3.9697,-3.9697,-3.9788,-4.0083,-4.0236,-4.0555,-4.111,-4.1796,-4.2582,-4.3451,-4.4096,-4.4445,-4.4325,-4.4399,-4.4399,-4.4399,-4.4209,-4.3659,-4.274,-4.2855,-4.2852,-4.2823,-4.3414,-4.3956,-4.44,-4.4873,-4.5284,-4.5618,-4.5618,-4.5723,-1.4745,-1.5933,-1.7116,-1.8857,-1.9979,-2.1065,-2.2711,-2.3764,-2.4668,-2.5518,-2.5927,-2.6482,-2.7695,-2.8391,-2.9555,-3.1843,-3.3209,-3.4824,-3.7258,-3.7593,-3.8116,-3.9559,-3.9697,-3.9697,-3.9697,-3.9697,-3.9697,-3.9697,-3.9697,-3.9697,-3.9697,-3.9697,-3.9697,-3.9697,-3.9697,-3.9697,-3.9697,-3.9697,-3.9697,-3.9697,-3.9697,-3.9697,-3.9697,-3.9697,-3.9697,-3.9697,-3.9697,-3.9697,-3.9697,-3.9697,-3.9697,-3.9697,-3.9697,-3.9697,-3.9697,-3.9697,-3.9697,-3.9697,-3.9697,-3.9697,-3.9697,-3.9697,-3.9697,-3.9697,-3.9697,-3.9697,-3.9697,-3.9697,-3.9697,-3.9697,-3.9697,-3.9697,-3.9697,-3.9697,-3.9697,-3.9697,-3.9697,-3.9697,-3.9697,-3.9697,-3.9697,-3.9697,-3.9697,-3.9697,-3.9788,-4.0083,-4.007,-4.0275,-4.0833,-4.1398,-4.2324,-4.3837,-4.4648,-4.5307,-4.5835,-4.609,-4.621,-4.621,-4.5927,-4.5123,-4.3675,-4.3428,-4.3733,-4.4577,-4.4619,-4.4845,-4.5304,-4.5304,-4.5663,-4.6294,-4.6294,-4.6681,-1.4734,-1.6104,-1.7529,-1.8936,-2.0439,-2.1865,-2.3271,-2.4023,-2.4834,-2.6328,-2.6822,-2.7302,-2.8231,-2.9023,-3.0141,-3.2096,-3.3014,-3.4258,-3.6469,-3.7122,-3.7829,-3.8968,-3.9459,-3.9697,-3.9697,-3.9697,-3.9697,-3.9697,-3.9697,-3.9697,-3.9697,-3.9697,-3.9697,-3.9697,-3.9697,-3.9697,-3.9697,-3.9697,-3.9697,-3.9697,-3.9697,-3.9697,-3.9697,-3.9697,-3.9697,-3.9697,-3.9697,-3.9697,-3.9697,-3.9697,-3.9697,-3.9697,-3.9697,-3.9697,-3.9697,-3.9697,-3.9697,-3.9697,-3.9697,-3.9697,-3.9697,-3.9697,-3.9697,-3.9697,-3.9697,-3.9697,-3.9697,-3.9697,-3.9697,-3.9697,-3.9697,-3.9697,-3.9697,-3.9697,-3.9697,-3.9697,-3.9697,-3.9697,-3.9697,-3.9697,-3.9697,-3.9697,-3.9697,-3.9697,-3.9749,-3.9788,-4.0147,-4.0643,-4.1398,-4.1944,-4.2631,-4.36,-4.4555,-4.5353,-4.6046,-4.606,-4.5956,-4.5927,-4.4851,-4.4326,-4.4485,-4.4442,-4.4385,-4.4307,-4.4948,-4.537,-4.5498,-4.6129,-4.6528,-4.6736,-4.6924,-4.7115,-1.5357,-1.6856,-1.8352,-1.9699,-2.123,-2.2812,-2.4453,-2.5146,-2.584,-2.7236,-2.758,-2.7964,-2.8876,-2.9718,-3.0844,-3.2529,-3.3429,-3.4546,-3.6284,-3.6887,-3.7531,-3.8781,-3.917,-3.9459,-3.9672,-3.9697,-3.9697,-3.9697,-3.9697,-3.9697,-3.9697,-3.9697,-3.9697,-3.9697,-3.9697,-3.9697,-3.9697,-3.9697,-3.9697,-3.9697,-3.9697,-3.9697,-3.9697,-3.9697,-3.9697,-3.9697,-3.9697,-3.9697,-3.9697,-3.9697,-3.9697,-3.9697,-3.9697,-3.9697,-3.9697,-3.9697,-3.9697,-3.9697,-3.9697,-3.9697,-3.9697,-3.9697,-3.9697,-3.9697,-3.9697,-3.9697,-3.9697,-3.9697,-3.9697,-3.9697,-3.9697,-3.9697,-3.9697,-3.9697,-3.9697,-3.9697,-3.9697,-3.9697,-3.9697,-3.9697,-3.9697,-3.9697,-3.9697,-3.9697,-3.9697,-3.9697,-4.0147,-4.0795,-4.1597,-4.219,-4.2763,-4.3505,-4.4429,-4.5261,-4.5986,-4.5956,-4.5866,-4.5792,-4.4634,-4.4121,-4.455,-4.4357,-4.4293,-4.4397,-4.5156,-4.5654,-4.583,-4.6564,-4.6916,-4.6916,-4.7164,-4.7309,-1.6252,-1.7913,-1.9407,-2.0848,-2.2272,-2.3822,-2.5967,-2.6738,-2.7256,-2.8115,-2.8295,-2.8528,-2.9608,-3.0551,-3.1638,-3.313,-3.4172,-3.5284,-3.6539,-3.6748,-3.7257,-3.8592,-3.8856,-3.9069,-3.9572,-3.9659,-3.9697,-3.9697,-3.9697,-3.9697,-3.9697,-3.9697,-3.9697,-3.9697,-3.9697,-3.9697,-3.9697,-3.9697,-3.9697,-3.9697,-3.9697,-3.9697,-3.9645,-3.9697,-3.9697,-3.9697,-3.9697,-3.9697,-3.9697,-3.9697,-3.9697,-3.9697,-3.9697,-3.9697,-3.9697,-3.9697,-3.9697,-3.9697,-3.9697,-3.9697,-3.9697,-3.9697,-3.9697,-3.9697,-3.9697,-3.9697,-3.9697,-3.9697,-3.9697,-3.9697,-3.9697,-3.9697,-3.9697,-3.9697,-3.9697,-3.9697,-3.9697,-3.9697,-3.9697,-3.9697,-3.9697,-3.9697,-3.9697,-3.9697,-3.9749,-3.98,-4.0249,-4.0846,-4.1696,-4.2262,-4.2881,-4.36,-4.4397,-4.5138,-4.5792,-4.5866,-4.5866,-4.5792,-4.4847,-4.4223,-4.3974,-4.3471,-4.3681,-4.4652,-4.5155,-4.5685,-4.6121,-4.6609,-4.6829,-4.6887,-4.7164,-4.7309,-1.5787,-1.7759,-1.9678,-2.1103,-2.3062,-2.5049,-2.6543,-2.6953,-2.7256,-2.8115,-2.885,-2.9463,-3.014,-3.1444,-3.2753,-3.3667,-3.4557,-3.5356,-3.6069,-3.6525,-3.697,-3.7513,-3.8378,-3.8969,-3.9032,-3.9433,-3.9697,-3.9697,-3.9697,-3.9697,-3.9697,-3.9697,-3.9697,-3.9697,-3.9697,-3.9697,-3.9697,-3.9697,-3.9697,-3.9697,-3.9697,-3.9581,-3.9374,-3.9581,-3.9697,-3.9697,-3.9697,-3.9697,-3.9697,-3.9697,-3.9697,-3.9697,-3.9697,-3.9697,-3.9697,-3.9697,-3.9697,-3.9697,-3.9697,-3.9697,-3.9697,-3.9697,-3.9697,-3.9697,-3.9697,-3.9697,-3.9697,-3.9697,-3.9697,-3.9697,-3.9697,-3.9697,-3.9697,-3.9697,-3.9697,-3.9697,-3.9697,-3.9697,-3.9697,-3.9697,-3.9697,-3.9697,-3.9697,-3.9697,-3.989,-4.0542,-4.0933,-4.1471,-4.2457,-4.3026,-4.36,-4.4167,-4.4894,-4.5549,-4.6076,-4.5956,-4.5866,-4.5792,-4.4541,-4.3757,-4.3709,-4.3553,-4.379,-4.4429,-4.4783,-4.5184,-4.564,-4.6121,-4.6447,-4.6668,-4.7077,-4.7309,-1.5047,-1.7241,-1.9604,-2.2121,-2.3945,-2.5399,-2.6465,-2.7031,-2.7451,-2.79,-2.8833,-2.9816,-3.0484,-3.1902,-3.3312,-3.4237,-3.5078,-3.5716,-3.6146,-3.6418,-3.6741,-3.7149,-3.7701,-3.8328,-3.8869,-3.9132,-3.9408,-3.9672,-3.9697,-3.9697,-3.9697,-3.9697,-3.9697,-3.9697,-3.9697,-3.9697,-3.9697,-3.9697,-3.9697,-3.9697,-3.9697,-3.953,-3.931,-3.927,-3.9374,-3.953,-3.953,-3.9581,-3.9697,-3.9697,-3.9697,-3.9697,-3.9697,-3.9697,-3.9697,-3.9697,-3.9697,-3.9697,-3.9697,-3.9697,-3.9697,-3.9697,-3.9697,-3.9697,-3.9697,-3.9697,-3.9697,-3.9697,-3.9697,-3.9697,-3.9697,-3.9697,-3.9697,-3.9697,-3.9697,-3.9697,-3.9697,-3.9697,-3.9697,-3.9697,-3.9697,-3.9697,-3.9697,-3.9697,-3.9993,-4.0782,-4.0971,-4.1458,-4.2714,-4.3804,-4.4648,-4.5078,-4.5535,-4.6001,-4.6358,-4.6284,-4.6239,-4.6165,-4.5233,-4.4634,-4.4509,-4.4261,-4.4087,-4.4007,-4.4551,-4.5014,-4.5504,-4.609,-4.6491,-4.6756,-4.7121,-4.7309,-1.4219,-1.6777,-1.9783,-2.314,-2.4557,-2.535,-2.6191,-2.6934,-2.7542,-2.7689,-2.8725,-2.9869,-3.063,-3.2095,-3.356,-3.4628,-3.5476,-3.6098,-3.6358,-3.6405,-3.6581,-3.6985,-3.7123,-3.755,-3.8542,-3.8668,-3.8956,-3.9509,-3.9546,-3.9597,-3.9685,-3.9697,-3.9697,-3.9697,-3.9697,-3.9697,-3.9697,-3.9697,-3.9697,-3.9697,-3.9581,-3.9426,-3.9206,-3.8841,-3.8893,-3.931,-3.931,-3.9426,-3.9697,-3.9697,-3.9697,-3.9697,-3.9697,-3.9697,-3.9697,-3.9697,-3.9697,-3.9697,-3.9697,-3.9697,-3.9697,-3.9697,-3.9697,-3.9697,-3.9697,-3.9697,-3.9697,-3.9697,-3.9697,-3.9697,-3.9697,-3.9697,-3.9697,-3.9697,-3.9697,-3.9697,-3.9697,-3.9697,-3.9697,-3.9697,-3.9697,-3.9697,-3.9697,-3.9697,-3.9993,-4.0732,-4.082,-4.1358,-4.2825,-4.4509,-4.5671,-4.6015,-4.6225,-4.6388,-4.6639,-4.6639,-4.6639,-4.6639,-4.6165,-4.5792,-4.564,-4.5155,-4.4587,-4.3965,-4.4537,-4.506,-4.5549,-4.6239,-4.6668,-4.6916,-4.7164,-4.7309,-1.3405,-1.7103,-2.0917,-2.3051,-2.4343,-2.535,-2.6191,-2.6475,-2.6768,-2.7562,-2.8725,-2.9869,-3.063,-3.2095,-3.356,-3.4628,-3.5476,-3.6098,-3.6358,-3.6405,-3.643,-3.6505,-3.6945,-3.7249,-3.74,-3.7839,-3.8366,-3.8931,-3.9032,-3.9195,-3.9672,-3.9697,-3.9697,-3.9697,-3.9697,-3.9697,-3.9697,-3.9697,-3.9697,-3.9685,-3.9166,-3.8893,-3.8841,-3.8356,-3.8566,-3.931,-3.931,-3.9426,-3.9697,-3.9697,-3.9697,-3.9697,-3.9697,-3.9697,-3.9697,-3.9697,-3.9697,-3.9697,-3.9697,-3.9697,-3.9697,-3.9697,-3.9697,-3.9697,-3.9697,-3.9697,-3.9697,-3.9697,-3.9697,-3.9697,-3.9697,-3.9697,-3.9697,-3.9697,-3.9697,-3.9697,-3.9697,-3.9697,-3.9697,-3.9697,-3.9697,-3.9697,-3.9697,-3.9697,-3.9929,-4.0605,-4.1008,-4.1743,-4.3314,-4.5067,-4.6314,-4.6653,-4.6741,-4.6829,-4.6844,-4.6873,-4.6873,-4.6873,-4.6388,-4.6121,-4.6121,-4.5792,-4.5611,-4.5506,-4.5046,-4.5152,-4.5835,-4.6135,-4.6476,-4.6916,-4.7164,-4.7309,-1.3509,-1.6579,-1.9456,-2.1853,-2.3326,-2.4441,-2.5449,-2.6035,-2.6494,-2.6875,-2.7738,-2.8838,-3.0286,-3.1902,-3.3262,-3.4188,-3.503,-3.5716,-3.6146,-3.6193,-3.6228,-3.6358,-3.6619,-3.6895,-3.7149,-3.74,-3.7776,-3.8341,-3.8391,-3.8492,-3.873,-3.9057,-3.9233,-3.9233,-3.9534,-3.9697,-3.9697,-3.9697,-3.9697,-3.9685,-3.927,-3.905,-3.905,-3.8619,-3.8684,-3.8998,-3.8998,-3.927,-3.9697,-3.9697,-3.9697,-3.9697,-3.9697,-3.9697,-3.9697,-3.9697,-3.9697,-3.9697,-3.9697,-3.9697,-3.9697,-3.9697,-3.9697,-3.9697,-3.9697,-3.9697,-3.9697,-3.9697,-3.9697,-3.9697,-3.9697,-3.9697,-3.9697,-3.9697,-3.9697,-3.9697,-3.9697,-3.9697,-3.9697,-3.9697,-3.9697,-3.9697,-3.9697,-3.9697,-3.9788,-4.007,-4.0275,-4.1071,-4.2957,-4.4879,-4.6343,-4.7019,-4.6975,-4.6975,-4.7121,-4.7121,-4.7121,-4.7121,-4.6946,-4.6815,-4.6815,-4.6565,-4.6432,-4.6432,-4.5776,-4.5654,-4.6046,-4.618,-4.6432,-4.6916,-4.7019,-4.7164,-1.3316,-1.5607,-1.7785,-2.0398,-2.214,-2.3467,-2.4551,-2.542,-2.6084,-2.6201,-2.6743,-2.7773,-2.9425,-3.103,-3.2464,-3.3511,-3.4323,-3.5017,-3.562,-3.5812,-3.6003,-3.6275,-3.6358,-3.6568,-3.6935,-3.6973,-3.7199,-3.7764,-3.7801,-3.7864,-3.8002,-3.8417,-3.8718,-3.8919,-3.927,-3.9546,-3.9697,-3.9697,-3.9697,-3.9697,-3.9426,-3.931,-3.927,-3.8945,-3.8841,-3.8945,-3.8945,-3.9218,-3.9697,-3.9697,-3.9697,-3.9697,-3.9697,-3.9697,-3.9697,-3.9697,-3.9697,-3.9697,-3.9697,-3.9697,-3.9697,-3.9697,-3.9697,-3.9697,-3.9697,-3.9697,-3.9697,-3.9697,-3.9697,-3.9697,-3.9697,-3.9697,-3.9697,-3.9697,-3.9697,-3.9697,-3.9697,-3.9697,-3.9697,-3.9697,-3.9697,-3.9697,-3.9697,-3.9697,-3.9697,-3.9697,-3.9697,-4.0491,-4.2631,-4.4429,-4.5821,-4.6712,-4.68,-4.6931,-4.7164,-4.7251,-4.7309,-4.7309,-4.7309,-4.7309,-4.7309,-4.7121,-4.7019,-4.7019,-4.6403,-4.615,-4.6314,-4.621,-4.6432,-4.6916,-4.6916,-4.7019,-1.2271,-1.4387,-1.6713,-1.9029,-2.0955,-2.2568,-2.3608,-2.4521,-2.5264,-2.5684,-2.63,-2.7083,-2.7794,-2.9213,-3.081,-3.2582,-3.33,-3.3956,-3.4726,-3.532,-3.5716,-3.6015,-3.6228,-3.6417,-3.6455,-3.6455,-3.6681,-3.7186,-3.7224,-3.745,-3.7977,-3.804,-3.8304,-3.8906,-3.8944,-3.917,-3.9685,-3.9697,-3.9697,-3.9697,-3.9426,-3.931,-3.927,-3.8945,-3.8945,-3.9258,-3.9258,-3.9426,-3.9697,-3.9697,-3.9697,-3.9697,-3.9697,-3.9697,-3.9697,-3.9697,-3.9697,-3.9697,-3.9697,-3.9697,-3.9697,-3.9697,-3.9697,-3.9697,-3.9697,-3.9697,-3.9697,-3.9697,-3.9697,-3.9697,-3.9697,-3.9697,-3.9697,-3.9697,-3.9697,-3.9697,-3.9697,-3.9697,-3.9697,-3.9697,-3.9697,-3.9697,-3.9697,-3.9697,-3.9697,-3.9697,-3.9697,-4.0491,-4.2631,-4.3832,-4.4737,-4.5413,-4.618,-4.6727,-4.6916,-4.7164,-4.7309,-4.7309,-4.7309,-4.7309,-4.7309,-4.7309,-4.7266,-4.7266,-4.6815,-4.655,-4.6594,-4.6314,-4.6432,-4.6916,-4.6916,-4.7019,-1.1069,-1.2781,-1.4715,-1.6938,-1.89,-2.0692,-2.2385,-2.3454,-2.4314,-2.5156,-2.5526,-2.5995,-2.6953,-2.8285,-2.9685,-3.109,-3.1789,-3.2708,-3.4105,-3.4763,-3.532,-3.592,-3.6228,-3.6405,-3.6405,-3.6405,-3.6493,-3.6681,-3.6707,-3.6782,-3.6935,-3.7287,-3.7575,-3.7776,-3.8542,-3.9132,-3.9685,-3.9697,-3.9697,-3.9697,-3.9581,-3.953,-3.953,-3.9426,-3.9426,-3.953,-3.953,-3.9594,-3.9697,-3.9697,-3.9697,-3.9697,-3.9697,-3.9697,-3.9697,-3.9697,-3.9697,-3.9697,-3.9697,-3.9697,-3.9697,-3.9697,-3.9697,-3.9697,-3.9697,-3.9697,-3.9697,-3.9697,-3.9697,-3.9697,-3.9697,-3.9697,-3.9697,-3.9697,-3.9697,-3.9697,-3.9697,-3.9697,-3.9697,-3.9697,-3.9697,-3.9697,-3.9697,-3.9697,-3.9697,-3.9697,-3.9697,-4.0249,-4.171,-4.2749,-4.3729,-4.462,-4.5429,-4.609,-4.6668,-4.6887,-4.7121,-4.7309,-4.7309,-4.7309,-4.7309,-4.7309,-4.7309,-4.7309,-4.699,-4.6712,-4.6594,-4.6194,-4.6225,-4.6727,-4.6727,-4.6902,-1.0199,-1.1545,-1.3115,-1.5041,-1.7,-1.8866,-2.0529,-2.1849,-2.2996,-2.3916,-2.4434,-2.4996,-2.6053,-2.6939,-2.8004,-2.9511,-3.0339,-3.1357,-3.2902,-3.385,-3.4714,-3.562,-3.6038,-3.6323,-3.6405,-3.6405,-3.6405,-3.6405,-3.6405,-3.6405,-3.6405,-3.6757,-3.6998,-3.7174,-3.8328,-3.9095,-3.9421,-3.9597,-3.9697,-3.9697,-3.9697,-3.9697,-3.9697,-3.9697,-3.9697,-3.9697,-3.9697,-3.9697,-3.9697,-3.9697,-3.9697,-3.9697,-3.9697,-3.9697,-3.9697,-3.9697,-3.9697,-3.9697,-3.9697,-3.9697,-3.9697,-3.9697,-3.9697,-3.9697,-3.9697,-3.9736,-3.9839,-3.9839,-3.9942,-4.0096,-3.9993,-3.989,-3.9839,-3.9839,-3.9839,-3.9839,-3.9839,-3.9736,-3.9697,-3.9697,-3.9697,-3.9697,-3.9697,-3.9697,-3.9697,-3.9697,-3.9697,-3.9942,-4.0656,-4.1657,-4.266,-4.3701,-4.4587,-4.5444,-4.618,-4.658,-4.6887,-4.7164,-4.7251,-4.7309,-4.7309,-4.7309,-4.7309,-4.7309,-4.7019,-4.6844,-4.6727,-4.6328,-4.6328,-4.6727,-4.6727,-4.6902,0.0,0.0,0.0,-1.3403,-1.5282,-1.7071,-1.8046,-1.9794,-2.1393,-2.2034,-2.3033,-2.4023,-2.492,-2.5086,-2.5757,-2.7842,-2.8999,-3.0061,-3.1186,-3.2632,-3.3932,-3.5042,-3.5656,-3.6098,-3.6358,-3.6405,-3.6405,-3.6405,-3.6405,-3.6405,-3.6405,-3.6405,-3.6669,-3.7161,-3.8241,-3.8894,-3.8919,-3.9408,-3.9672,-3.9697,-3.9697,-3.9697,-3.9697,-3.9697,-3.9697,-3.9697,-3.9697,-3.9697,-3.9697,-3.9697,-3.9697,-3.9697,-3.9697,-3.9697,-3.9697,-3.9697,-3.9697,-3.9697,-3.9697,-3.9697,-3.9697,-3.9697,-3.9697,-3.9697,-3.9697,-3.989,-4.007,-4.0121,-4.0478,-4.0833,-4.0605,-4.0338,-4.0121,-4.0134,-4.0134,-4.0134,-4.0121,-3.9929,-3.9736,-3.9736,-3.9749,-3.9697,-3.9697,-3.9697,-3.9697,-3.9697,-3.9697,-3.9697,-3.9697,-4.0605,-4.1647,-4.2652,-4.3695,-4.4648,-4.5413,-4.6135,-4.6668,-4.6887,-4.7164,-4.7309,-4.7309,-4.7309,-4.7309,-4.7309,-4.7019,-4.6916,-4.6916,-4.6727,-4.6712,-4.6916,-4.6916,-4.7062,-0.9725,0.0,0.0,0.0,0.0,0.0,-1.6991,-1.8543,-1.9972,-2.1444,-2.2639,-2.355,-2.4043,-2.4394,-2.4908,-2.5825,-2.7205,-2.8658,-3.0051,-3.1547,-3.2894,-3.4007,-3.4884,-3.5608,-3.6051,-3.6098,-3.6193,-3.6405,-3.6405,-3.6405,-3.6405,-3.6405,-3.6669,-3.7161,-3.7487,-3.804,-3.8906,-3.907,-3.9295,-3.9697,-3.9697,-3.9697,-3.9697,-3.9697,-3.9697,-3.9697,-3.9697,-3.9697,-3.9697,-3.9697,-3.9697,-3.9697,-3.9697,-3.9697,-3.9697,-3.9697,-3.9697,-3.9697,-3.9697,-3.9697,-3.9697,-3.9697,-3.9697,-3.9697,-3.9697,-3.989,-4.0134,-4.0338,-4.0782,-4.1222,-4.1348,-4.1298,-4.1185,-4.1021,-4.0971,-4.1021,-4.1235,-4.1198,-4.1047,-4.0643,-4.0275,-3.9981,-3.9736,-3.9697,-3.9697,-3.9697,-3.9697,-3.9697,-3.9697,-3.9942,-4.0555,-4.1597,-4.2652,-4.3648,-4.4602,-4.5398,-4.6046,-4.6639,-4.6887,-4.7121,-4.7309,-4.7309,-4.7309,-4.7309,-4.7207,-4.7207,-4.7207,-4.6815,-4.6712,-4.6916,-4.7121,-4.7207,0.0,0.0,0.0,-1.1973,0.0,0.0,-1.5266,-1.6741,-1.8201,-1.9744,-2.1105,-2.2191,-2.2881,-2.3486,-2.4023,-2.4463,-2.5627,-2.702,-2.8809,-3.0166,-3.1454,-3.2589,-3.3445,-3.4294,-3.5109,-3.5359,-3.5695,-3.6216,-3.6323,-3.6405,-3.6405,-3.6405,-3.6556,-3.6883,-3.7061,-3.75,-3.8165,-3.868,-3.9032,-3.9358,-3.9584,-3.9697,-3.9697,-3.9697,-3.9697,-3.9697,-3.9697,-3.9697,-3.9697,-3.9697,-3.9697,-3.9697,-3.9697,-3.9697,-3.9697,-3.9697,-3.9697,-3.9697,-3.9697,-3.9697,-3.9697,-3.9697,-3.9697,-3.9697,-3.9697,-3.9993,-4.0338,-4.0744,-4.1421,-4.2199,-4.2555,-4.2395,-4.2101,-4.194,-4.194,-4.199,-4.215,-4.2493,-4.2479,-4.1558,-4.1159,-4.0769,-4.0147,-4.0044,-3.9942,-3.9749,-3.9697,-3.9697,-3.9697,-3.9697,-3.9942,-4.0555,-4.1683,-4.2701,-4.3648,-4.4634,-4.5475,-4.621,-4.6653,-4.7019,-4.7309,-4.7309,-4.7309,-4.7309,-4.7309,-4.7309,-4.7309,-4.7033,-4.6946,-4.7062,-4.7207,-4.7309,-1.205,-1.2004,0.0,-1.2194,-1.2519,0.0,-1.3566,-1.5009,-1.6501,-1.7662,-1.9154,-2.0516,-2.1483,-2.2353,-2.3042,-2.3564,-2.4185,-2.5331,-2.7466,-2.8642,-2.9743,-3.1007,-3.1685,-3.2511,-3.3791,-3.4346,-3.5014,-3.5831,-3.6191,-3.6405,-3.6405,-3.6405,-3.6405,-3.6358,-3.6835,-3.7075,-3.7089,-3.8128,-3.8743,-3.8868,-3.9371,-3.9634,-3.9697,-3.9697,-3.9697,-3.9697,-3.9697,-3.9697,-3.9697,-3.9697,-3.9697,-3.9697,-3.9697,-3.9697,-3.9697,-3.9697,-3.9697,-3.9697,-3.9697,-3.9697,-3.9697,-3.9697,-3.9697,-3.9697,-3.9697,-4.0044,-4.0643,-4.1322,-4.2382,-4.3457,-4.3979,-4.362,-4.3081,-4.3081,-4.3081,-4.3081,-4.3081,-4.3796,-4.4031,-4.2695,-4.2319,-4.1927,-4.0984,-4.0744,-4.0504,-3.9942,-3.989,-3.9839,-3.9697,-3.9697,-3.9697,-3.9697,-4.0795,-4.1881,-4.2639,-4.3904,-4.4929,-4.5747,-4.6476,-4.6975,-4.7309,-4.7309,-4.7309,-4.7309,-4.7309,-4.7309,-4.7309,-4.7309,-4.7309,-4.7309,-4.7309,-4.7309,-1.3696,-1.3566,-1.3316,-1.3366,-1.3522,0.0,-1.4343,-1.5386,-1.6501,-1.7617,-1.8879,-1.9889,-2.0235,-2.0976,-2.1814,-2.2637,-2.3115,-2.4108,-2.5987,-2.7115,-2.82,-2.94,-3.036,-3.1397,-3.2689,-3.3275,-3.4076,-3.5282,-3.6013,-3.6405,-3.6405,-3.6405,-3.6323,-3.6098,-3.6163,-3.6327,-3.6566,-3.7009,-3.7655,-3.8603,-3.8918,-3.927,-3.9697,-3.9697,-3.9697,-3.9697,-3.9697,-3.9697,-3.9697,-3.9697,-3.9697,-3.9697,-3.9697,-3.9697,-3.9697,-3.9697,-3.9697,-3.9697,-3.9697,-3.9697,-3.9697,-3.9697,-3.9697,-3.9697,-3.9697,-4.0044,-4.0846,-4.2395,-4.3457,-4.4261,-4.4741,-4.4926,-4.4911,-4.4698,-4.4638,-4.4698,-4.4911,-4.511,-4.5201,-4.5081,-4.4406,-4.3654,-4.3108,-4.2311,-4.1597,-4.106,-4.101,-4.0656,-3.9788,-3.9697,-3.9697,-3.9697,-4.0185,-4.0984,-4.2115,-4.3396,-4.4541,-4.5489,-4.6269,-4.6858,-4.7266,-4.7309,-4.7309,-4.7309,-4.7309,-4.7309,-4.7309,-4.7309,-4.7309,-4.7309,-4.7309,-4.7309,-1.6397,-1.5851,-1.5158,-1.5391,-1.486,0.0,0.0,-1.5377,-1.6016,-1.6982,-1.8124,-1.8968,-1.9204,-1.9952,-2.0791,-2.1435,-2.1904,-2.2611,-2.3955,-2.5259,-2.6361,-2.7243,-2.7989,-2.9097,-3.0684,-3.1551,-3.2767,-3.4665,-3.5503,-3.5956,-3.5956,-3.6267,-3.6275,-3.6015,-3.6015,-3.5996,-3.6026,-3.6516,-3.7196,-3.8078,-3.863,-3.9157,-3.9697,-3.9697,-3.9697,-3.9697,-3.9697,-3.9697,-3.9697,-3.9697,-3.9697,-3.9697,-3.9697,-3.9697,-3.9697,-3.9697,-3.9697,-3.9697,-3.9697,-3.9697,-3.9697,-3.9697,-3.9697,-3.9697,-3.9697,-4.0351,-4.1335,-4.2625,-4.3823,-4.4833,-4.5367,-4.5685,-4.5806,-4.5687,-4.5642,-4.5702,-4.5806,-4.6031,-4.621,-4.6329,-4.5898,-4.5295,-4.4494,-4.3932,-4.3423,-4.2908,-4.2435,-4.1696,-4.0656,-4.0044,-3.9697,-3.9697,-4.0173,-4.087,-4.1881,-4.3218,-4.4415,-4.5458,-4.618,-4.6815,-4.7266,-4.7309,-4.7309,-4.7309,-4.7309,-4.7309,-4.7309,-4.7309,-4.7309,-4.7309,-4.7309,-4.7309,-1.9021,-1.8219,-1.7237,-1.7512,-1.6452,-1.5399,0.0,0.0,0.0,-1.6615,-1.7455,-1.8129,-1.8446,-1.9114,-1.9814,-2.0282,-2.0693,-2.121,-2.2031,-2.3211,-2.4302,-2.5092,-2.5709,-2.6719,-2.8484,-2.9884,-3.1574,-3.3694,-3.4636,-3.5186,-3.5332,-3.5906,-3.6116,-3.5908,-3.592,-3.5764,-3.5464,-3.6171,-3.6911,-3.7556,-3.8329,-3.9057,-3.9697,-3.9697,-3.9697,-3.9697,-3.9697,-3.9697,-3.9697,-3.9697,-3.9697,-3.9697,-3.9697,-3.9697,-3.9697,-3.9697,-3.9697,-3.9697,-3.9697,-3.9697,-3.9697,-3.9697,-3.9697,-3.9697,-3.9736,-4.0643,-4.1782,-4.2563,-4.3904,-4.5201,-4.5821,-4.618,-4.6388,-4.6388,-4.6388,-4.6388,-4.6388,-4.6712,-4.6975,-4.6975,-4.6931,-4.6609,-4.5671,-4.5353,-4.5138,-4.4737,-4.3832,-4.2825,-4.1759,-4.0846,-4.0338,-4.0338,-4.0958,-4.1544,-4.1967,-4.3348,-4.4587,-4.5489,-4.6269,-4.6858,-4.7266,-4.7309,-4.7309,-4.7309,-4.7309,-4.7309,-4.7309,-4.7309,-4.7309,-4.7309,-4.7309,-4.7309,-2.0297,-2.0008,-1.9478,-1.9,-1.8488,-1.7872,-1.7225,0.0,-1.6835,-1.7292,0.0,-1.7817,-1.8042,0.0,0.0,-1.9365,-1.9795,-2.0234,-2.0752,-2.0957,-2.1735,-2.3551,-2.451,-2.5482,-2.6628,-2.9086,-3.0956,-3.1853,-3.3077,-3.4107,-3.4743,-3.5295,-3.5634,-3.5644,-3.5668,-3.5416,-3.4884,-3.5429,-3.6259,-3.7318,-3.7879,-3.8668,-3.9697,-3.9697,-3.9697,-3.9697,-3.9697,-3.9697,-3.9697,-3.9697,-3.9697,-3.9697,-3.9697,-3.9697,-3.9697,-3.9697,-3.9697,-3.9697,-3.9697,-3.9697,-3.9697,-3.9697,-3.9697,-3.9736,-3.9981,-4.0668,-4.1558,-4.2514,-4.3923,-4.5264,-4.5986,-4.6668,-4.7179,-4.7179,-4.7179,-4.7179,-4.7179,-4.7222,-4.7251,-4.7251,-4.7251,-4.7207,-4.7077,-4.6373,-4.579,-4.5745,-4.4862,-4.3879,-4.2838,-4.2582,-4.2547,-4.2547,-4.3389,-4.3614,-4.2757,-4.4078,-4.5218,-4.5747,-4.6476,-4.6975,-4.7309,-4.7309,-4.7309,-4.7309,-4.7309,-4.7309,-4.7309,-4.7309,-4.7309,-4.7309,-4.7309,-4.7309,-2.1926,-2.1461,-2.0828,-2.0567,-1.9664,-1.8711,-1.8229,-1.7562,-1.7241,-1.7888,0.0,0.0,0.0,0.0,0.0,0.0,-1.8848,-1.9043,-1.9764,-1.9609,-2.0028,-2.1637,-2.2519,-2.3649,-2.5344,-2.7535,-2.9273,-3.025,-3.1783,-3.2996,-3.3734,-3.4856,-3.5469,-3.539,-3.5651,-3.5668,-3.5271,-3.562,-3.6404,-3.7506,-3.7804,-3.8605,-3.9697,-3.9697,-3.9697,-3.9697,-3.9697,-3.9697,-3.9697,-3.9697,-3.9697,-3.9697,-3.9697,-3.9697,-3.9697,-3.9697,-3.9697,-3.9697,-3.9697,-3.9697,-3.9697,-3.9697,-3.9697,-3.9749,-3.9839,-4.0529,-4.1458,-4.2124,-4.3687,-4.5218,-4.5837,-4.6624,-4.7309,-4.7309,-4.7309,-4.7309,-4.7309,-4.7309,-4.7309,-4.7309,-4.7309,-4.7309,-4.7309,-4.699,-4.6727,-4.6727,-4.5866,-4.5138,-4.4723,-4.4115,-4.4195,-4.5324,-4.5293,-4.5095,-4.4854,-4.525,-4.5732,-4.621,-4.68,-4.7164,-4.7309,-4.7309,-4.7309,-4.7309,-4.7309,-4.7309,-4.7309,-4.7309,-4.7309,-4.7309,-4.7309,-4.7309,-2.329,-2.2722,-2.1906,-2.1791,-2.0616,-1.9421,-1.9106,-1.828,-1.7805,-1.8501,-1.8669,0.0,0.0,0.0,0.0,0.0,0.0,-1.8184,-1.8691,-1.8389,-1.8633,-2.0087,-2.1015,-2.2267,-2.4181,-2.5862,-2.7342,-2.8597,-3.0237,-3.1634,-3.2707,-3.4091,-3.494,-3.5183,-3.5581,-3.5711,-3.562,-3.5872,-3.655,-3.7593,-3.7854,-3.8605,-3.9697,-3.9697,-3.9697,-3.9697,-3.9697,-3.9697,-3.9697,-3.9697,-3.9697,-3.9697,-3.9697,-3.9697,-3.9697,-3.9697,-3.9697,-3.9697,-3.9697,-3.9697,-3.9697,-3.9697,-3.9697,-3.9697,-3.9697,-4.0389,-4.1322,-4.1842,-4.3402,-4.5021,-4.5642,-4.6476,-4.7207,-4.7266,-4.7309,-4.7309,-4.7309,-4.7309,-4.7309,-4.7309,-4.7309,-4.7309,-4.7309,-4.7309,-4.7309,-4.7309,-4.6727,-4.6284,-4.6284,-4.564,-4.573,-4.7164,-4.6521,-4.6106,-4.6373,-4.6151,-4.6254,-4.6771,-4.7135,-4.7309,-4.7309,-4.7309,-4.7309,-4.7309,-4.7309,-4.7309,-4.7309,-4.7309,-4.7309,-4.7309,-4.7309,-4.7309,-2.4258,-2.3705,-2.2955,-2.2555,-2.1514,-2.043,-1.9952,-1.9192,-1.8705,-1.918,-1.9268,-1.9268,-1.9268,0.0,0.0,0.0,0.0,0.0,0.0,-1.707,-1.7389,-1.9131,-2.0494,-2.1734,-2.2861,-2.4124,-2.5425,-2.6795,-2.8191,-2.9877,-3.1841,-3.2744,-3.3809,-3.5146,-3.522,-3.534,-3.5608,-3.5872,-3.655,-3.7593,-3.7854,-3.8605,-3.9697,-3.9697,-3.9697,-3.9697,-3.9697,-3.9697,-3.9697,-3.9697,-3.9697,-3.9697,-3.9697,-3.9697,-3.9697,-3.9697,-3.9697,-3.9697,-3.9697,-3.9697,-3.9697,-3.9697,-3.9697,-3.9697,-3.9697,-4.0287,-4.1084,-4.1792,-4.3129,-4.4545,-4.5551,-4.6329,-4.6975,-4.7251,-4.7309,-4.7309,-4.7309,-4.7309,-4.7309,-4.7309,-4.7309,-4.7309,-4.7309,-4.7309,-4.7309,-4.7309,-4.7266,-4.7266,-4.7266,-4.7222,-4.7222,-4.7309,-4.6858,-4.6594,-4.6594,-4.6594,-4.6771,-4.7266,-4.7309,-4.7309,-4.7309,-4.7309,-4.7309,-4.7309,-4.7309,-4.7309,-4.7309,-4.7309,-4.7309,-4.7309,-4.7309,-4.7309,-2.4375,-2.4004,-2.3467,-2.2994,-2.1921,-2.0889,-2.0449,-1.9687,-1.9268,-2.0018,-2.0175,-2.0225,-2.0518,0.0,0.0,0.0,0.0,0.0,0.0,-1.7012,-1.7019,-1.793,-1.8805,-1.9798,-2.0989,-2.2211,-2.3497,-2.4863,-2.6851,-2.8749,-3.0544,-3.2082,-3.3508,-3.4828,-3.5228,-3.5619,-3.6121,-3.6228,-3.6826,-3.7854,-3.7953,-3.8605,-3.9697,-3.9697,-3.9697,-3.9697,-3.9697,-3.9697,-3.9697,-3.9697,-3.9697,-3.9697,-3.9697,-3.9697,-3.9697,-3.9697,-3.9697,-3.9697,-3.9697,-3.9697,-3.9697,-3.9697,-3.9697,-3.9697,-3.9697,-4.0236,-4.1034,-4.162,-4.2916,-4.4294,-4.5095,-4.6031,-4.6771,-4.6975,-4.7164,-4.7309,-4.7309,-4.7309,-4.7309,-4.7309,-4.7309,-4.7309,-4.7309,-4.7309,-4.7309,-4.7309,-4.7309,-4.7309,-4.7309,-4.7309,-4.7309,-4.7309,-4.7179,-4.7077,-4.7077,-4.7077,-4.7121,-4.7309,-4.7309,-4.7309,-4.7309,-4.7309,-4.7309,-4.7309,-4.7309,-4.7309,-4.7309,-4.7309,-4.7309,-4.7309,-4.7309,-4.7309,-2.4844,-2.4463,-2.3945,-2.3617,-2.2594,-2.157,-2.1328,-2.0596,-2.0176,-2.0928,-2.1075,-2.1123,-2.1416,-2.1103,0.0,0.0,0.0,0.0,0.0,-1.6882,-1.6863,-1.7334,-1.7878,-1.8591,-1.9682,-2.0786,-2.2038,-2.3463,-2.5535,-2.7553,-2.9413,-3.119,-3.2878,-3.4387,-3.4919,-3.5617,-3.6405,-3.6405,-3.6958,-3.8002,-3.8002,-3.8605,-3.9697,-3.9697,-3.9697,-3.9697,-3.9697,-3.9697,-3.9697,-3.9697,-3.9697,-3.9697,-3.9697,-3.9697,-3.9697,-3.9697,-3.9697,-3.9697,-3.9697,-3.9697,-3.9697,-3.9697,-3.9697,-3.9697,-3.9697,-4.0134,-4.0732,-4.1385,-4.2444,-4.3681,-4.468,-4.5611,-4.6388,-4.68,-4.7121,-4.7309,-4.7309,-4.7309,-4.7309,-4.7309,-4.7309,-4.7309,-4.7309,-4.7309,-4.7309,-4.7309,-4.7309,-4.7309,-4.7309,-4.7309,-4.7309,-4.7309,-4.7309,-4.7309,-4.7309,-4.7309,-4.7309,-4.7309,-4.7309,-4.7309,-4.7309,-4.7309,-4.7309,-4.7309,-4.7309,-4.7309,-4.7309,-4.7309,-4.7309,-4.7309,-4.7309,-4.7429]},{"header":{"parameterUnit":"m.s-1","parameterCategory":1,"la1":30.6,"la2":29.2853,"lo1":-89.7004,"lo2":-87.6739,"dy":0.0162,"dx":0.0183,"nx":112,"ny":82,"refTime":"2024-06-15T00:00:00:Z","depth":0,"parameterNumber":3,"parameterNumberName":"V-component_of_WINDS"},"data":[0.0,0.0,0.0,0.0,0.0,0.0,0.0,0.0,0.0,0.0,0.0,0.0,0.0,0.0,0.0,0.0,0.0,0.0,0.0,0.0,0.0,0.0,0.0,0.0,0.0,0.0,0.0,0.0,0.0,0.0,0.0,0.0,0.0,0.0,0.0,0.0,0.0,0.0,0.0,0.0,0.0,0.0,0.0,0.0,0.0,0.0,0.0,0.0,0.0,0.0,0.0,0.0,0.0,0.0,0.0,0.0,0.0,0.0,0.0,0.0,0.0,0.0,0.0,0.0,0.0,0.0,0.0,0.0,0.0,0.0,0.0,0.0,0.0,0.0,0.0,0.0,0.0,0.0,0.0,0.0,0.0,0.0,0.0,0.0,0.0,0.0,0.0,0.0,0.0,0.0,2.2364,2.5308,2.7139,2.796,2.7426,2.6852,2.568,2.3742,0.0,0.0,0.0,0.0,0.0,0.0,0.0,0.0,0.0,0.0,0.0,0.0,0.0,0.0,0.0,0.0,0.0,0.0,0.0,0.0,0.0,0.0,0.0,0.0,0.0,0.0,0.0,0.0,0.0,0.0,0.0,0.0,0.0,0.0,0.0,0.0,0.0,0.0,0.0,0.0,0.0,0.0,0.0,0.0,0.0,0.0,0.0,0.0,0.0,0.0,0.0,0.0,0.0,0.0,0.0,0.0,0.0,0.0,0.0,0.0,0.0,0.0,0.0,0.0,0.0,0.0,0.0,0.0,0.0,0.0,0.0,0.0,0.0,0.0,0.0,0.0,0.0,0.0,0.0,0.0,0.0,0.0,0.0,0.0,0.0,0.0,0.0,0.0,0.0,0.0,0.0,0.0,0.0,0.0,0.0,0.0,0.0,0.0,0.0,0.0,0.0,0.0,0.0,0.0,2.3073,2.6247,2.745,2.8079,2.8201,2.7214,2.6005,2.4663,0.0,0.0,0.0,0.0,0.0,0.0,0.0,0.0,0.0,0.0,0.0,0.0,0.0,0.0,0.0,0.0,0.0,0.0,0.0,0.0,0.0,0.0,0.0,0.0,0.0,0.0,0.0,0.0,0.0,0.0,0.0,0.0,0.0,0.0,0.0,0.0,0.0,0.0,0.0,0.0,0.0,0.0,0.0,0.0,0.0,0.0,0.0,0.0,0.0,0.0,0.0,0.0,0.0,0.0,0.0,0.0,0.0,0.0,0.0,0.0,0.0,0.0,0.0,0.0,0.0,0.0,0.0,0.0,0.0,0.0,0.0,0.0,0.0,0.0,0.0,0.0,0.0,0.0,0.0,0.0,0.0,0.0,0.0,0.0,0.0,0.0,0.0,0.0,0.0,0.0,0.0,0.0,0.0,0.0,0.0,0.0,0.0,0.0,0.0,0.0,0.0,0.0,0.0,2.3031,2.4934,2.6526,2.749,2.8087,2.8342,2.7276,2.6098,2.4881,2.1804,0.0,0.0,0.0,0.0,0.0,0.0,0.0,0.0,0.0,0.0,0.0,0.0,0.0,0.0,0.0,0.0,0.0,0.0,0.0,0.0,0.0,0.0,0.0,0.0,0.0,0.0,0.0,0.0,0.0,0.0,0.0,0.0,0.0,0.0,0.0,0.0,0.0,0.0,0.0,0.0,0.0,0.0,0.0,0.0,0.0,0.0,0.0,0.0,0.0,0.0,0.0,0.0,0.0,0.0,0.0,0.0,0.0,0.0,0.0,0.0,0.0,0.0,0.0,0.0,0.0,0.0,0.0,0.0,0.0,0.0,0.0,0.0,0.0,0.0,0.0,0.0,0.0,0.0,0.0,0.0,0.0,0.0,0.0,0.0,0.0,0.0,0.0,0.0,0.0,0.0,0.0,0.0,0.0,0.0,0.0,0.0,0.0,0.0,0.0,0.0,0.0,0.0,2.5032,2.6399,2.6841,2.7526,2.8059,2.8324,2.7276,2.6089,2.491,2.1855,0.0,0.0,0.0,0.0,0.0,0.0,0.0,0.0,0.0,0.0,0.0,0.0,0.0,0.0,0.0,0.0,0.0,0.0,0.0,0.0,0.0,0.0,0.0,0.0,0.0,0.0,0.0,0.0,0.0,0.0,0.0,0.0,0.0,0.0,0.0,0.0,0.0,0.0,0.0,0.0,0.0,0.0,0.0,0.0,0.0,0.0,0.0,0.0,0.0,0.0,0.0,0.0,0.0,0.0,0.0,0.0,0.0,0.0,0.0,0.0,0.0,0.0,0.0,0.0,0.0,0.0,0.0,0.0,0.0,0.0,0.0,0.0,0.0,0.0,0.0,0.0,0.0,0.0,0.0,0.0,0.0,0.0,0.0,0.0,0.0,0.0,0.0,0.0,0.0,0.0,0.0,0.0,0.0,0.0,0.0,0.0,0.0,0.0,0.0,0.0,0.0,0.0,2.5201,2.6457,2.7582,2.7768,2.8014,2.8453,2.7332,2.6108,2.496,2.1874,0.0,0.0,0.0,0.0,0.0,0.0,0.0,0.0,0.0,0.0,0.0,0.0,0.0,0.0,0.0,0.0,0.0,0.0,0.0,0.0,0.0,0.0,0.0,0.0,0.0,0.0,0.0,0.0,0.0,0.0,0.0,0.0,0.0,0.0,0.0,0.0,0.0,0.0,0.0,0.0,0.0,0.0,0.0,0.0,0.0,0.0,0.0,0.0,0.0,0.0,0.0,0.0,0.0,0.0,0.0,0.0,0.0,0.0,0.0,0.0,0.0,0.0,0.0,0.0,0.0,0.0,0.0,0.0,0.0,0.0,0.0,0.0,0.0,0.0,0.0,0.0,0.0,0.0,0.0,0.0,0.0,0.0,0.0,0.0,0.0,0.0,0.0,0.0,0.0,0.0,0.0,0.0,0.0,0.0,0.0,0.0,0.0,0.0,0.0,0.0,0.0,0.0,2.5559,2.7098,2.8355,2.8514,2.8745,2.9199,2.7613,2.6108,2.4967,0.0,0.0,0.0,0.0,0.0,0.0,0.0,0.0,0.0,0.0,0.0,0.0,0.0,0.0,0.0,0.0,0.0,0.0,0.0,0.0,0.0,0.0,0.0,0.0,0.0,0.0,0.0,0.0,0.0,0.0,0.0,0.0,0.0,0.0,0.0,0.0,0.0,0.0,0.0,0.0,0.0,0.0,0.0,0.0,0.0,0.0,0.0,0.0,0.0,0.0,0.0,0.0,0.0,0.0,0.0,0.0,0.0,0.0,0.0,0.0,0.0,0.0,0.0,0.0,0.0,0.0,0.0,0.0,0.0,0.0,0.0,0.0,0.0,0.0,0.0,0.0,0.0,0.0,0.0,0.0,0.0,0.0,0.0,0.0,0.0,0.0,0.0,0.0,0.0,0.0,0.0,0.0,0.0,0.0,0.0,0.0,0.0,0.0,0.0,0.0,0.0,0.0,2.3534,2.5626,2.7341,2.8704,2.8879,2.9116,2.962,2.7766,2.6098,2.4972,0.0,0.0,0.0,0.0,0.0,0.0,0.0,0.0,0.0,0.0,0.0,0.0,0.0,0.0,0.0,0.0,0.0,0.0,0.0,0.0,0.0,0.0,0.0,0.0,0.0,0.0,0.0,0.0,0.0,0.0,0.0,0.0,0.0,0.0,0.0,0.0,0.0,0.0,0.0,0.0,0.0,0.0,0.0,0.0,0.0,0.0,0.0,0.0,0.0,0.0,0.0,0.0,0.0,0.0,0.0,0.0,0.0,0.0,0.0,0.0,0.0,0.0,0.0,0.0,0.0,0.0,0.0,0.0,0.0,0.0,0.0,0.0,0.0,0.0,0.0,0.0,0.0,0.0,0.0,0.0,0.0,0.0,0.0,0.0,0.0,0.0,0.0,0.0,0.0,0.0,0.0,0.0,0.0,0.0,0.0,0.0,0.0,0.0,0.0,0.0,0.0,0.0,2.3347,2.5362,2.7078,2.8565,2.8706,2.8979,2.9557,2.7766,2.6126,0.0,0.0,0.0,0.0,0.0,0.0,0.0,0.0,0.0,0.0,0.0,0.0,0.0,0.0,0.0,0.0,0.0,0.0,0.0,0.0,0.0,0.0,0.0,0.0,0.0,0.0,0.0,0.0,0.0,0.0,0.0,0.0,0.0,0.0,0.0,0.0,0.0,0.0,0.0,0.0,0.0,0.0,0.0,0.0,0.0,0.0,0.0,0.0,0.0,0.0,0.0,0.0,0.0,0.0,0.0,0.0,0.0,0.0,0.0,0.0,0.0,0.0,0.0,0.0,0.0,0.0,0.0,0.0,0.0,0.0,0.0,0.0,0.0,0.0,0.0,0.0,0.0,0.0,0.0,0.0,0.0,0.0,0.0,0.0,0.0,0.0,0.0,0.0,0.0,0.0,0.0,0.0,0.0,0.0,0.0,0.0,0.0,0.0,0.0,0.0,0.0,0.0,0.0,2.3835,2.636,2.8491,3.0022,3.0212,3.0263,3.0309,2.8452,2.6554,2.4801,0.0,0.0,0.0,0.0,0.0,0.0,0.0,0.0,0.0,0.0,0.0,0.0,0.0,0.0,0.0,0.0,0.0,0.0,0.0,0.0,0.0,0.0,0.0,0.0,0.0,0.0,0.0,0.0,0.0,0.0,0.0,0.0,0.0,0.0,0.0,0.0,0.0,0.0,0.0,0.0,0.0,0.0,0.0,0.0,0.0,0.0,0.0,0.0,0.0,0.0,0.0,0.0,0.0,0.0,0.0,0.0,0.0,0.0,0.0,0.0,0.0,0.0,0.0,0.0,0.0,0.0,0.0,0.0,0.0,0.0,0.0,0.0,0.0,0.0,0.0,0.0,0.0,0.0,0.0,0.0,0.0,0.0,0.0,0.0,0.0,0.0,0.0,0.0,0.0,0.0,0.0,0.0,0.0,0.0,0.0,0.0,0.0,0.0,0.0,0.0,0.0,0.0,2.4453,2.6899,2.8954,3.047,3.0715,3.0677,3.0421,2.8902,2.7112,2.5125,0.0,0.0,0.0,0.0,0.0,0.0,0.0,0.0,0.0,0.0,0.0,0.0,0.0,0.0,0.0,0.0,0.0,0.0,0.0,0.0,0.0,0.0,0.0,0.0,0.0,0.0,0.0,0.0,0.0,0.0,0.0,0.0,0.0,0.0,0.0,0.0,0.0,0.0,0.0,0.0,0.0,0.0,0.0,0.0,0.0,0.0,0.0,0.0,0.0,0.0,0.0,0.0,0.0,0.0,0.0,0.0,0.0,0.0,0.0,0.0,0.0,0.0,0.0,0.0,0.0,0.0,0.0,0.0,0.0,0.0,0.0,0.0,0.0,0.0,0.0,0.0,0.0,0.0,0.0,0.0,0.0,0.0,0.0,0.0,0.0,0.0,0.0,0.0,0.0,0.0,0.0,0.0,0.0,0.0,0.0,0.0,0.0,0.0,0.0,0.0,0.0,0.0,2.5108,2.7118,2.8853,3.0337,3.062,3.056,3.0221,2.9186,2.7736,2.5791,0.0,0.0,0.0,0.0,0.0,0.0,0.0,0.0,0.0,0.0,0.0,0.0,0.0,0.0,0.0,0.0,0.0,0.0,0.0,0.0,0.0,0.0,0.0,0.0,0.0,0.0,0.0,0.0,0.0,0.0,0.0,0.0,0.0,0.0,0.0,0.0,0.0,0.0,0.0,0.0,0.0,0.0,0.0,0.0,0.0,0.0,0.0,0.0,0.0,0.0,0.0,0.0,0.0,0.0,0.0,0.0,0.0,0.0,0.0,0.0,2.2633,2.1652,0.0,0.0,0.0,0.0,0.0,0.0,0.0,0.0,0.0,0.0,0.0,0.0,0.0,0.0,0.0,0.0,0.0,0.0,0.0,0.0,0.0,0.0,0.0,0.0,0.0,0.0,0.0,0.0,0.0,0.0,0.0,0.0,0.0,0.0,0.0,0.0,0.0,0.0,0.0,0.0,2.5519,2.7654,2.9479,3.0959,3.1264,3.1232,3.0834,2.9783,2.8244,2.6206,2.3515,0.0,0.0,0.0,0.0,0.0,0.0,0.0,0.0,0.0,0.0,0.0,0.0,0.0,0.0,0.0,0.0,0.0,0.0,0.0,0.0,0.0,0.0,0.0,0.0,0.0,0.0,0.0,0.0,0.0,0.0,0.0,0.0,0.0,0.0,0.0,0.0,0.0,0.0,0.0,0.0,0.0,0.0,0.0,0.0,0.0,0.0,0.0,0.0,0.0,0.0,0.0,0.0,0.0,0.0,0.0,0.0,0.0,0.0,0.0,2.6139,2.4605,0.0,0.0,0.0,0.0,0.0,0.0,0.0,0.0,0.0,0.0,0.0,0.0,0.0,0.0,0.0,0.0,0.0,0.0,0.0,0.0,0.0,0.0,0.0,0.0,0.0,0.0,0.0,0.0,0.0,0.0,0.0,0.0,0.0,0.0,0.0,0.0,0.0,0.0,0.0,0.0,2.6705,2.8492,2.9961,3.1133,3.137,3.1271,3.0855,3.0023,2.8855,2.722,2.4801,0.0,0.0,0.0,0.0,0.0,0.0,0.0,0.0,0.0,0.0,0.0,0.0,0.0,0.0,0.0,0.0,0.0,0.0,0.0,0.0,0.0,0.0,0.0,0.0,0.0,0.0,0.0,0.0,0.0,0.0,0.0,0.0,0.0,0.0,0.0,0.0,0.0,0.0,0.0,0.0,0.0,0.0,0.0,0.0,0.0,0.0,0.0,0.0,0.0,0.0,0.0,0.0,0.0,3.2985,3.2416,3.162,3.165,3.216,3.2846,3.0107,2.825,2.7167,2.7056,0.0,0.0,0.0,0.0,0.0,0.0,0.0,0.0,0.0,0.0,0.0,0.0,0.0,0.0,0.0,0.0,0.0,0.0,0.0,0.0,0.0,0.0,2.6787,2.8808,2.8661,2.7689,2.6326,0.0,0.0,0.0,0.0,0.0,0.0,0.0,0.0,0.0,0.0,0.0,2.7862,2.9313,3.0434,3.123,3.1399,3.1268,3.0759,3.0231,2.9448,2.8284,2.6441,2.4723,0.0,0.0,0.0,0.0,0.0,0.0,0.0,0.0,0.0,0.0,0.0,0.0,0.0,0.0,0.0,0.0,0.0,0.0,0.0,0.0,0.0,0.0,0.0,0.0,0.0,0.0,0.0,0.0,0.0,0.0,0.0,0.0,1.7757,2.0195,0.0,0.0,0.0,0.0,0.0,0.0,0.0,0.0,0.0,0.0,0.0,0.0,0.0,2.5032,2.3702,2.9482,3.4083,3.7403,3.548,3.497,3.5732,3.5908,3.6057,3.6204,3.6149,0.0,3.1716,3.0413,0.0,0.0,0.0,0.0,0.0,0.0,0.0,0.0,0.0,0.0,0.0,0.0,0.0,0.0,0.0,0.0,0.0,0.0,0.0,0.0,0.0,0.0,3.0405,3.1345,3.1334,3.1085,3.0993,2.8284,2.5678,2.5023,2.354,2.1966,0.0,0.0,0.0,0.0,0.0,0.0,2.8033,2.9665,3.0887,3.1637,3.1991,3.191,3.1266,3.0776,2.9971,2.8701,2.7286,2.5634,2.3707,2.2099,0.0,0.0,0.0,0.0,0.0,0.0,0.0,0.0,0.0,0.0,0.0,0.0,0.0,0.0,0.0,0.0,0.0,0.0,0.0,0.0,0.0,0.0,0.0,0.0,0.0,0.0,0.0,0.0,0.0,1.7915,2.021,2.2518,2.2391,2.2233,0.0,0.0,0.0,0.0,0.0,0.0,0.0,0.0,0.0,2.9014,2.9256,2.9783,3.0591,3.45,3.7416,3.9244,3.7564,3.7127,3.7808,3.788,3.7901,3.7878,3.809,3.745,3.6093,3.4218,3.2752,3.1535,0.0,0.0,0.0,0.0,2.9158,3.0382,3.0245,3.0459,3.0734,3.029,0.0,0.0,0.0,0.0,0.0,0.0,0.0,2.9436,3.1119,3.1988,3.2702,3.3773,3.3584,3.3294,3.3759,3.228,3.0121,2.7725,2.6323,2.5047,2.3548,2.3132,0.0,0.0,0.0,2.7402,2.9132,3.0543,3.156,3.2078,3.2002,3.1846,3.1756,3.0832,3.0101,2.973,2.807,2.6764,2.604,2.3956,2.242,0.0,0.0,0.0,0.0,0.0,0.0,0.0,0.0,0.0,0.0,0.0,0.0,0.0,0.0,0.0,0.0,0.0,0.0,0.0,0.0,0.0,0.0,0.0,0.0,0.0,0.0,0.0,0.0,2.0752,2.2543,2.4533,2.4863,2.4954,0.0,0.0,0.0,0.0,0.0,0.0,2.9195,3.1498,3.2968,3.3264,3.3041,3.4148,3.6738,3.8971,4.0096,4.0096,3.9132,3.884,3.9142,3.9142,3.9112,3.9118,3.9163,3.9299,3.9282,3.7184,3.5625,3.4462,3.3454,3.2745,3.2247,3.1777,3.2505,3.3687,3.3522,3.3814,3.4159,3.3512,3.266,3.1618,3.0127,0.0,0.0,0.0,0.0,3.2126,3.3328,3.3834,3.4259,3.5266,3.4949,3.4594,3.5126,3.482,3.347,3.022,2.9162,2.8227,2.6509,2.605,0.0,2.6604,2.7867,2.9128,3.0164,3.1275,3.2095,3.2371,3.219,3.2017,3.193,3.1059,3.0484,3.039,2.8784,2.7801,2.7704,2.5625,2.4032,2.3115,0.0,0.0,0.0,0.0,0.0,0.0,0.0,0.0,0.0,0.0,0.0,0.0,0.0,0.0,0.0,0.0,0.0,0.0,0.0,0.0,0.0,0.0,0.0,0.0,0.0,0.0,0.0,0.0,0.0,2.6402,2.7077,0.0,0.0,0.0,0.0,3.0402,3.1167,3.2184,3.3515,3.4326,3.5467,3.6985,3.6149,3.7036,3.9842,4.0028,4.0096,4.0096,4.0028,4.0011,4.0028,4.0028,4.0103,4.0235,4.048,4.0618,4.0459,3.8503,3.7732,3.7609,3.5982,3.5766,3.6289,3.5235,3.5797,3.7003,3.6684,3.6582,3.6599,3.636,3.5273,3.3893,3.3114,3.267,0.0,0.0,3.3674,3.4053,3.4866,3.5107,3.5145,3.5208,3.4983,3.4784,3.4815,3.48,3.4231,3.2374,3.1981,3.1273,2.9093,0.0,2.8399,2.8303,2.8627,2.9368,3.0678,3.1621,3.2231,3.2374,3.2959,3.279,3.1539,3.1788,3.1439,3.0106,2.9445,2.8596,2.7473,2.6855,2.5643,2.3691,2.2255,0.0,0.0,0.0,0.0,0.0,0.0,0.0,0.0,0.0,0.0,0.0,0.0,0.0,0.0,0.0,0.0,0.0,0.0,0.0,0.0,0.0,0.0,0.0,0.0,0.0,0.0,0.0,0.0,2.957,2.9937,0.0,3.1033,3.1475,3.21,3.3045,3.41,3.4874,3.5301,3.636,3.7443,3.8471,3.8908,3.9438,4.0096,4.0096,4.0625,4.172,4.172,4.1535,4.1194,4.1194,4.1139,4.1019,4.11,4.1154,4.1087,4.0396,3.9705,3.8967,3.771,3.7399,3.7583,3.6837,3.7162,3.79,3.7603,3.7452,3.7293,3.6679,3.6017,3.5283,3.4538,3.4471,3.4584,3.4383,3.4888,3.5522,3.5721,3.5964,3.6144,3.607,3.595,3.5905,3.5905,3.5905,3.5561,3.4472,3.3675,3.2787,3.1552,3.086,3.0463,3.0389,3.0396,3.0582,3.1139,3.1854,3.246,3.2825,3.286,3.2627,3.2033,3.1945,3.1541,3.0698,2.9692,2.8954,2.8561,2.7191,2.5934,2.4878,2.357,2.1981,0.0,0.0,0.0,0.0,0.0,0.0,0.0,0.0,0.0,0.0,0.0,0.0,0.0,0.0,0.0,0.0,0.0,0.0,0.0,0.0,0.0,0.0,0.0,0.0,0.0,2.8124,2.985,3.1871,3.2364,3.2828,3.3587,3.4006,3.4522,3.5151,3.6437,3.7136,3.6993,3.8302,3.9254,3.9748,4.0634,4.0929,4.0585,4.0723,4.1342,4.2445,4.2445,4.2116,4.1553,4.1553,4.1455,4.1214,4.1214,4.1214,4.1214,4.1214,4.0783,4.0045,3.9496,3.9236,3.9093,3.841,3.8365,3.8574,3.7959,3.7614,3.7351,3.6812,3.6513,3.6266,3.5787,3.5816,3.5935,3.5461,3.5781,3.625,3.6161,3.623,3.6336,3.6258,3.621,3.6147,3.6147,3.6147,3.601,3.5537,3.4801,3.4061,3.3395,3.2777,3.2416,3.2416,3.2193,3.2096,3.2165,3.2433,3.2724,3.3115,3.3008,3.2793,3.2479,3.2265,3.1788,3.0965,2.9749,2.8966,2.88,2.734,2.6256,2.5721,2.4224,2.2475,2.0435,0.0,0.0,0.0,0.0,0.0,0.0,0.0,0.0,0.0,0.0,0.0,0.0,0.0,0.0,0.0,0.0,0.0,0.0,0.0,0.0,0.0,0.0,0.0,2.8849,3.0931,3.2645,3.3151,3.4278,3.5254,3.5902,3.596,3.6199,3.6838,3.8132,3.8865,3.8727,4.0083,4.0851,4.0883,4.1252,4.1452,4.1485,4.1883,4.2077,4.2045,4.2045,4.1725,4.1103,4.1103,4.1042,4.09,4.09,4.09,4.09,4.09,4.09,4.0929,4.1231,4.1255,4.0951,3.9973,3.9498,3.9201,3.788,3.7194,3.6937,3.6937,3.6891,3.6875,3.6875,3.6769,3.6693,3.6693,3.643,3.6164,3.6164,3.5943,3.5688,3.5688,3.5589,3.5504,3.5504,3.5504,3.5504,3.5504,3.5442,3.52,3.4541,3.4315,3.4225,3.4225,3.3925,0.0,3.3683,3.329,3.3072,3.323,3.3396,3.3326,3.2867,3.2797,3.224,3.0931,2.9688,2.8724,2.8049,2.7385,2.6729,2.6085,2.4209,2.2429,2.0802,0.0,0.0,0.0,0.0,0.0,0.0,0.0,0.0,0.0,0.0,0.0,0.0,0.0,0.0,0.0,0.0,0.0,0.0,0.0,0.0,0.0,3.0238,3.1612,3.1799,3.3028,3.4341,3.5498,3.5647,3.6013,3.6973,3.7199,3.766,3.8553,3.9026,3.9239,3.9208,3.9359,3.9677,4.023,4.034,4.0688,4.1275,4.138,4.1274,4.0956,4.0956,4.0984,4.1031,4.1031,4.1018,4.0956,4.0956,4.0956,4.0956,4.0956,4.0956,4.0959,4.0748,4.0658,4.0491,3.9742,3.9218,3.8811,3.8307,3.776,3.7248,3.7248,3.6862,3.6383,3.6383,3.6305,3.6195,3.6195,3.6022,3.5847,3.5847,3.5718,3.5539,3.5539,3.5537,3.5504,3.5504,3.5504,3.5504,3.5504,3.5484,3.5401,3.5235,3.4752,3.4436,3.4436,3.3922,3.3546,3.3546,3.3532,3.3622,3.3904,3.3905,3.3773,3.354,3.3016,3.2425,3.1704,3.0387,2.9338,2.8614,2.7802,2.6775,2.5541,2.4465,2.3665,0.0,0.0,0.0,0.0,0.0,0.0,0.0,0.0,0.0,0.0,0.0,0.0,0.0,0.0,0.0,0.0,0.0,0.0,0.0,0.0,0.0,0.0,3.2255,3.3777,3.4168,3.5015,3.5903,3.6669,3.6857,3.7173,3.7748,3.8068,3.8489,3.8991,3.9361,3.9514,3.9449,3.9534,3.9792,4.0194,4.0473,4.0848,4.1339,4.1584,4.1601,4.134,4.134,4.1445,4.162,4.162,4.162,4.162,4.162,4.162,4.1624,4.1345,4.1221,4.1181,0.0,0.0,0.0,0.0,3.8872,3.8262,3.8147,3.7821,3.742,3.742,3.7096,3.6682,3.641,3.6269,3.6159,3.5888,3.5701,3.5621,3.5621,3.5554,3.5504,3.5504,3.5504,3.5504,3.5504,3.5504,3.5504,3.5504,3.5504,0.0,3.5504,3.5175,3.4906,3.4906,3.4577,3.4337,3.4337,3.4207,3.4242,3.4516,3.4448,3.4282,3.4111,3.3624,0.0,0.0,0.0,2.9655,2.8546,2.7909,0.0,0.0,0.0,0.0,0.0,2.495,0.0,0.0,2.2638,2.3349,0.0,0.0,0.0,0.0,0.0,0.0,0.0,0.0,0.0,0.0,0.0,0.0,0.0,0.0,0.0,0.0,3.3778,3.5425,3.5973,3.6724,3.7179,3.711,3.7854,3.8324,3.8231,3.8636,3.8862,3.8764,3.9331,3.968,3.9637,4.0171,0.0,0.0,0.0,4.1469,4.1469,4.2067,4.2374,4.2374,4.2374,4.2374,4.2374,4.2374,4.2374,4.2374,4.2374,4.2374,4.2312,4.1715,4.1469,4.1464,4.1047,4.082,4.055,3.9627,3.869,3.7899,3.7899,0.0,0.0,3.7524,3.7464,3.73,3.6746,3.6596,3.6477,3.5878,3.5714,3.5714,3.5639,3.5609,3.5594,3.5519,3.5504,3.5504,3.5504,3.5504,3.5504,3.5504,3.5504,3.5504,3.5504,3.5504,3.5504,3.5504,3.5504,3.5504,3.5504,3.5076,3.489,3.5093,3.5027,0.0,3.4714,3.4356,3.3469,3.1812,3.0968,2.9881,2.8383,2.8009,2.7817,2.7775,2.697,2.6533,2.6466,2.6867,2.7027,2.6893,2.5843,2.5926,0.0,0.0,0.0,0.0,0.0,0.0,0.0,0.0,0.0,0.0,0.0,0.0,0.0,0.0,0.0,3.4026,3.4914,3.5766,3.6939,3.7172,3.7297,3.7545,3.796,3.826,3.8359,3.8757,3.9001,3.9088,3.9458,3.994,4.0434,4.042,4.0663,4.1204,4.134,4.14,4.14,4.1535,4.1596,4.1596,4.1596,0.0,4.1596,4.1596,4.1596,4.1596,4.1596,4.1596,4.1581,4.146,4.14,4.1354,4.0619,4.0181,3.9879,3.9672,3.939,3.9071,3.9071,3.8697,3.8197,3.8197,3.7838,3.7389,3.727,3.724,0.0,3.7075,3.7045,3.6926,3.6432,3.6297,3.6163,3.5624,3.5504,3.5504,3.5504,3.5504,3.5504,3.5504,3.5504,3.5504,3.5504,3.5504,3.5504,3.5504,3.5504,3.5504,3.5504,3.54,3.5456,3.5776,3.5508,3.5467,3.5922,3.4681,3.3806,3.3657,3.1813,3.0419,2.9663,2.9009,2.8542,2.828,2.8606,2.8743,2.8693,2.9183,2.9429,2.9373,2.8157,2.7909,0.0,0.0,0.0,0.0,0.0,0.0,0.0,0.0,0.0,0.0,0.0,2.9858,3.1415,0.0,3.3696,3.5212,3.5799,3.6371,3.7261,3.7701,3.794,3.7933,3.8235,3.8478,3.8549,3.8946,3.935,3.9788,3.9977,4.0334,4.0995,4.0965,4.104,4.1407,4.1737,4.1916,4.1916,4.2192,4.2357,4.2357,4.2357,4.2357,4.2357,4.2357,4.2357,4.2357,4.2357,4.2357,4.2342,4.1998,4.1707,4.1347,4.0969,4.0501,4.0004,3.9673,3.9481,3.9388,3.9388,3.9185,3.8901,3.8901,3.8676,3.8347,3.8003,3.7898,3.7823,3.7494,3.7404,3.7345,3.703,3.6941,3.6866,3.6537,3.6222,3.5998,3.5998,3.5744,3.5504,3.5504,3.5504,3.5504,3.5504,3.5504,3.5504,3.5504,3.5504,3.5504,3.5504,3.5504,3.5587,3.5831,3.5764,3.5738,3.585,3.4254,3.3293,3.3449,3.1693,3.0532,3.0261,2.976,2.9416,2.924,2.9475,2.9581,2.9533,3.0386,3.0815,3.0815,3.0827,3.0646,0.0,0.0,0.0,0.0,0.0,0.0,0.0,2.9072,3.0041,2.9982,3.1168,3.238,3.2915,3.3867,3.4912,3.5894,3.6504,3.7,3.7509,3.8236,3.8655,3.8519,3.8773,3.8933,3.8898,3.9358,3.9865,4.0352,4.0516,4.0876,4.1572,4.1564,4.1624,4.1758,4.2267,4.259,4.259,4.3075,4.329,4.329,4.329,4.329,4.329,4.329,4.329,4.329,4.329,4.329,4.3245,4.2776,4.2276,4.1743,4.1662,4.125,4.0711,4.0053,3.9798,3.9783,3.9649,3.9568,3.9553,3.9454,3.9388,3.932,3.8751,3.8586,3.8482,3.7943,3.7793,3.7764,3.7644,3.7599,3.7569,3.7434,3.703,3.6671,3.6671,3.6148,3.5699,3.5699,3.5594,3.5504,3.5504,3.5504,3.5504,3.5504,3.5504,3.5504,3.5504,3.5504,3.5554,3.5688,3.5863,3.5794,3.5401,3.4065,3.3168,3.3017,3.1875,3.1182,3.1113,3.0899,3.0806,3.0779,3.0618,3.0524,3.0524,3.1433,3.1884,3.1914,3.3006,3.2976,2.7133,2.8263,2.9142,2.8494,2.908,2.999,0.0,3.0773,3.1148,3.2695,3.3,3.3381,3.4667,3.526,3.578,3.6486,3.7015,3.7558,3.8182,3.8537,3.8898,3.9481,3.9723,3.9768,3.9611,4.0179,4.0491,4.0397,4.0935,4.1587,4.2246,4.2291,4.2521,4.305,4.314,4.3185,4.3185,4.326,4.329,4.329,4.329,4.329,4.329,4.329,4.329,4.329,4.329,4.329,4.329,4.3215,4.314,4.3021,4.2515,4.2246,4.2111,4.1399,4.116,4.107,4.0487,4.0292,4.0187,3.9604,3.9388,3.9373,3.9334,3.9305,3.9254,3.9179,3.92,3.905,3.8437,3.8287,3.8138,3.7539,3.736,3.73,3.73,3.6821,3.6372,3.6372,3.5908,3.5504,3.5504,3.5504,3.5504,3.5504,3.5504,3.5504,3.5504,3.5504,3.5554,3.5688,3.572,3.559,3.5232,3.5139,3.48,3.407,3.3872,3.3663,3.3351,3.3291,3.3246,3.3111,3.3096,3.3096,3.3096,3.32,3.3275,3.3275,3.3425,3.344,2.9267,3.0055,3.0614,3.0716,3.132,3.2036,3.2505,3.3001,3.3512,3.4089,3.444,3.4909,3.5797,3.6075,3.6502,3.7522,3.7828,3.8212,3.8901,3.9254,3.9571,3.9844,4.0121,4.0121,3.9753,4.032,4.0768,4.0973,4.1617,4.2276,4.2895,4.2925,4.3045,4.329,4.329,4.329,4.329,4.329,4.329,4.329,4.329,4.329,4.329,4.329,4.329,4.329,4.329,4.329,4.329,4.329,4.329,4.326,4.303,4.2925,4.2806,4.1773,4.1422,4.1339,4.107,4.0965,4.0861,4.0202,3.9993,3.9918,3.9529,3.9388,3.9388,3.9388,3.9388,3.9349,3.9065,3.899,3.8916,3.8646,3.8272,3.7973,3.7973,3.7479,3.6911,3.6552,3.6267,3.5953,3.5564,3.5504,3.5504,3.5504,3.5504,3.5504,3.5504,3.5504,3.5537,3.5572,3.5572,3.5531,3.5403,3.5074,3.4711,3.4408,3.403,3.3743,3.3576,3.3576,3.3546,3.3499,3.3499,3.3499,3.3499,3.3873,3.4068,3.4099,3.4472,3.4666,3.0647,3.1513,3.2227,3.2557,3.3191,3.3787,3.4001,3.4619,3.5109,3.4963,3.529,3.5771,3.6151,3.6507,3.7045,3.7958,3.8422,3.8856,3.9313,3.9711,3.9925,3.9925,4.0191,4.0191,3.9753,4.0356,4.0962,4.1377,4.2036,4.2641,4.326,4.329,4.329,4.329,4.329,4.3379,4.3559,4.3559,4.3648,4.3828,4.3828,4.3828,4.3828,4.3648,4.3559,4.3559,4.3364,4.329,4.329,4.329,4.329,4.329,4.329,4.329,4.3185,4.2267,4.1923,4.1893,4.1713,4.1692,4.1587,4.0891,4.0666,4.0546,3.9888,3.9694,3.9649,3.9433,3.9388,3.9388,3.9388,3.9388,3.9388,3.9388,3.9035,3.8676,3.8676,3.8153,3.7554,3.7105,3.6866,3.6537,3.5893,3.5774,3.5714,3.5534,3.5504,3.5504,3.5504,3.5504,3.5504,3.5504,3.5504,3.5504,3.5504,3.504,3.4788,3.4788,3.4307,3.4053,3.4053,3.4053,3.4053,3.4053,3.4053,3.4053,3.4053,3.4532,3.4788,3.4771,3.5265,3.5504,3.0769,3.2799,3.4613,3.3912,3.4569,3.5307,3.5169,3.5095,3.5107,3.5404,3.5489,3.5504,3.5534,3.6552,3.7404,3.7434,3.8527,3.9394,3.9388,3.9589,3.9717,3.9717,3.9889,3.9925,3.9732,4.048,4.1088,4.1362,4.2036,4.2641,4.326,4.329,4.329,4.329,4.329,4.3604,4.4272,4.4287,4.4601,4.5229,4.5229,4.5229,4.5214,4.4571,4.4287,4.4242,4.3574,4.329,4.329,4.329,4.329,4.329,4.329,4.329,4.329,4.3245,4.323,4.314,4.259,4.2366,4.2261,4.1602,4.1354,4.1235,4.0561,4.0367,4.0232,3.9568,3.9388,3.9388,3.9388,3.9388,3.9388,3.9388,3.9373,3.9394,3.9394,3.8841,3.8347,3.8332,3.7823,3.718,3.6567,3.6462,3.6237,3.5609,3.5504,3.5504,3.5504,3.5504,3.5504,3.5504,3.5504,3.5504,3.5504,3.5489,3.5474,3.5474,3.5459,3.5444,3.5444,3.5444,3.5444,3.5444,3.5444,3.5444,3.5444,3.5459,3.5474,3.5474,3.5489,3.5504,3.2968,3.4081,3.4931,3.5892,3.5987,3.5911,3.603,3.5859,3.5669,3.564,3.5718,3.598,3.6401,3.674,3.7229,3.8116,3.8522,3.8901,3.9349,3.9589,3.9681,3.9681,3.9889,3.9925,3.9732,4.0372,4.0962,4.1362,4.2036,4.2641,4.326,4.329,4.329,4.329,4.3723,4.4092,4.4317,4.4751,4.508,4.5289,4.5289,4.5289,4.5289,4.5065,4.496,4.493,4.4272,4.3947,4.3943,4.3469,4.329,4.329,4.329,4.329,4.329,4.329,4.329,4.326,4.309,4.3015,4.2895,4.2291,4.2066,4.1946,4.1287,4.0741,4.0352,4.0127,3.9753,3.9388,3.9388,3.9388,3.9388,3.9388,3.9388,3.9388,3.9388,3.923,3.8931,3.8482,3.8212,3.7853,3.721,3.7105,3.6881,3.6252,3.5789,3.5504,3.5504,3.5504,3.5504,3.5504,3.5504,3.5504,3.5504,3.5504,3.5504,3.5504,3.5504,3.5504,3.5504,3.5504,3.5504,3.5504,3.5504,3.5504,3.5504,3.5504,3.5504,3.5504,3.5504,3.5504,3.4274,3.5456,3.6336,3.7702,3.761,3.7123,3.7126,3.6677,3.615,3.575,3.575,3.5827,3.6055,3.6275,3.6745,3.7813,3.8407,3.899,3.9664,4.0072,4.0332,4.0332,4.0405,4.0456,4.0332,4.0708,4.107,4.1392,4.2036,4.2746,4.3589,4.3648,4.3753,4.3992,4.4451,4.4781,4.4994,4.5454,4.5783,4.6007,4.6007,4.6007,4.6007,4.5768,4.5663,4.5618,4.496,4.4661,4.4616,4.3917,4.3648,4.3618,4.3379,4.329,4.329,4.329,4.329,4.329,4.329,4.329,4.323,4.2851,4.2701,4.2581,4.1961,4.1482,4.1055,4.0816,4.0277,3.9768,3.9768,3.9589,3.9388,3.9388,3.9388,3.9388,3.9388,3.9388,3.9254,3.8841,3.8751,3.8542,3.7868,3.7569,3.721,3.6582,3.6133,3.5774,3.5534,3.5504,3.5504,3.5504,3.5504,3.5504,3.5504,3.5504,3.5504,3.5504,3.5504,3.5504,3.5504,3.5504,3.5504,3.5504,3.5504,3.5504,3.5504,3.5504,3.5504,3.5504,3.5504,3.5504,3.4791,3.6886,3.8755,3.9327,3.924,3.8882,3.8367,3.7451,3.6475,3.5685,3.5427,3.5152,3.4475,3.5126,3.5953,3.6579,3.8122,3.9529,4.0292,4.0935,4.1339,4.1422,4.1422,4.1422,4.1422,4.1482,4.1489,4.1489,4.2096,4.301,4.4242,4.4347,4.4646,4.5274,4.5334,4.5663,4.6264,4.6309,4.6696,4.7309,4.7309,4.7309,4.7279,4.6651,4.6324,4.6294,4.5648,4.5349,4.5289,4.4631,4.4362,4.4302,4.3604,4.3349,4.3349,4.3305,4.329,4.329,4.329,4.329,4.329,4.329,4.329,4.317,4.2635,4.2425,4.2276,4.1647,4.095,4.0442,4.0442,3.9963,3.9433,3.9433,3.9403,3.9388,3.9388,3.9388,3.9388,3.9388,3.9388,3.9215,3.8556,3.7898,3.727,3.6671,3.6552,3.6282,3.5594,3.5504,3.5504,3.5504,3.5504,3.5504,3.5504,3.5504,3.5504,3.5504,3.5504,3.5504,3.5504,3.5504,3.5504,3.5504,3.5504,3.5504,3.5504,3.5504,3.5504,3.5504,3.5504,3.5504,3.6375,3.7867,3.9153,4.0,3.9685,3.8932,3.8037,3.7209,3.624,3.4842,3.4616,3.4423,3.3642,3.3756,3.4469,3.599,3.68,3.7973,4.0098,4.0546,4.0831,4.1324,4.1422,4.1422,4.1422,4.2267,4.2836,4.2836,4.2985,4.3449,4.4272,4.4781,4.5125,4.5289,4.5798,4.6142,4.6279,4.6815,4.713,4.7309,4.7309,4.7309,4.7294,4.713,4.7055,4.7025,4.6352,4.6067,4.6007,4.5319,4.505,4.4975,4.4332,4.4062,4.3962,4.3469,4.329,4.329,4.329,4.329,4.329,4.329,4.329,4.326,4.3135,4.2746,4.2366,4.2186,4.1677,4.113,4.113,4.0651,4.0157,4.0157,3.9768,3.9388,3.9388,3.9388,3.9388,3.9388,3.9388,3.9364,3.9185,3.8586,3.8078,3.7928,3.7479,3.6776,3.5654,3.5504,3.5504,3.5504,3.5504,3.5504,3.5504,3.5504,3.5504,3.5504,3.5504,3.5504,3.5504,3.5504,3.5504,3.5504,3.5504,3.5504,3.5504,3.5504,3.5504,3.5504,3.5504,3.5504,3.723,3.8694,3.9996,4.0628,4.0027,3.8979,3.7821,3.6497,3.5107,3.3707,3.3136,3.2684,3.2167,3.2379,3.3195,3.4942,3.6252,3.7822,4.0068,4.0905,4.1504,4.2162,4.2491,4.2671,4.2671,4.3599,4.4197,4.4197,4.4197,4.4481,4.5113,4.5544,4.5873,4.6172,4.6546,4.6756,4.6756,4.7115,4.7309,4.7309,4.7309,4.7309,4.7309,4.7309,4.7309,4.7279,4.692,4.6756,4.6711,4.6022,4.5738,4.5678,4.5005,4.4571,4.4272,4.3898,4.3544,4.329,4.329,4.329,4.329,4.329,4.329,4.329,4.329,4.3075,4.2776,4.2776,4.2312,4.1856,4.1856,4.1324,4.0831,4.0831,4.0337,3.9843,3.9843,3.9634,3.9388,3.9388,3.9388,3.9388,3.9388,3.9095,3.8736,3.8437,3.8078,3.7479,3.6462,3.6103,3.5833,3.5534,3.5504,3.5504,3.5504,3.5504,3.5504,3.5504,3.5504,3.5504,3.5504,3.5504,3.5504,3.5504,3.5504,3.5504,3.5504,3.5504,3.5504,3.5504,3.5504,3.5504,3.7636,3.9313,4.0865,4.0991,4.0226,3.9052,3.7611,3.5633,3.3673,3.2305,3.1295,3.0583,3.0171,3.0838,3.196,3.3502,3.579,3.8004,3.988,4.1392,4.2506,4.32,4.3873,4.4347,4.4436,4.505,4.5424,4.5424,4.5514,4.5783,4.6249,4.6369,4.6711,4.7294,4.7309,4.7309,4.7309,4.7309,4.7309,4.7309,4.7309,4.7309,4.7309,4.7309,4.7309,4.7309,4.7309,4.7309,4.7249,4.6696,4.6414,4.6396,4.5693,4.508,4.4556,4.4392,4.3917,4.3409,4.3319,4.329,4.329,4.329,4.329,4.329,4.329,4.329,4.329,4.329,4.2925,4.253,4.253,4.2036,4.1504,4.1504,4.101,4.0531,4.0531,4.0008,3.9493,3.9439,3.9388,3.9388,3.9388,3.9388,3.9215,3.8616,3.8527,3.8287,3.7629,3.7,3.6387,3.5818,3.5684,3.5639,3.5639,3.5549,3.5504,3.5504,3.5504,3.5504,3.5504,3.5504,3.5504,3.5504,3.5504,3.5504,3.5504,3.5504,3.5504,3.5504,3.5504,3.5504,3.7931,3.9475,4.0976,4.0688,4.0089,3.9052,3.7181,3.5276,3.3193,3.0568,2.9819,2.9231,2.7793,2.8714,3.0162,3.1781,3.3934,3.6222,3.8567,4.0441,4.1998,4.3155,4.3873,4.4526,4.5065,4.5738,4.6142,4.6142,4.6651,4.677,4.6309,4.6845,4.7189,4.7309,4.7309,4.7309,4.7309,4.7309,4.7309,4.7309,4.7309,4.7309,4.7309,4.7309,4.7309,4.7309,4.7309,4.7309,4.7294,4.7174,4.713,4.707,4.6411,4.6082,4.5843,4.4721,4.4242,4.4062,4.3484,4.329,4.329,4.329,4.329,4.329,4.329,4.329,4.329,4.329,4.32,4.3125,4.3125,4.2686,4.2231,4.2231,4.1722,4.1205,4.1205,4.0696,4.0068,3.9493,3.9388,3.9388,3.9388,3.9388,3.9379,3.926,3.9245,3.899,3.8302,3.7644,3.721,3.709,3.6626,3.6312,3.6312,3.5818,3.5504,3.5504,3.5504,3.5504,3.5504,3.5504,3.5504,3.5504,3.5504,3.5504,3.5504,3.5504,3.5504,3.5504,3.5504,3.5504,3.8144,3.9526,4.0821,4.0229,3.9528,3.8295,3.5769,3.3443,3.1098,2.8565,2.737,2.6726,2.6519,2.7547,2.9048,3.097,3.3193,3.5522,3.7899,3.982,4.155,4.3135,4.4212,4.508,4.5768,4.6441,4.683,4.683,4.713,4.7174,4.686,4.713,4.7309,4.7309,4.7309,4.7309,4.7309,4.7309,4.7309,4.7309,4.7309,4.7309,4.7309,4.7309,4.7309,4.7309,4.7309,4.7309,4.7309,4.7309,4.7309,4.7279,4.6965,4.6636,4.6204,4.5562,4.4915,4.4272,4.3917,4.3574,4.329,4.329,4.329,4.329,4.329,4.329,4.329,4.329,4.329,4.329,4.329,4.3105,4.2865,4.2865,4.2372,4.1826,4.1497,4.113,4.0711,4.0053,3.9933,3.9828,3.9448,3.9388,3.9388,3.9388,3.9388,3.9269,3.8975,3.8646,3.8182,3.7479,3.715,3.6971,3.6971,3.6671,3.6357,3.6028,3.6013,3.5863,3.5519,3.5504,3.5504,3.5504,3.5504,3.5669,3.6013,3.6013,3.6178,3.6492,3.6492,3.6492,3.8233,3.936,4.0286,3.9834,3.8975,3.7492,3.4577,3.1846,2.9267,2.6945,2.5359,2.4659,2.5526,2.6566,2.8022,3.0157,3.2429,3.4675,3.6845,3.8998,4.104,4.2895,4.4407,4.5618,4.6456,4.6995,4.7309,4.7309,4.7309,4.7309,4.7309,4.7309,4.7309,4.7309,4.7309,4.7309,4.7309,4.7309,4.7309,4.7309,4.7309,4.7309,4.7309,4.7309,4.7309,4.7309,4.7309,4.7309,4.7309,4.7309,4.7309,4.7309,4.7309,4.6995,4.6516,4.6324,4.5648,4.4721,4.4571,4.4092,4.3499,4.3499,4.3409,4.329,4.329,4.329,4.329,4.329,4.329,4.329,4.329,4.329,4.329,4.329,4.294,4.2425,4.1767,4.1632,4.1437,4.0741,4.0606,4.0397,3.9738,3.9634,3.9589,3.9403,3.9388,3.9388,3.9388,3.9388,3.902,3.7958,3.7704,3.7614,3.7614,3.7494,3.721,3.6716,3.6686,3.6447,3.5938,3.5908,3.5908,3.5908,3.5908,3.6163,3.6686,3.6686,3.6941,3.7404,3.7404,3.7404,3.8169,3.8829,3.9264,3.9612,3.8779,3.715,3.4508,3.193,2.9261,2.6302,2.5005,2.4388,2.4377,2.5307,2.6686,2.8608,3.0686,3.2645,3.4404,3.7528,4.0401,4.2261,4.4137,4.5798,4.7085,4.7264,4.7309,4.7309,4.7309,4.7309,4.7309,4.7309,4.7309,4.7309,4.7309,4.7309,4.7309,4.7309,4.7309,4.7309,4.7309,4.7309,4.7309,4.7309,4.7309,4.7309,4.7309,4.7309,4.7309,4.7309,4.7309,4.7309,4.7309,4.7264,4.7145,4.6503,4.6204,4.601,4.5424,4.4781,4.4227,4.4227,4.3783,4.329,4.329,4.329,4.329,4.329,4.329,4.329,4.329,4.329,4.329,4.329,4.3245,4.306,4.2455,4.2306,4.2111,4.1452,4.1294,4.1085,4.0427,4.0307,4.0113,3.9514,3.9388,3.9388,3.9388,3.9388,3.9328,3.9245,3.8676,3.8302,3.8302,3.7749,3.7389,3.733,3.733,3.73,3.724,3.724,3.724,3.724,3.724,3.727,3.733,3.733,3.736,3.7404,3.7404,3.7404,3.7576,3.8623,3.9454,3.9604,3.8774,3.7133,3.4157,3.1365,2.8569,2.5558,2.3971,2.3371,2.417,2.498,2.6298,2.8621,3.05,3.2368,3.4377,3.6992,3.9506,4.1663,4.3189,4.4796,4.6546,4.6711,4.6875,4.7279,4.7309,4.7309,4.7309,4.7309,4.7309,4.7309,4.7309,4.7309,4.7309,4.7309,4.7309,4.7309,4.7309,4.7309,4.7309,4.7309,4.7309,4.7309,4.7309,4.7309,4.7309,4.7309,4.7309,4.7309,4.7309,4.7309,4.7279,4.701,4.6666,4.6249,4.6007,4.5469,4.484,4.4436,4.4137,4.3813,4.3409,4.329,4.329,4.329,4.329,4.329,4.329,4.329,4.329,4.329,4.329,4.3215,4.3,4.294,4.2761,4.2126,4.2006,4.1796,4.11,4.0995,4.0905,4.0636,4.0262,4.0008,4.0008,3.9664,3.9388,3.9388,3.917,3.9005,3.9005,3.8766,3.8437,3.8018,3.8003,3.7823,3.7419,3.7404,3.7404,3.7404,3.7404,3.7599,3.8003,3.8003,3.8212,3.8616,3.8616,3.8616,3.6718,3.7852,3.8787,3.9032,3.812,3.6422,3.3532,3.067,2.7859,2.5066,2.3509,2.2992,2.4212,2.4942,2.6164,2.859,3.0195,3.1861,3.4058,3.64,3.8732,4.1038,4.2494,4.4082,4.6085,4.6501,4.68,4.7264,4.7309,4.7309,4.7309,4.7309,4.7309,4.7309,4.7309,4.7309,4.7309,4.7309,4.7309,4.7309,4.7309,4.7309,4.7309,4.7309,4.7309,4.7309,4.7309,4.7309,4.7309,4.7309,4.7309,4.7309,4.7309,4.7309,4.7309,4.7309,4.701,4.6621,4.6621,4.6172,4.5529,4.5065,4.4631,4.4227,4.3723,4.3454,4.329,4.329,4.329,4.329,4.329,4.329,4.329,4.329,4.329,4.329,4.329,4.329,4.3155,4.2746,4.2656,4.2447,4.1826,4.1707,4.1647,4.1452,4.0995,4.0696,4.0696,4.0113,3.9709,3.9709,3.9529,3.9388,3.9388,3.9388,3.9215,3.8721,3.8691,3.8482,3.8018,3.8003,3.8003,3.8003,3.8003,3.8227,3.8691,3.8691,3.8945,3.9388,3.9388,3.9373,3.5576,3.6254,3.6662,3.7672,3.6564,3.4676,3.2601,2.9875,2.7181,2.4965,2.3915,2.3613,2.4355,2.5055,2.6151,2.8179,2.9297,3.0686,3.2819,3.5561,3.8132,4.0359,4.2209,4.4082,4.6085,4.692,4.7294,4.7309,4.7309,4.7309,4.7309,4.7309,4.7309,4.7309,4.7309,4.7309,4.7309,4.7309,4.7309,4.7309,4.7309,4.7309,4.7309,4.7309,4.7309,4.7309,4.7309,4.7309,4.7309,4.7309,4.7309,4.7309,4.7309,4.7309,4.7309,4.7309,4.7309,4.7294,4.7294,4.686,4.6264,4.6264,4.5394,4.4317,4.4302,4.3813,4.329,4.329,4.329,4.329,4.329,4.329,4.329,4.329,4.329,4.329,4.329,4.329,4.329,4.329,4.329,4.312,4.25,4.2396,4.2171,4.1512,4.1369,4.1407,4.1407,4.0786,4.0382,4.0382,3.9813,3.9388,3.9388,3.9388,3.9388,3.9373,3.9373,3.9373,3.9394,3.9394,3.9394,3.9394,3.9394,3.9373,3.9373,3.9373,3.9373,3.9388,3.9388,3.9301,3.3414,3.456,3.553,3.5933,3.4931,3.3407,3.1834,2.9175,2.6556,2.4846,2.3915,2.3628,2.4355,2.5085,2.6269,2.8365,2.9489,3.0933,3.3313,3.5493,3.7688,4.0036,4.2889,4.493,4.5559,4.6636,4.7309,4.7309,4.7309,4.7309,4.7309,4.7309,4.7309,4.7309,4.7309,4.7309,4.7309,4.7309,4.7309,4.7309,4.7309,4.7309,4.7309,4.7309,4.7309,4.7309,4.7309,4.7309,4.7309,4.7309,4.7309,4.7309,4.7309,4.7309,4.7309,4.7309,4.7309,4.7309,4.7309,4.7174,4.692,4.6429,4.5995,4.5603,4.5125,4.4212,4.329,4.329,4.329,4.329,4.329,4.329,4.329,4.329,4.329,4.329,4.329,4.329,4.329,4.329,4.329,4.323,4.306,4.303,4.2955,4.2746,4.2342,4.2096,4.2096,4.1512,4.107,4.107,4.0876,4.0397,3.9499,3.9388,3.9388,3.9388,3.9388,3.9388,3.9388,3.9388,3.9388,3.9388,3.9388,3.9388,3.9388,3.9388,3.9337,3.9177,3.9177,3.9232,3.0937,3.2355,3.3539,3.3627,3.2841,3.1665,3.0241,2.8027,2.5862,2.4389,2.3949,2.3966,2.4406,2.5558,2.7012,2.8839,3.0236,3.1906,3.4217,3.6218,3.8415,4.1067,4.3933,4.5678,4.5678,4.6666,4.7309,4.7309,4.7309,4.7309,4.7309,4.7309,4.7309,4.7309,4.7309,4.7309,4.7309,4.7309,4.7309,4.7309,4.7309,4.7309,4.7309,4.7309,4.7309,4.7309,4.7309,4.7309,0.0,4.7309,4.7309,4.7309,4.7309,4.7309,4.7309,4.7309,4.7309,4.7309,4.7309,4.7309,4.7234,4.683,4.6531,4.6145,4.5499,4.4721,4.4018,4.3738,4.3663,4.3604,4.3364,4.329,4.329,4.329,4.329,4.329,4.329,4.329,4.329,4.329,4.329,4.329,4.329,4.329,4.329,4.329,4.2985,4.2731,4.2731,4.2201,4.1796,4.1796,4.1572,4.1055,4.0232,3.9933,3.9694,3.9439,3.9388,3.9388,3.9388,3.9388,3.9388,3.9388,3.9388,3.9508,3.9783,3.9979,3.9899,3.9571,3.9496,3.9399,0.0,2.9788,3.0898,3.0965,3.0444,2.9548,2.806,2.6573,0.0,2.3765,2.4017,2.4525,2.4643,2.6404,2.8293,2.9566,3.1381,3.3352,3.5336,3.7588,4.0082,4.2959,4.5068,4.6279,4.6279,4.692,4.7309,4.7309,4.7309,4.7309,4.7309,4.7309,4.7309,4.7309,4.7309,4.7309,4.7309,4.7309,4.7309,4.7309,4.7309,4.7309,4.7309,4.7309,4.7309,4.7309,4.7309,4.7309,4.7309,4.7309,4.7309,4.7309,4.7309,4.7309,4.7309,4.7309,4.7309,4.7309,4.7309,4.7309,4.7309,4.7309,4.689,4.6277,4.5633,4.5364,4.517,4.4556,4.4392,4.4242,4.3589,4.3424,4.3424,4.3379,4.3364,4.3349,4.3305,4.329,4.329,4.329,4.329,4.329,4.329,4.329,4.329,4.329,4.325,4.325,4.329,4.2806,4.247,4.247,4.1931,4.1542,4.1444,4.0846,4.0217,3.9568,3.9559,3.9559,3.9559,3.9559,3.9559,3.9559,3.9523,3.9822,4.0435,4.0835,4.0772,4.0315,4.001,3.9602,2.5964,0.0,2.8932,2.9439,2.896,2.8094,0.0,2.5812,2.466,2.4305,2.4372,2.4831,2.5899,2.7448,2.8973,3.0196,3.1946,3.3754,3.5508,3.8994,4.1852,4.3144,4.5068,4.6279,4.6279,4.692,4.7309,4.7309,4.7309,4.7309,4.7309,4.7309,4.7309,4.7309,4.7309,4.7309,4.7309,4.7309,4.7309,4.7309,4.7309,4.7309,4.7309,4.7309,4.7309,4.7309,4.7309,4.7309,4.7309,4.7309,4.7309,4.7309,4.7309,4.7309,4.7309,4.7309,4.7309,4.7309,4.7309,4.7309,4.7309,4.7309,4.7189,4.7055,4.6875,4.6112,4.5259,4.511,4.5065,4.5035,4.487,4.4825,4.4706,4.4212,4.4077,4.3902,4.3409,4.329,4.329,4.329,4.329,4.329,4.329,4.3155,4.3076,4.3076,4.2915,4.289,4.3036,4.2942,4.2932,4.3065,4.2931,4.2671,4.2216,4.1572,4.1085,4.0935,4.092,4.092,4.092,4.092,4.092,4.092,4.0785,4.067,4.0613,4.0398,3.9946,3.9387,3.9145,3.881,2.5076,2.6204,2.7298,2.7981,2.7708,2.7114,2.6353,2.5575,2.4914,2.4558,2.5032,2.5846,2.6909,2.8535,3.0192,3.161,3.3386,3.5476,3.8009,4.0931,4.3173,4.4118,4.5738,4.677,4.677,4.71,4.7309,4.7309,4.7309,4.7309,4.7309,4.7309,4.7309,4.7309,4.7309,4.7309,4.7309,4.7309,4.7309,4.7309,4.7309,4.7309,4.7309,4.7309,4.7309,4.7309,4.7309,4.7309,4.7309,4.7309,4.7309,4.7309,4.7309,4.7309,4.7309,4.7309,4.7309,4.7309,4.7309,4.7309,4.7309,4.7309,4.7309,4.7309,4.7309,4.68,4.6157,4.5858,4.5768,4.5693,4.5379,4.5289,4.5214,4.4855,4.4766,4.4661,4.4317,4.4227,4.4152,4.3838,4.3738,4.3648,4.3349,4.3115,4.2981,4.2981,4.285,4.2769,4.2981,4.2981,4.3076,4.329,4.329,4.3155,4.2836,4.2476,4.2028,4.1452,4.1422,4.1422,4.1422,4.1422,4.1346,4.127,4.1338,4.1136,4.0687,4.0547,4.0063,3.9312,3.8974,3.8537,2.4892,2.5579,2.6199,2.7093,2.7182,2.6877,2.6268,2.6031,2.5761,2.5134,2.6099,2.7282,2.8016,2.9828,3.1729,3.3233,3.5229,3.7698,4.0889,4.2735,4.4128,4.5196,4.6486,4.7309,4.7309,4.7309,4.7309,4.7309,4.7309,4.7309,4.7309,4.7309,4.7309,4.7309,4.7309,4.7309,4.7309,4.7309,4.7309,4.7309,4.7309,4.7309,4.7309,4.7309,4.7309,4.7309,4.7309,4.7309,4.7309,4.7309,4.7309,4.7309,4.7309,4.7309,4.7309,4.7309,4.7309,4.7309,4.7309,4.7309,4.7309,4.7309,4.7309,4.7309,4.7309,4.7309,4.7189,4.6636,4.6429,4.6337,4.5753,4.5603,4.5574,4.5484,4.5454,4.5424,4.5319,4.5289,4.5125,4.4571,4.4466,4.4287,4.3678,4.3413,4.3208,4.3119,4.2917,4.2806,4.289,4.2915,4.2955,4.313,4.317,4.321,4.317,4.317,4.2733,4.1643,4.1645,4.1683,4.163,4.163,4.153,4.1314,4.1558,4.1383,4.0691,4.0746,4.0258,3.9384,3.8908,3.8323,2.4958,2.5591,2.6373,2.8287,2.8708,2.862,2.8502,2.796,2.7435,2.7317,2.801,2.8969,2.9966,3.1845,3.3487,3.4214,3.6899,3.937,4.0781,4.2968,4.4669,4.5241,4.6486,4.7309,4.7309,4.7309,4.7309,4.7309,4.7309,4.7309,4.7309,4.7309,4.7309,4.7309,4.7309,4.7309,4.7309,4.7309,4.7309,4.7309,4.7309,4.7309,4.7309,4.7309,4.7309,4.7309,4.7309,4.7309,4.7309,4.7309,4.7309,4.7309,4.7309,4.7309,4.7309,4.7309,4.7309,4.7309,4.7309,4.7309,4.7309,4.7309,4.7309,4.7309,4.7309,4.7309,4.7279,4.7189,4.716,4.713,4.7025,4.6995,4.686,4.6292,4.6172,4.6007,4.5424,4.5289,4.5274,4.517,4.5155,4.511,4.5005,4.4659,4.4175,4.367,4.3224,4.2852,4.2532,4.2514,4.2514,4.2541,4.2703,4.2729,4.2541,4.2688,4.2655,4.2276,4.2728,4.2951,4.2778,4.2763,4.2594,4.2221,4.1886,4.1377,4.0675,3.994,3.9145,3.8381,3.7939,3.7433,2.4842,2.5831,2.7057,2.9117,2.9621,2.9702,3.011,3.0209,3.0226,3.0226,3.1157,3.2208,3.2949,3.4336,3.5824,3.7198,3.8685,4.0279,4.2115,4.3566,4.4788,4.5723,4.6711,4.7309,4.7309,4.7309,4.7309,4.7309,4.7309,4.7309,4.7309,4.7309,4.7309,4.7309,4.7309,4.7309,4.7309,4.7309,4.7309,4.7309,4.7309,4.7309,4.7309,4.7309,4.7309,4.7309,4.7309,4.7309,4.7309,4.7309,4.7309,4.7309,4.7309,4.7309,4.7309,4.7309,4.7309,4.7309,4.7309,4.7309,4.7309,4.7309,4.7309,4.7309,4.7309,4.7309,4.7309,4.7309,4.7309,4.7309,4.7309,4.7309,4.7234,4.692,4.686,4.677,4.6456,4.6381,4.6277,4.5918,4.5858,4.5738,4.5364,4.504,4.4657,4.4263,4.3925,4.3583,4.3235,4.3065,4.298,4.298,4.2661,4.2402,4.229,4.2084,4.2087,4.2392,4.2511,4.2578,4.2441,4.2374,4.2102,4.1646,4.117,4.0517,3.9719,3.9056,3.8336,3.7618,3.7248,3.6875,2.4681,2.5983,2.7571,2.979,3.0497,3.0852,3.1765,3.2527,3.3139,3.3326,3.4544,3.5566,3.5676,3.6503,3.7794,3.9777,4.0224,4.1057,4.322,4.4098,4.4975,4.6145,4.6905,4.7309,4.7309,4.7309,4.7309,4.7309,4.7309,4.7309,4.7309,4.7309,4.7309,4.7309,4.7309,4.7309,4.7309,4.7309,4.7309,4.7309,4.7309,4.7309,4.7309,4.7309,4.7309,4.7309,4.7309,4.7309,4.7309,4.7309,4.7309,4.7309,4.7309,4.7309,4.7309,4.7309,4.7309,4.7309,4.7309,4.7309,4.7309,4.7309,4.7309,4.7309,4.7309,4.7309,4.7309,4.7309,4.7309,4.7309,4.7309,4.7309,4.7309,4.7309,4.7309,4.7309,4.7309,4.7309,4.716,4.6651,4.6503,4.6381,4.5858,4.56,4.5302,4.4912,4.4642,4.4383,4.3878,4.3589,4.3356,4.318,4.2563,4.2148,4.2104,4.1551,4.144,4.2008,4.1901,4.1784,4.1701,4.1506,4.117,4.0603,4.0215,3.9502,3.8626,3.8154,3.7683,3.722,3.6925,3.6799,2.4568,2.5843,2.7522,3.0398,3.165,3.2513,3.3952,3.4827,3.5588,3.6338,3.7635,3.8366,3.7336,3.7728,3.8748,4.0383,4.1163,4.1972,4.3174,4.4421,4.5499,4.619,4.6905,4.7309,4.7309,4.7309,4.7309,4.7309,4.7309,4.7309,4.7309,4.7309,4.7309,4.7309,4.7309,4.7309,4.7309,4.7309,4.7309,4.7309,4.7309,4.7309,4.7309,4.7309,4.7309,4.7309,4.7309,4.7309,4.7309,4.7309,4.7309,4.7309,4.7309,4.7309,4.7309,4.7309,4.7309,4.7309,4.7309,4.7309,4.7309,4.7309,4.7309,4.7309,4.7309,4.7309,4.7309,4.7309,4.7309,4.7309,4.7309,4.7309,4.7309,4.7309,4.7309,4.7309,4.7309,4.7309,4.7294,4.7249,4.7234,4.7219,4.7174,4.6928,4.6488,4.565,4.536,4.4851,4.3733,4.3399,4.2974,4.2244,4.2126,4.2008,4.1781,4.1256,4.0939,4.0985,4.1192,4.1184,4.0731,4.0688,4.0301,3.9428,3.9118,3.8626,3.79,3.742,3.7296,3.7569,3.7268,3.74,2.4514,2.5796,2.7403,2.989,3.2087,3.407,3.5594,3.6857,3.7939,3.87,4.002,4.0903,4.0426,4.0304,4.069,4.1987,4.2196,4.2803,4.4484,4.518,4.586,4.68,4.716,4.7309,4.7309,4.7309,4.7309,4.7309,4.7309,4.7309,4.7309,4.7309,4.7309,4.7309,4.7309,4.7309,4.7309,4.7309,4.7309,4.7309,4.7309,4.7309,4.7309,4.7309,4.7309,4.7309,4.7309,4.7309,4.7309,4.7309,4.7309,4.7309,4.7309,4.7309,4.7309,4.7309,4.7309,4.7309,4.7309,4.7309,4.7309,4.7309,4.7309,4.7309,4.7309,4.7309,4.7309,4.7309,4.7309,4.7309,4.7309,4.7309,4.7309,4.7309,4.7309,4.7309,4.7309,4.7309,4.7309,4.7309,4.7309,4.7309,4.7309,4.7207,4.6973,4.6488,4.6255,4.5874,4.5109,4.4529,4.3984,4.3371,4.2232,4.1275,4.0616,4.0388,4.0294,4.0294,4.0502,4.04,3.9852,3.9672,3.9226,3.84,3.8484,3.8264,3.7681,3.7849,3.7889,3.7848,3.775,3.7814,2.5032,2.6432,2.8081,3.0531,3.3017,3.5368,3.7388,3.8996,4.0324,4.1322,4.2277,4.2942,4.2973,4.2339,4.2093,4.3028,4.2994,4.3478,4.5339,4.5604,4.6033,4.7145,4.7309,4.7309,4.7309,4.7309,4.7309,4.7309,4.7309,4.7309,4.7309,4.7309,4.7309,4.7309,4.7309,4.7309,4.7309,4.7309,4.7309,4.7309,4.7309,4.7309,4.7309,4.7309,4.7309,4.7309,4.7309,4.7309,4.7309,4.7309,4.7309,4.7309,4.7309,4.7309,4.7309,4.7309,4.7309,4.7309,4.7309,4.7309,4.7309,4.7309,4.7309,4.7309,4.7309,4.7309,4.7309,4.7309,4.7309,4.7309,4.7309,4.7309,4.7309,4.7309,4.7309,4.7309,4.7309,4.7309,4.7309,4.7309,4.7309,4.7309,4.7309,4.7309,4.7207,4.6931,4.68,4.655,4.606,4.5413,4.4676,4.3832,4.2397,4.1174,4.0439,4.0241,4.0241,4.0241,4.0421,4.0269,3.9595,3.9441,3.901,3.8137,3.8325,3.821,3.7754,3.8072,3.8251,3.8278,3.8278,3.8366,2.6261,2.7877,2.9721,3.2662,3.4518,3.6394,3.9436,4.1264,4.2726,4.431,4.4457,4.4402,4.4646,4.351,4.2703,4.323,4.3474,4.4075,4.5399,4.5604,4.6033,4.7145,4.7309,4.7309,4.7309,4.7309,4.7309,4.7309,4.7309,4.7309,4.7309,4.7309,4.7309,4.7309,4.7309,4.7309,4.7309,4.7309,4.7309,4.7309,4.7309,4.7309,4.7309,4.7309,4.7309,4.7309,4.7309,4.7309,4.7309,4.7309,4.7309,4.7309,4.7309,4.7309,4.7309,4.7309,4.7309,4.7309,4.7309,4.7309,4.7309,4.7309,4.7309,4.7309,4.7309,4.7309,4.7309,4.7309,4.7309,4.7309,4.7309,4.7309,4.7309,4.7309,4.7309,4.7309,4.7309,4.7309,4.7309,4.7309,4.7309,4.7309,4.7309,4.7309,4.7207,4.6931,4.6916,4.6741,4.6254,4.5776,4.4894,4.3362,4.2555,4.1881,4.1361,4.1047,4.0883,4.0883,4.1172,4.0897,3.9934,4.0145,3.9812,3.8835,3.8787,3.8556,3.8015,3.8015,3.8316,3.8932,3.8932,3.917,2.6513,2.8319,3.0362,3.2797,3.5312,3.7872,4.0307,4.161,4.3014,4.5602,4.5992,4.5777,4.5509,4.4799,4.4268,4.4278,4.4111,4.4245,4.5035,4.5536,4.5992,4.6544,4.7025,4.7309,4.7309,4.7309,4.7309,4.7309,4.7309,4.7309,4.7309,4.7309,4.7309,4.7309,4.7309,4.7309,4.7309,4.7309,4.7309,4.7309,4.7309,4.7309,4.7309,4.7309,4.7309,4.7309,4.7309,4.7309,4.7309,4.7309,4.7309,4.7309,4.7309,4.7309,4.7309,4.7309,4.7309,4.7309,4.7309,4.7309,4.7309,4.7309,4.7309,4.7309,4.7309,4.7309,4.7309,4.7309,4.7309,4.7309,4.7309,4.7309,4.7309,4.7309,4.7309,4.7309,4.7309,4.7309,4.7309,4.7309,4.7309,4.7309,4.7309,4.7309,4.7266,4.7207,4.6902,4.6447,4.5776,4.5276,4.463,4.36,4.2652,4.1832,4.1097,4.111,4.1198,4.1172,4.2284,4.2156,4.0408,4.0368,3.9965,3.9113,3.9331,3.9352,3.9204,3.9398,3.9563,3.974,3.9548,3.9534,2.7776,2.9869,3.2029,3.4206,3.6772,3.9512,4.2354,4.3555,4.4756,4.7175,4.7292,4.677,4.6212,4.5652,4.5088,4.4567,4.4362,4.4416,4.4807,4.5148,4.563,4.6217,4.6681,4.7025,4.7279,4.7309,4.7309,4.7309,4.7309,4.7309,4.7309,4.7309,4.7309,4.7309,4.7309,4.7309,4.7309,4.7309,4.7309,4.7309,4.7309,4.7309,4.7309,4.7309,4.7309,4.7309,4.7309,4.7309,4.7309,4.7309,4.7309,4.7309,4.7309,4.7309,4.7309,4.7309,4.7309,4.7309,4.7309,4.7309,4.7309,4.7309,4.7309,4.7309,4.7309,4.7309,4.7309,4.7309,4.7309,4.7309,4.7309,4.7309,4.7309,4.7309,4.7309,4.7309,4.7309,4.7309,4.7309,4.7309,4.7309,4.7309,4.7309,4.7309,4.7309,4.7309,4.6902,4.6314,4.5595,4.5046,4.4476,4.3695,4.2811,4.1931,4.1134,4.1198,4.1298,4.1322,4.2541,4.2793,4.1634,4.1726,4.1394,4.0505,4.0481,4.0391,4.0192,4.0122,4.007,4.007,3.9839,3.9697,2.9624,3.1986,3.4215,3.6384,3.8674,4.1365,4.4976,4.6312,4.7208,4.8697,4.8276,4.7479,4.6813,4.6157,4.5394,4.4366,4.4434,4.4557,4.4523,4.4579,4.4995,4.5992,4.6204,4.6561,4.716,4.7264,4.7309,4.7309,4.7309,4.7309,4.7309,4.7309,4.7309,4.7309,4.7309,4.7309,4.7309,4.7309,4.7309,4.7309,4.7309,4.7309,4.7352,4.7309,4.7309,4.7309,4.7309,4.7309,4.7309,4.7309,4.7309,4.7309,4.7309,4.7309,4.7309,4.7309,4.7309,4.7309,4.7309,4.7309,4.7309,4.7309,4.7309,4.7309,4.7309,4.7309,4.7309,4.7309,4.7309,4.7309,4.7309,4.7309,4.7309,4.7309,4.7309,4.7309,4.7309,4.7309,4.7309,4.7309,4.7309,4.7309,4.7309,4.7309,4.7266,4.7222,4.6815,4.6269,4.5504,4.4926,4.4308,4.36,4.2873,4.2092,4.1322,4.1298,4.1298,4.1322,4.2373,4.308,4.3307,4.3757,4.3491,4.2466,4.2016,4.1498,4.0984,4.0427,4.0173,4.0134,3.9839,3.9697,3.0007,3.2539,3.5049,3.7205,4.0248,4.3386,4.5974,4.6684,4.7208,4.8697,4.8493,4.7962,4.7539,4.6617,4.5707,4.5086,4.4631,4.425,4.395,4.4308,4.4649,4.4706,4.5636,4.6339,4.6516,4.6995,4.7309,4.7309,4.7309,4.7309,4.7309,4.7309,4.7309,4.7309,4.7309,4.7309,4.7309,4.7309,4.7309,4.7309,4.7309,4.7381,4.7553,4.7381,4.7309,4.7309,4.7309,4.7309,4.7309,4.7309,4.7309,4.7309,4.7309,4.7309,4.7309,4.7309,4.7309,4.7309,4.7309,4.7309,4.7309,4.7309,4.7309,4.7309,4.7309,4.7309,4.7309,4.7309,4.7309,4.7309,4.7309,4.7309,4.7309,4.7309,4.7309,4.7309,4.7309,4.7309,4.7309,4.7309,4.7309,4.7309,4.7309,4.7309,4.7121,4.6535,4.6165,4.5656,4.4741,4.4167,4.36,4.3026,4.2324,4.1647,4.1034,4.1198,4.1298,4.1322,4.2639,4.3471,4.3519,4.3648,4.341,4.2811,4.2498,4.2043,4.1547,4.0984,4.0643,4.0389,3.9942,3.9697,2.9773,3.2596,3.5827,3.9299,4.179,4.3882,4.5838,4.6819,4.7547,4.8325,4.8344,4.8065,4.7621,4.6636,4.564,4.5024,4.4396,4.391,4.3557,4.3788,4.4078,4.4272,4.493,4.5577,4.6219,4.6636,4.6965,4.7279,4.7309,4.7309,4.7309,4.7309,4.7309,4.7309,4.7309,4.7309,4.7309,4.7309,4.7309,4.7309,4.7309,4.7424,4.7581,4.7639,4.7553,4.7424,4.7424,4.7381,4.7309,4.7309,4.7309,4.7309,4.7309,4.7309,4.7309,4.7309,4.7309,4.7309,4.7309,4.7309,4.7309,4.7309,4.7309,4.7309,4.7309,4.7309,4.7309,4.7309,4.7309,4.7309,4.7309,4.7309,4.7309,4.7309,4.7309,4.7309,4.7309,4.7309,4.7309,4.7309,4.7309,4.7309,4.7309,4.7309,4.7033,4.6299,4.6106,4.5642,4.4523,4.3423,4.2555,4.2128,4.1634,4.1147,4.0744,4.0858,4.0909,4.0933,4.1904,4.2541,4.2701,4.2929,4.3136,4.3245,4.2741,4.2253,4.1696,4.1047,4.0593,4.0287,3.989,3.9697,2.9398,3.2838,3.6818,4.1214,4.2857,4.3798,4.5365,4.665,4.7584,4.7838,4.8044,4.8033,4.7505,4.648,4.5458,4.4723,4.4104,4.3596,4.3329,4.329,4.3499,4.4077,4.4242,4.4751,4.5831,4.6082,4.6426,4.7085,4.713,4.7189,4.7294,4.7309,4.7309,4.7309,4.7309,4.7309,4.7309,4.7309,4.7309,4.7309,4.7381,4.751,4.7666,4.7964,4.7922,4.7581,4.7581,4.751,4.7309,4.7309,4.7309,4.7309,4.7309,4.7309,4.7309,4.7309,4.7309,4.7309,4.7309,4.7309,4.7309,4.7309,4.7309,4.7309,4.7309,4.7309,4.7309,4.7309,4.7309,4.7309,4.7309,4.7309,4.7309,4.7309,4.7309,4.7309,4.7309,4.7309,4.7309,4.7309,4.7309,4.7309,4.7309,4.7309,4.7033,4.6343,4.624,4.5732,4.4443,4.2701,4.1484,4.1161,4.0896,4.0681,4.0453,4.0453,4.0453,4.0453,4.0933,4.1322,4.1547,4.2016,4.259,4.3204,4.2728,4.2204,4.1647,4.0909,4.0389,4.007,3.9839,3.9697,2.9585,3.4117,3.8625,4.095,4.2485,4.3798,4.5365,4.5855,4.6363,4.7618,4.8044,4.8033,4.7505,4.648,4.5458,4.4723,4.4104,4.3596,4.3329,4.329,4.3319,4.3409,4.3932,4.4392,4.4571,4.5095,4.5723,4.6396,4.6414,4.6711,4.7279,4.7309,4.7309,4.7309,4.7309,4.7309,4.7309,4.7309,4.7309,4.7294,4.7724,4.7922,4.7964,4.8328,4.816,4.7581,4.7581,4.751,4.7309,4.7309,4.7309,4.7309,4.7309,4.7309,4.7309,4.7309,4.7309,4.7309,4.7309,4.7309,4.7309,4.7309,4.7309,4.7309,4.7309,4.7309,4.7309,4.7309,4.7309,4.7309,4.7309,4.7309,4.7309,4.7309,4.7309,4.7309,4.7309,4.7309,4.7309,4.7309,4.7309,4.7309,4.7309,4.7309,4.7062,4.6403,4.6047,4.5355,4.3885,4.2025,4.0706,4.0377,4.0275,4.0173,4.0185,4.0121,4.0121,4.0121,4.0681,4.0984,4.0984,4.1322,4.1521,4.1607,4.219,4.2105,4.1361,4.0997,4.058,4.007,3.9839,3.9697,2.9988,3.3527,3.6882,3.9628,4.1333,4.2654,4.4079,4.5094,4.5889,4.6549,4.6972,4.7291,4.7539,4.6636,4.5676,4.5061,4.4435,4.391,4.3557,4.3518,4.3463,4.3329,4.3544,4.3873,4.4272,4.4571,4.502,4.5693,4.5753,4.5873,4.6157,4.6546,4.6756,4.6756,4.7115,4.7309,4.7309,4.7309,4.7309,4.7294,4.7639,4.7794,4.7794,4.8118,4.8091,4.7837,4.7837,4.7639,4.7309,4.7309,4.7309,4.7309,4.7309,4.7309,4.7309,4.7309,4.7309,4.7309,4.7309,4.7309,4.7309,4.7309,4.7309,4.7309,4.7309,4.7309,4.7309,4.7309,4.7309,4.7309,4.7309,4.7309,4.7309,4.7309,4.7309,4.7309,4.7309,4.7309,4.7309,4.7309,4.7309,4.7309,4.7309,4.7309,4.7207,4.6916,4.6741,4.6016,4.4289,4.2311,4.0732,3.9981,4.0032,4.0032,3.989,3.989,3.989,3.989,4.0096,4.0249,4.0249,4.0478,4.063,4.063,4.1398,4.156,4.1097,4.0946,4.063,4.007,3.9981,3.9839,2.9647,3.2176,3.4625,3.7863,3.9737,4.1163,4.2523,4.4028,4.5179,4.5382,4.5857,4.6451,4.7205,4.6659,4.5936,4.5494,4.4933,4.4419,4.3988,4.3832,4.3675,4.3423,4.3329,4.3484,4.4018,4.4062,4.4332,4.5005,4.505,4.5125,4.5289,4.5783,4.6142,4.6279,4.68,4.713,4.7309,4.7309,4.7309,4.7309,4.751,4.7581,4.7639,4.788,4.7964,4.788,4.788,4.7681,4.7309,4.7309,4.7309,4.7309,4.7309,4.7309,4.7309,4.7309,4.7309,4.7309,4.7309,4.7309,4.7309,4.7309,4.7309,4.7309,4.7309,4.7309,4.7309,4.7309,4.7309,4.7309,4.7309,4.7309,4.7309,4.7309,4.7309,4.7309,4.7309,4.7309,4.7309,4.7309,4.7309,4.7309,4.7309,4.7309,4.7309,4.7309,4.7309,4.658,4.463,4.2811,4.1348,4.0338,4.0236,4.0083,3.9839,3.9736,3.9697,3.9697,3.9697,3.9697,3.9697,3.989,3.9981,3.9981,4.0694,4.101,4.0795,4.0883,4.063,4.007,4.007,3.9981,2.7888,3.0249,3.2979,3.5694,3.7803,3.9585,4.0993,4.2472,4.3758,4.4485,4.5098,4.5635,4.6257,4.63,4.6219,4.5996,4.5624,4.5163,4.4648,4.4205,4.391,4.369,4.3463,4.3305,4.3349,4.3349,4.3618,4.4317,4.4362,4.4631,4.5259,4.5334,4.5648,4.6264,4.6309,4.6681,4.7294,4.7309,4.7309,4.7309,4.751,4.7581,4.7639,4.788,4.788,4.7624,4.7624,4.751,4.7309,4.7309,4.7309,4.7309,4.7309,4.7309,4.7309,4.7309,4.7309,4.7309,4.7309,4.7309,4.7309,4.7309,4.7309,4.7309,4.7309,4.7309,4.7309,4.7309,4.7309,4.7309,4.7309,4.7309,4.7309,4.7309,4.7309,4.7309,4.7309,4.7309,4.7309,4.7309,4.7309,4.7309,4.7309,4.7309,4.7309,4.7309,4.7309,4.658,4.463,4.3451,4.2547,4.1796,4.0946,4.0351,4.007,3.9839,3.9697,3.9697,3.9697,3.9697,3.9697,3.9697,3.9749,3.9749,4.0249,4.0555,4.0504,4.0795,4.063,4.007,4.007,3.9981,2.664,2.8538,3.085,3.2975,3.5452,3.7814,3.9465,4.1036,4.2434,4.3572,4.399,4.4462,4.553,4.582,4.593,4.5984,4.5717,4.533,4.4952,4.4594,4.4205,4.3769,4.3463,4.329,4.329,4.329,4.3394,4.3618,4.3648,4.3738,4.4018,4.4436,4.4781,4.502,4.5831,4.6636,4.7294,4.7309,4.7309,4.7309,4.7381,4.7424,4.7424,4.751,4.751,4.7424,4.7424,4.7396,4.7309,4.7309,4.7309,4.7309,4.7309,4.7309,4.7309,4.7309,4.7309,4.7309,4.7309,4.7309,4.7309,4.7309,4.7309,4.7309,4.7309,4.7309,4.7309,4.7309,4.7309,4.7309,4.7309,4.7309,4.7309,4.7309,4.7309,4.7309,4.7309,4.7309,4.7309,4.7309,4.7309,4.7309,4.7309,4.7309,4.7309,4.7309,4.7309,4.6815,4.5518,4.4462,4.3444,4.2528,4.172,4.1047,4.0389,4.0134,3.989,3.9697,3.9697,3.9697,3.9697,3.9697,3.9697,3.9697,4.0044,4.0338,4.0504,4.0959,4.0896,4.0351,4.0351,4.0147,2.5644,2.7117,2.8945,3.0584,3.3184,3.5669,3.7035,3.8915,4.0645,4.1739,4.232,4.3078,4.4451,4.4834,4.5144,4.5879,4.5946,4.5731,4.5286,4.5022,4.4632,4.3988,4.3621,4.3384,4.329,4.329,4.329,4.329,4.329,4.329,4.329,4.3708,4.4092,4.4302,4.5577,4.6488,4.698,4.7189,4.7309,4.7309,4.7309,4.7309,4.7309,4.7309,4.7309,4.7309,4.7309,4.7309,4.7309,4.7309,4.7309,4.7309,4.7309,4.7309,4.7309,4.7309,4.7309,4.7309,4.7309,4.7309,4.7309,4.7309,4.7309,4.7309,4.7309,4.7251,4.7164,4.7164,4.7077,4.6946,4.7033,4.7121,4.7164,4.7164,4.7164,4.7164,4.7164,4.7251,4.7309,4.7309,4.7309,4.7309,4.7309,4.7309,4.7309,4.7309,4.7309,4.7077,4.6462,4.5461,4.4466,4.3416,4.259,4.1733,4.0946,4.0491,4.0134,3.9839,3.9736,3.9697,3.9697,3.9697,3.9697,3.9697,3.9981,4.0185,4.0351,4.0808,4.0808,4.0351,4.0351,4.0147,0.0,0.0,0.0,2.8661,3.1074,3.3235,3.3761,3.6079,3.8297,3.8945,4.0197,4.161,4.3054,4.3341,4.3945,4.5657,4.6296,4.6291,4.5588,4.5433,4.5132,4.4351,4.3934,4.3596,4.3329,4.329,4.329,4.329,4.329,4.329,4.329,4.329,4.3604,4.4287,4.5574,4.6249,4.6279,4.6965,4.7279,4.7309,4.7309,4.7309,4.7309,4.7309,4.7309,4.7309,4.7309,4.7309,4.7309,4.7309,4.7309,4.7309,4.7309,4.7309,4.7309,4.7309,4.7309,4.7309,4.7309,4.7309,4.7309,4.7309,4.7309,4.7309,4.7309,4.7121,4.6916,4.6873,4.6565,4.6254,4.6506,4.6712,4.6873,4.6887,4.6887,4.6887,4.6873,4.7062,4.7251,4.7251,4.7266,4.7309,4.7309,4.7309,4.7309,4.7309,4.7309,4.7309,4.7309,4.6506,4.5549,4.4555,4.3505,4.2555,4.1796,4.0997,4.0389,4.0134,3.9839,3.9697,3.9697,3.9697,3.9697,3.9697,3.9981,4.007,4.007,4.0351,4.0338,4.007,4.007,3.9929,2.6098,0.0,0.0,0.0,0.0,0.0,3.2991,3.4691,3.6405,3.7999,3.941,4.0688,4.1644,4.2252,4.2926,4.3951,4.4833,4.5311,4.5081,4.5053,4.476,4.4019,4.4052,4.3972,4.3636,4.3596,4.3518,4.329,4.329,4.329,4.329,4.329,4.3604,4.4287,4.4676,4.5334,4.6264,4.6459,4.683,4.7309,4.7309,4.7309,4.7309,4.7309,4.7309,4.7309,4.7309,4.7309,4.7309,4.7309,4.7309,4.7309,4.7309,4.7309,4.7309,4.7309,4.7309,4.7309,4.7309,4.7309,4.7309,4.7309,4.7309,4.7309,4.7309,4.7121,4.6887,4.6712,4.6299,4.5882,4.5821,4.5866,4.5941,4.6061,4.6106,4.6061,4.5896,4.5956,4.609,4.6447,4.6741,4.7019,4.7251,4.7309,4.7309,4.7309,4.7309,4.7309,4.7309,4.7077,4.655,4.5595,4.4555,4.3553,4.2604,4.1782,4.1097,4.0453,4.0134,3.989,3.9697,3.9697,3.9697,3.9697,3.9788,3.9788,3.9788,4.0249,4.0338,4.007,3.989,3.9788,0.0,0.0,0.0,2.8293,0.0,0.0,3.1213,3.268,3.4231,3.5527,3.7114,3.8631,3.9631,4.0679,4.161,4.2371,4.3183,4.3985,4.4682,4.4934,4.4713,4.3941,4.3883,4.3796,4.3647,4.347,4.3398,4.3448,4.3384,4.329,4.329,4.329,4.3469,4.3858,4.4167,4.4691,4.5484,4.5995,4.6516,4.6905,4.7174,4.7309,4.7309,4.7309,4.7309,4.7309,4.7309,4.7309,4.7309,4.7309,4.7309,4.7309,4.7309,4.7309,4.7309,4.7309,4.7309,4.7309,4.7309,4.7309,4.7309,4.7309,4.7309,4.7309,4.7309,4.7033,4.6712,4.6358,4.5702,4.4957,4.4648,4.4773,4.5049,4.5173,4.5173,4.5127,4.5003,4.468,4.4666,4.5551,4.5912,4.6284,4.6902,4.699,4.7077,4.7266,4.7309,4.7309,4.7309,4.7309,4.7077,4.655,4.5489,4.4509,4.3553,4.2541,4.167,4.0883,4.0377,3.9981,3.9697,3.9697,3.9697,3.9697,3.9697,3.9697,3.9697,3.9993,4.0096,3.9929,3.9788,3.9697,2.9002,2.8979,0.0,2.8815,2.9314,0.0,2.9426,3.0773,3.2211,3.2614,3.429,3.6078,3.7303,3.8717,4.0011,4.0815,4.1471,4.2473,4.4168,4.4743,4.4724,4.3976,4.3611,4.3439,4.3445,4.3082,4.3046,4.3563,4.3418,4.329,4.329,4.329,4.329,4.3329,4.3898,4.4282,4.4398,4.554,4.6172,4.6322,4.692,4.7234,4.7309,4.7309,4.7309,4.7309,4.7309,4.7309,4.7309,4.7309,4.7309,4.7309,4.7309,4.7309,4.7309,4.7309,4.7309,4.7309,4.7309,4.7309,4.7309,4.7309,4.7309,4.7309,4.7309,4.699,4.6447,4.5792,4.4759,4.3743,4.3218,4.3525,4.4031,4.4031,4.4031,4.4031,4.4031,4.3321,4.3081,4.4406,4.4791,4.5158,4.6121,4.6358,4.6594,4.7077,4.7121,4.7164,4.7309,4.7309,4.7309,4.7309,4.6314,4.5307,4.4541,4.3239,4.2173,4.1372,4.058,4.0032,3.9697,3.9697,3.9697,3.9697,3.9697,3.9697,3.9697,3.9697,3.9697,3.9697,3.9697,3.9697,3.1975,3.167,3.1182,3.1203,3.1285,0.0,3.1024,3.1545,3.2211,3.2616,3.3884,3.4975,3.5137,3.6423,3.7879,3.9208,4.0037,4.1131,4.3036,4.3604,4.3842,4.3896,4.407,4.3915,4.3183,4.2782,4.2648,4.2801,4.3109,4.329,4.329,4.329,4.3384,4.3596,4.3771,4.4167,4.4855,4.4896,4.5477,4.6518,4.6484,4.68,4.7309,4.7309,4.7309,4.7309,4.7309,4.7309,4.7309,4.7309,4.7309,4.7309,4.7309,4.7309,4.7309,4.7309,4.7309,4.7309,4.7309,4.7309,4.7309,4.7309,4.7309,4.7309,4.7309,4.699,4.6269,4.4773,4.3743,4.2929,4.2457,4.2262,4.2248,4.2417,4.2452,4.2417,4.2248,4.2065,4.1967,4.2039,4.2695,4.3464,4.4059,4.4879,4.5595,4.6105,4.615,4.6462,4.7207,4.7309,4.7309,4.7309,4.6844,4.6121,4.5064,4.3776,4.2639,4.1683,4.0846,4.0198,3.9749,3.9697,3.9697,3.9697,3.9697,3.9697,3.9697,3.9697,3.9697,3.9697,3.9697,3.9697,3.457,3.3705,3.2692,3.3101,3.242,0.0,0.0,3.1441,3.1603,3.1605,3.2696,3.3611,3.3431,3.4646,3.6011,3.7127,3.7939,3.9065,4.0768,4.2038,4.2808,4.2762,4.2792,4.2734,4.2623,4.2157,4.194,4.2146,4.2593,4.2851,4.2851,4.3125,4.3423,4.369,4.369,4.3959,4.4488,4.4594,4.5122,4.609,4.6241,4.6666,4.7309,4.7309,4.7309,4.7309,4.7309,4.7309,4.7309,4.7309,4.7309,4.7309,4.7309,4.7309,4.7309,4.7309,4.7309,4.7309,4.7309,4.7309,4.7309,4.7309,4.7309,4.7309,4.7309,4.6727,4.5806,4.4527,4.3348,4.236,4.1845,4.1498,4.1335,4.1408,4.1458,4.1421,4.1335,4.1084,4.0883,4.0719,4.1145,4.1779,4.2687,4.3266,4.3804,4.4336,4.4815,4.5504,4.6462,4.699,4.7309,4.7309,4.6829,4.6195,4.5307,4.3979,4.2798,4.1746,4.0946,4.0249,3.9749,3.9697,3.9697,3.9697,3.9697,3.9697,3.9697,3.9697,3.9697,3.9697,3.9697,3.9697,3.6735,3.5566,3.429,3.4742,3.3546,3.2103,0.0,0.0,0.0,3.0761,3.157,3.229,3.211,3.319,3.432,3.5042,3.5842,3.6829,3.8159,3.98,4.0949,4.1249,4.1143,4.1242,4.1639,4.1226,4.0962,4.1148,4.1738,4.2119,4.2201,4.2791,4.3328,4.3754,4.3769,4.3871,4.4089,4.437,4.4876,4.566,4.5984,4.6546,4.7309,4.7309,4.7309,4.7309,4.7309,4.7309,4.7309,4.7309,4.7309,4.7309,4.7309,4.7309,4.7309,4.7309,4.7309,4.7309,4.7309,4.7309,4.7309,4.7309,4.7309,4.7309,4.7251,4.6447,4.5398,4.4559,4.3239,4.1967,4.1348,4.0946,4.0681,4.0681,4.0681,4.0681,4.0681,4.0338,4.0032,4.0032,4.0083,4.0427,4.1484,4.1832,4.2092,4.2547,4.3451,4.4443,4.5473,4.6269,4.6712,4.6712,4.6091,4.5537,4.5201,4.3823,4.259,4.1683,4.0846,4.0198,3.9749,3.9697,3.9697,3.9697,3.9697,3.9697,3.9697,3.9697,3.9697,3.9697,3.9697,3.9697,3.8072,3.7629,3.6826,3.6305,3.5515,3.4515,3.309,0.0,3.1662,3.1437,0.0,3.1412,3.1328,0.0,0.0,3.3541,3.4286,3.5047,3.5853,3.6208,3.727,3.9782,4.0391,4.0387,3.9852,3.985,3.9711,3.9247,4.0215,4.101,4.1497,4.2156,4.2941,4.3918,4.3949,4.4127,4.4549,4.4242,4.4677,4.5879,4.5545,4.6082,4.7309,4.7309,4.7309,4.7309,4.7309,4.7309,4.7309,4.7309,4.7309,4.7309,4.7309,4.7309,4.7309,4.7309,4.7309,4.7309,4.7309,4.7309,4.7309,4.7309,4.7309,4.7251,4.7019,4.6373,4.5551,4.4606,4.3163,4.1842,4.1134,4.0389,3.9852,3.9852,3.9852,3.9852,3.9852,3.98,3.9736,3.9736,3.9736,3.9788,3.9942,4.0757,4.1411,4.1461,4.2387,4.3403,4.4457,4.4676,4.4737,4.4737,4.3865,4.3614,4.4373,4.3033,4.1891,4.1372,4.058,4.0032,3.9697,3.9697,3.9697,3.9697,3.9697,3.9697,3.9697,3.9697,3.9697,3.9697,3.9697,3.9697,3.9252,3.8617,3.7672,3.7393,3.6217,3.4823,3.3662,3.2513,3.1754,3.2022,0.0,0.0,0.0,0.0,0.0,0.0,3.2645,3.2983,3.4146,3.3964,3.4602,3.7101,3.7851,3.8216,3.829,3.8249,3.8149,3.803,3.8901,3.9673,4.0202,4.1632,4.2647,4.3218,4.3635,4.3949,4.4243,4.3988,4.4458,4.5701,4.5455,4.6007,4.7309,4.7309,4.7309,4.7309,4.7309,4.7309,4.7309,4.7309,4.7309,4.7309,4.7309,4.7309,4.7309,4.7309,4.7309,4.7309,4.7309,4.7309,4.7309,4.7309,4.7309,4.7266,4.7164,4.6521,4.5642,4.4975,4.3402,4.1891,4.1272,4.044,3.9697,3.9697,3.9697,3.9697,3.9697,3.9697,3.9697,3.9697,3.9697,3.9697,3.9697,4.0044,4.0351,4.0351,4.1298,4.2092,4.2533,4.3163,4.3053,4.1805,4.1868,4.2052,4.2195,4.1828,4.1358,4.0883,4.0236,3.9839,3.9697,3.9697,3.9697,3.9697,3.9697,3.9697,3.9697,3.9697,3.9697,3.9697,3.9697,3.9697,4.0544,3.9655,3.8523,3.832,3.6718,3.4946,3.4116,3.281,3.1957,3.2618,3.2747,0.0,0.0,0.0,0.0,0.0,0.0,3.1495,3.2374,3.185,3.2273,3.4704,3.5677,3.6337,3.6881,3.685,3.6866,3.7017,3.759,3.829,3.9152,4.0718,4.1918,4.268,4.3163,4.3611,4.3988,4.3808,4.4338,4.5604,4.5413,4.6007,4.7309,4.7309,4.7309,4.7309,4.7309,4.7309,4.7309,4.7309,4.7309,4.7309,4.7309,4.7309,4.7309,4.7309,4.7309,4.7309,4.7309,4.7309,4.7309,4.7309,4.7309,4.7309,4.7309,4.6668,4.5792,4.5264,4.3687,4.2075,4.1458,4.058,3.9788,3.9749,3.9697,3.9697,3.9697,3.9697,3.9697,3.9697,3.9697,3.9697,3.9697,3.9697,3.9697,3.9697,4.0351,4.0858,4.0858,4.1547,4.1448,3.9839,4.0529,4.0971,4.0668,4.092,4.0833,4.03,3.9903,3.9697,3.9697,3.9697,3.9697,3.9697,3.9697,3.9697,3.9697,3.9697,3.9697,3.9697,3.9697,3.9697,4.2016,4.1162,3.9859,3.9165,3.7263,3.5385,3.4646,3.3326,3.2479,3.322,3.3372,3.3372,3.3372,0.0,0.0,0.0,0.0,0.0,0.0,2.9567,3.0194,3.3136,3.4533,3.5381,3.5712,3.5934,3.6059,3.6129,3.6245,3.6977,3.8626,3.9197,4.0471,4.2635,4.2726,4.3158,4.3972,4.3808,4.4338,4.5604,4.5413,4.6007,4.7309,4.7309,4.7309,4.7309,4.7309,4.7309,4.7309,4.7309,4.7309,4.7309,4.7309,4.7309,4.7309,4.7309,4.7309,4.7309,4.7309,4.7309,4.7309,4.7309,4.7309,4.7309,4.7309,4.6756,4.6031,4.531,4.3984,4.255,4.1558,4.0719,4.0032,3.9736,3.9697,3.9697,3.9697,3.9697,3.9697,3.9697,3.9697,3.9697,3.9697,3.9697,3.9697,3.9697,3.9749,3.9749,3.9749,3.98,3.98,3.9697,4.0198,4.0504,4.0504,4.0504,4.03,3.9749,3.9697,3.9697,3.9697,3.9697,3.9697,3.9697,3.9697,3.9697,3.9697,3.9697,3.9697,3.9697,3.9697,3.9697,4.2219,4.1576,4.0646,3.9926,3.8065,3.618,3.5419,3.41,3.3372,3.4585,3.4856,3.503,3.5537,0.0,0.0,0.0,0.0,0.0,0.0,2.9465,2.9551,3.1055,3.1924,3.2787,3.3752,3.4039,3.4188,3.43,3.5231,3.6304,3.7467,3.8833,4.0289,4.1783,4.2263,4.2827,4.3527,4.3463,4.4083,4.5413,4.5331,4.6007,4.7309,4.7309,4.7309,4.7309,4.7309,4.7309,4.7309,4.7309,4.7309,4.7309,4.7309,4.7309,4.7309,4.7309,4.7309,4.7309,4.7309,4.7309,4.7309,4.7309,4.7309,4.7309,4.7309,4.68,4.6076,4.552,4.4247,4.2867,4.2052,4.1084,4.03,4.0032,3.9839,3.9697,3.9697,3.9697,3.9697,3.9697,3.9697,3.9697,3.9697,3.9697,3.9697,3.9697,3.9697,3.9697,3.9697,3.9697,3.9697,3.9697,3.9852,3.9942,3.9942,3.9942,3.989,3.9697,3.9697,3.9697,3.9697,3.9697,3.9697,3.9697,3.9697,3.9697,3.9697,3.9697,3.9697,3.9697,3.9697,3.9697,4.3031,4.2371,4.1474,4.101,3.9233,3.7455,3.6941,3.5673,3.4945,3.6157,3.6411,3.6586,3.7094,3.6552,0.0,0.0,0.0,0.0,0.0,2.9314,2.9281,3.0023,3.0656,3.1483,3.2515,3.2865,3.3217,3.3665,3.4509,3.5505,3.6648,3.8175,3.9619,4.098,4.1707,4.2447,4.329,4.329,4.3947,4.5289,4.5289,4.6007,4.7309,4.7309,4.7309,4.7309,4.7309,4.7309,4.7309,4.7309,4.7309,4.7309,4.7309,4.7309,4.7309,4.7309,4.7309,4.7309,4.7309,4.7309,4.7309,4.7309,4.7309,4.7309,4.7309,4.6887,4.6343,4.5761,4.4727,4.3491,4.2493,4.1521,4.0681,4.0236,3.989,3.9697,3.9697,3.9697,3.9697,3.9697,3.9697,3.9697,3.9697,3.9697,3.9697,3.9697,3.9697,3.9697,3.9697,3.9697,3.9697,3.9697,3.9697,3.9697,3.9697,3.9697,3.9697,3.9697,3.9697,3.9697,3.9697,3.9697,3.9697,3.9697,3.9697,3.9697,3.9697,3.9697,3.9697,3.9697,3.9697,3.9798]}]]